<?xml version="1.0" encoding="UTF-8" standalone="no" ?>
<gpx xmlns="http://www.topografix.com/GPX/1/1" xmlns:xsi="http://www.w3.org/2001/XMLSchema-instance" xsi:schemaLocation="http://www.topografix.com/GPX/1/1 http://www.topografix.com/GPX/1/1/gpx.xsd" version="1.1" creator="VisuGPX - https://www.visugpx.com">
  <metadata>
    <name>De Bonnac à St Pardoux</name>
    <desc><![CDATA[ Quelques rudes montées suivies d'agréables descentes....]]></desc>
  </metadata>
  <trk>
    <name><![CDATA[Tracé actuel: 14 AVR 2016 10:35]]></name>
    <trkseg>
      <trkpt lat="45.94234" lon="1.28171">
        <ele>424.56</ele>
        <time>2016-04-14T08:35:50Z</time>
      </trkpt>
      <trkpt lat="45.94234" lon="1.28172">
        <ele>424.08</ele>
        <time>2016-04-14T08:36:20Z</time>
      </trkpt>
      <trkpt lat="45.94237" lon="1.28176">
        <ele>424.08</ele>
        <time>2016-04-14T08:36:45Z</time>
      </trkpt>
      <trkpt lat="45.94227" lon="1.28174">
        <ele>424.08</ele>
        <time>2016-04-14T08:37:01Z</time>
      </trkpt>
      <trkpt lat="45.94228" lon="1.28176">
        <ele>423.6</ele>
        <time>2016-04-14T08:37:20Z</time>
      </trkpt>
      <trkpt lat="45.94235" lon="1.28178">
        <ele>425.04</ele>
        <time>2016-04-14T08:37:53Z</time>
      </trkpt>
      <trkpt lat="45.94235" lon="1.28178">
        <ele>425.04</ele>
        <time>2016-04-14T08:37:54Z</time>
      </trkpt>
      <trkpt lat="45.94233" lon="1.28176">
        <ele>425.04</ele>
        <time>2016-04-14T08:38:19Z</time>
      </trkpt>
      <trkpt lat="45.94238" lon="1.28172">
        <ele>423.6</ele>
        <time>2016-04-14T08:38:46Z</time>
      </trkpt>
      <trkpt lat="45.94235" lon="1.28176">
        <ele>424.08</ele>
        <time>2016-04-14T08:39:07Z</time>
      </trkpt>
      <trkpt lat="45.94227" lon="1.28175">
        <ele>424.08</ele>
        <time>2016-04-14T08:39:37Z</time>
      </trkpt>
      <trkpt lat="45.94228" lon="1.28175">
        <ele>424.08</ele>
        <time>2016-04-14T08:40:11Z</time>
      </trkpt>
      <trkpt lat="45.9423" lon="1.28173">
        <ele>424.08</ele>
        <time>2016-04-14T08:40:43Z</time>
      </trkpt>
      <trkpt lat="45.94233" lon="1.28178">
        <ele>424.08</ele>
        <time>2016-04-14T08:41:13Z</time>
      </trkpt>
      <trkpt lat="45.9423" lon="1.28186">
        <ele>424.08</ele>
        <time>2016-04-14T08:41:18Z</time>
      </trkpt>
      <trkpt lat="45.94217" lon="1.28228">
        <ele>423.12</ele>
        <time>2016-04-14T08:41:32Z</time>
      </trkpt>
      <trkpt lat="45.94218" lon="1.28232">
        <ele>423.12</ele>
        <time>2016-04-14T08:41:33Z</time>
      </trkpt>
      <trkpt lat="45.9422" lon="1.28235">
        <ele>423.12</ele>
        <time>2016-04-14T08:41:34Z</time>
      </trkpt>
      <trkpt lat="45.9424" lon="1.2824">
        <ele>423.12</ele>
        <time>2016-04-14T08:41:43Z</time>
      </trkpt>
      <trkpt lat="45.94243" lon="1.28237">
        <ele>423.12</ele>
        <time>2016-04-14T08:41:44Z</time>
      </trkpt>
      <trkpt lat="45.94244" lon="1.28233">
        <ele>423.6</ele>
        <time>2016-04-14T08:41:45Z</time>
      </trkpt>
      <trkpt lat="45.94246" lon="1.28229">
        <ele>423.6</ele>
        <time>2016-04-14T08:41:46Z</time>
      </trkpt>
      <trkpt lat="45.94248" lon="1.28225">
        <ele>423.6</ele>
        <time>2016-04-14T08:41:47Z</time>
      </trkpt>
      <trkpt lat="45.94251" lon="1.2822">
        <ele>423.12</ele>
        <time>2016-04-14T08:41:48Z</time>
      </trkpt>
      <trkpt lat="45.94253" lon="1.28216">
        <ele>423.12</ele>
        <time>2016-04-14T08:41:49Z</time>
      </trkpt>
      <trkpt lat="45.94274" lon="1.28169">
        <ele>421.68</ele>
        <time>2016-04-14T08:41:57Z</time>
      </trkpt>
      <trkpt lat="45.94291" lon="1.28108">
        <ele>418.31</ele>
        <time>2016-04-14T08:42:04Z</time>
      </trkpt>
      <trkpt lat="45.94293" lon="1.28099">
        <ele>418.31</ele>
        <time>2016-04-14T08:42:05Z</time>
      </trkpt>
      <trkpt lat="45.94306" lon="1.28042">
        <ele>417.35</ele>
        <time>2016-04-14T08:42:11Z</time>
      </trkpt>
      <trkpt lat="45.94309" lon="1.28034">
        <ele>417.35</ele>
        <time>2016-04-14T08:42:12Z</time>
      </trkpt>
      <trkpt lat="45.94313" lon="1.28027">
        <ele>417.35</ele>
        <time>2016-04-14T08:42:13Z</time>
      </trkpt>
      <trkpt lat="45.94318" lon="1.28022">
        <ele>417.35</ele>
        <time>2016-04-14T08:42:14Z</time>
      </trkpt>
      <trkpt lat="45.94324" lon="1.28016">
        <ele>416.39</ele>
        <time>2016-04-14T08:42:15Z</time>
      </trkpt>
      <trkpt lat="45.9433" lon="1.28011">
        <ele>415.91</ele>
        <time>2016-04-14T08:42:16Z</time>
      </trkpt>
      <trkpt lat="45.94336" lon="1.28006">
        <ele>415.43</ele>
        <time>2016-04-14T08:42:17Z</time>
      </trkpt>
      <trkpt lat="45.94343" lon="1.28002">
        <ele>414.95</ele>
        <time>2016-04-14T08:42:18Z</time>
      </trkpt>
      <trkpt lat="45.94362" lon="1.27994">
        <ele>414.95</ele>
        <time>2016-04-14T08:42:21Z</time>
      </trkpt>
      <trkpt lat="45.94415" lon="1.27979">
        <ele>416.39</ele>
        <time>2016-04-14T08:42:32Z</time>
      </trkpt>
      <trkpt lat="45.94449" lon="1.27934">
        <ele>417.83</ele>
        <time>2016-04-14T08:42:45Z</time>
      </trkpt>
      <trkpt lat="45.94484" lon="1.27907">
        <ele>420.23</ele>
        <time>2016-04-14T08:43:00Z</time>
      </trkpt>
      <trkpt lat="45.94504" lon="1.27885">
        <ele>423.6</ele>
        <time>2016-04-14T08:43:13Z</time>
      </trkpt>
      <trkpt lat="45.94531" lon="1.27863">
        <ele>426</ele>
        <time>2016-04-14T08:43:29Z</time>
      </trkpt>
      <trkpt lat="45.94567" lon="1.27843">
        <ele>426</ele>
        <time>2016-04-14T08:43:41Z</time>
      </trkpt>
      <trkpt lat="45.94615" lon="1.27824">
        <ele>426</ele>
        <time>2016-04-14T08:43:55Z</time>
      </trkpt>
      <trkpt lat="45.9467" lon="1.27807">
        <ele>425.04</ele>
        <time>2016-04-14T08:44:11Z</time>
      </trkpt>
      <trkpt lat="45.94685" lon="1.27801">
        <ele>426.96</ele>
        <time>2016-04-14T08:44:18Z</time>
      </trkpt>
      <trkpt lat="45.94686" lon="1.278">
        <ele>426.96</ele>
        <time>2016-04-14T08:44:19Z</time>
      </trkpt>
      <trkpt lat="45.94688" lon="1.27798">
        <ele>427.44</ele>
        <time>2016-04-14T08:44:21Z</time>
      </trkpt>
      <trkpt lat="45.94689" lon="1.27798">
        <ele>427.44</ele>
        <time>2016-04-14T08:44:22Z</time>
      </trkpt>
      <trkpt lat="45.94691" lon="1.27797">
        <ele>427.44</ele>
        <time>2016-04-14T08:44:23Z</time>
      </trkpt>
      <trkpt lat="45.94707" lon="1.27788">
        <ele>430.33</ele>
        <time>2016-04-14T08:44:35Z</time>
      </trkpt>
      <trkpt lat="45.94709" lon="1.27787">
        <ele>431.29</ele>
        <time>2016-04-14T08:44:37Z</time>
      </trkpt>
      <trkpt lat="45.94726" lon="1.27778">
        <ele>433.69</ele>
        <time>2016-04-14T08:44:50Z</time>
      </trkpt>
      <trkpt lat="45.94727" lon="1.27777">
        <ele>434.17</ele>
        <time>2016-04-14T08:44:51Z</time>
      </trkpt>
      <trkpt lat="45.94743" lon="1.27769">
        <ele>437.54</ele>
        <time>2016-04-14T08:45:04Z</time>
      </trkpt>
      <trkpt lat="45.94744" lon="1.27769">
        <ele>437.54</ele>
        <time>2016-04-14T08:45:05Z</time>
      </trkpt>
      <trkpt lat="45.94746" lon="1.2777">
        <ele>438.02</ele>
        <time>2016-04-14T08:45:07Z</time>
      </trkpt>
      <trkpt lat="45.94752" lon="1.27768">
        <ele>439.94</ele>
        <time>2016-04-14T08:45:13Z</time>
      </trkpt>
      <trkpt lat="45.94761" lon="1.27758">
        <ele>441.38</ele>
        <time>2016-04-14T08:45:22Z</time>
      </trkpt>
      <trkpt lat="45.94764" lon="1.27752">
        <ele>442.82</ele>
        <time>2016-04-14T08:45:26Z</time>
      </trkpt>
      <trkpt lat="45.94777" lon="1.2772">
        <ele>444.27</ele>
        <time>2016-04-14T08:45:44Z</time>
      </trkpt>
      <trkpt lat="45.94794" lon="1.27697">
        <ele>447.15</ele>
        <time>2016-04-14T08:46:00Z</time>
      </trkpt>
      <trkpt lat="45.94808" lon="1.27684">
        <ele>450.03</ele>
        <time>2016-04-14T08:46:15Z</time>
      </trkpt>
      <trkpt lat="45.94823" lon="1.27674">
        <ele>452.92</ele>
        <time>2016-04-14T08:46:29Z</time>
      </trkpt>
      <trkpt lat="45.94841" lon="1.27661">
        <ele>453.88</ele>
        <time>2016-04-14T08:46:44Z</time>
      </trkpt>
      <trkpt lat="45.94845" lon="1.27657">
        <ele>454.36</ele>
        <time>2016-04-14T08:46:48Z</time>
      </trkpt>
      <trkpt lat="45.94852" lon="1.27648">
        <ele>454.36</ele>
        <time>2016-04-14T08:46:53Z</time>
      </trkpt>
      <trkpt lat="45.94874" lon="1.27617">
        <ele>454.36</ele>
        <time>2016-04-14T08:47:04Z</time>
      </trkpt>
      <trkpt lat="45.94896" lon="1.27587">
        <ele>455.32</ele>
        <time>2016-04-14T08:47:16Z</time>
      </trkpt>
      <trkpt lat="45.94912" lon="1.2755">
        <ele>456.76</ele>
        <time>2016-04-14T08:47:30Z</time>
      </trkpt>
      <trkpt lat="45.94919" lon="1.27535">
        <ele>457.24</ele>
        <time>2016-04-14T08:47:35Z</time>
      </trkpt>
      <trkpt lat="45.94939" lon="1.27492">
        <ele>459.65</ele>
        <time>2016-04-14T08:47:50Z</time>
      </trkpt>
      <trkpt lat="45.94939" lon="1.27483">
        <ele>460.13</ele>
        <time>2016-04-14T08:47:53Z</time>
      </trkpt>
      <trkpt lat="45.94927" lon="1.2744">
        <ele>460.13</ele>
        <time>2016-04-14T08:48:07Z</time>
      </trkpt>
      <trkpt lat="45.94917" lon="1.27402">
        <ele>461.09</ele>
        <time>2016-04-14T08:48:18Z</time>
      </trkpt>
      <trkpt lat="45.94909" lon="1.27387">
        <ele>459.65</ele>
        <time>2016-04-14T08:48:22Z</time>
      </trkpt>
      <trkpt lat="45.94883" lon="1.27344">
        <ele>457.72</ele>
        <time>2016-04-14T08:48:31Z</time>
      </trkpt>
      <trkpt lat="45.94836" lon="1.2728">
        <ele>457.24</ele>
        <time>2016-04-14T08:48:44Z</time>
      </trkpt>
      <trkpt lat="45.94809" lon="1.27207">
        <ele>458.69</ele>
        <time>2016-04-14T08:48:59Z</time>
      </trkpt>
      <trkpt lat="45.948" lon="1.27177">
        <ele>455.8</ele>
        <time>2016-04-14T08:49:04Z</time>
      </trkpt>
      <trkpt lat="45.94797" lon="1.27171">
        <ele>455.8</ele>
        <time>2016-04-14T08:49:05Z</time>
      </trkpt>
      <trkpt lat="45.94793" lon="1.27166">
        <ele>455.32</ele>
        <time>2016-04-14T08:49:06Z</time>
      </trkpt>
      <trkpt lat="45.94789" lon="1.27162">
        <ele>454.36</ele>
        <time>2016-04-14T08:49:07Z</time>
      </trkpt>
      <trkpt lat="45.94784" lon="1.27159">
        <ele>453.88</ele>
        <time>2016-04-14T08:49:08Z</time>
      </trkpt>
      <trkpt lat="45.94778" lon="1.27157">
        <ele>452.44</ele>
        <time>2016-04-14T08:49:09Z</time>
      </trkpt>
      <trkpt lat="45.94771" lon="1.27154">
        <ele>452.44</ele>
        <time>2016-04-14T08:49:10Z</time>
      </trkpt>
      <trkpt lat="45.94764" lon="1.2715">
        <ele>451.96</ele>
        <time>2016-04-14T08:49:11Z</time>
      </trkpt>
      <trkpt lat="45.94758" lon="1.27144">
        <ele>451.48</ele>
        <time>2016-04-14T08:49:12Z</time>
      </trkpt>
      <trkpt lat="45.94699" lon="1.27108">
        <ele>450.52</ele>
        <time>2016-04-14T08:49:22Z</time>
      </trkpt>
      <trkpt lat="45.94689" lon="1.27104">
        <ele>450.03</ele>
        <time>2016-04-14T08:49:24Z</time>
      </trkpt>
      <trkpt lat="45.94686" lon="1.27101">
        <ele>450.52</ele>
        <time>2016-04-14T08:49:25Z</time>
      </trkpt>
      <trkpt lat="45.94662" lon="1.27079">
        <ele>452.44</ele>
        <time>2016-04-14T08:49:35Z</time>
      </trkpt>
      <trkpt lat="45.94661" lon="1.27076">
        <ele>452.44</ele>
        <time>2016-04-14T08:49:36Z</time>
      </trkpt>
      <trkpt lat="45.94662" lon="1.27074">
        <ele>452.44</ele>
        <time>2016-04-14T08:49:37Z</time>
      </trkpt>
      <trkpt lat="45.94663" lon="1.27073">
        <ele>452.92</ele>
        <time>2016-04-14T08:49:38Z</time>
      </trkpt>
      <trkpt lat="45.94664" lon="1.27073">
        <ele>452.92</ele>
        <time>2016-04-14T08:49:39Z</time>
      </trkpt>
      <trkpt lat="45.94666" lon="1.27072">
        <ele>452.92</ele>
        <time>2016-04-14T08:49:40Z</time>
      </trkpt>
      <trkpt lat="45.94667" lon="1.27072">
        <ele>453.4</ele>
        <time>2016-04-14T08:49:41Z</time>
      </trkpt>
      <trkpt lat="45.94684" lon="1.2707">
        <ele>455.8</ele>
        <time>2016-04-14T08:49:54Z</time>
      </trkpt>
      <trkpt lat="45.94706" lon="1.27073">
        <ele>457.72</ele>
        <time>2016-04-14T08:50:08Z</time>
      </trkpt>
      <trkpt lat="45.94734" lon="1.2708">
        <ele>460.13</ele>
        <time>2016-04-14T08:50:23Z</time>
      </trkpt>
      <trkpt lat="45.94761" lon="1.27086">
        <ele>462.53</ele>
        <time>2016-04-14T08:50:37Z</time>
      </trkpt>
      <trkpt lat="45.94787" lon="1.27093">
        <ele>464.93</ele>
        <time>2016-04-14T08:50:50Z</time>
      </trkpt>
      <trkpt lat="45.94789" lon="1.27095">
        <ele>464.93</ele>
        <time>2016-04-14T08:50:51Z</time>
      </trkpt>
      <trkpt lat="45.94817" lon="1.27116">
        <ele>465.9</ele>
        <time>2016-04-14T08:51:03Z</time>
      </trkpt>
      <trkpt lat="45.94819" lon="1.27117">
        <ele>465.9</ele>
        <time>2016-04-14T08:51:04Z</time>
      </trkpt>
      <trkpt lat="45.94821" lon="1.27117">
        <ele>465.9</ele>
        <time>2016-04-14T08:51:05Z</time>
      </trkpt>
      <trkpt lat="45.94822" lon="1.27118">
        <ele>465.9</ele>
        <time>2016-04-14T08:51:06Z</time>
      </trkpt>
      <trkpt lat="45.94824" lon="1.27118">
        <ele>465.9</ele>
        <time>2016-04-14T08:51:07Z</time>
      </trkpt>
      <trkpt lat="45.94826" lon="1.27119">
        <ele>465.9</ele>
        <time>2016-04-14T08:51:08Z</time>
      </trkpt>
      <trkpt lat="45.94828" lon="1.27121">
        <ele>465.9</ele>
        <time>2016-04-14T08:51:09Z</time>
      </trkpt>
      <trkpt lat="45.94859" lon="1.2714">
        <ele>467.34</ele>
        <time>2016-04-14T08:51:23Z</time>
      </trkpt>
      <trkpt lat="45.94887" lon="1.27147">
        <ele>468.3</ele>
        <time>2016-04-14T08:51:35Z</time>
      </trkpt>
      <trkpt lat="45.94921" lon="1.27146">
        <ele>469.26</ele>
        <time>2016-04-14T08:51:49Z</time>
      </trkpt>
      <trkpt lat="45.94955" lon="1.27139">
        <ele>469.74</ele>
        <time>2016-04-14T08:52:02Z</time>
      </trkpt>
      <trkpt lat="45.94988" lon="1.27127">
        <ele>471.18</ele>
        <time>2016-04-14T08:52:14Z</time>
      </trkpt>
      <trkpt lat="45.94993" lon="1.27125">
        <ele>471.18</ele>
        <time>2016-04-14T08:52:16Z</time>
      </trkpt>
      <trkpt lat="45.94995" lon="1.27123">
        <ele>471.18</ele>
        <time>2016-04-14T08:52:17Z</time>
      </trkpt>
      <trkpt lat="45.95037" lon="1.27112">
        <ele>473.59</ele>
        <time>2016-04-14T08:52:32Z</time>
      </trkpt>
      <trkpt lat="45.95049" lon="1.2711">
        <ele>475.51</ele>
        <time>2016-04-14T08:52:38Z</time>
      </trkpt>
      <trkpt lat="45.95057" lon="1.27111">
        <ele>476.47</ele>
        <time>2016-04-14T08:52:44Z</time>
      </trkpt>
      <trkpt lat="45.95059" lon="1.27111">
        <ele>476.47</ele>
        <time>2016-04-14T08:52:45Z</time>
      </trkpt>
      <trkpt lat="45.95061" lon="1.27111">
        <ele>476.47</ele>
        <time>2016-04-14T08:52:46Z</time>
      </trkpt>
      <trkpt lat="45.95063" lon="1.27111">
        <ele>476.47</ele>
        <time>2016-04-14T08:52:47Z</time>
      </trkpt>
      <trkpt lat="45.95066" lon="1.2711">
        <ele>476.95</ele>
        <time>2016-04-14T08:52:48Z</time>
      </trkpt>
      <trkpt lat="45.95069" lon="1.2711">
        <ele>476.95</ele>
        <time>2016-04-14T08:52:49Z</time>
      </trkpt>
      <trkpt lat="45.95071" lon="1.27109">
        <ele>476.95</ele>
        <time>2016-04-14T08:52:50Z</time>
      </trkpt>
      <trkpt lat="45.95074" lon="1.27109">
        <ele>476.95</ele>
        <time>2016-04-14T08:52:51Z</time>
      </trkpt>
      <trkpt lat="45.95076" lon="1.27109">
        <ele>477.43</ele>
        <time>2016-04-14T08:52:52Z</time>
      </trkpt>
      <trkpt lat="45.95078" lon="1.27108">
        <ele>477.43</ele>
        <time>2016-04-14T08:52:53Z</time>
      </trkpt>
      <trkpt lat="45.95103" lon="1.2711">
        <ele>479.35</ele>
        <time>2016-04-14T08:53:06Z</time>
      </trkpt>
      <trkpt lat="45.95126" lon="1.2711">
        <ele>481.28</ele>
        <time>2016-04-14T08:53:18Z</time>
      </trkpt>
      <trkpt lat="45.95156" lon="1.27113">
        <ele>482.24</ele>
        <time>2016-04-14T08:53:31Z</time>
      </trkpt>
      <trkpt lat="45.95183" lon="1.27131">
        <ele>484.64</ele>
        <time>2016-04-14T08:53:45Z</time>
      </trkpt>
      <trkpt lat="45.9521" lon="1.27157">
        <ele>487.53</ele>
        <time>2016-04-14T08:54:01Z</time>
      </trkpt>
      <trkpt lat="45.95238" lon="1.27181">
        <ele>488.49</ele>
        <time>2016-04-14T08:54:18Z</time>
      </trkpt>
      <trkpt lat="45.95265" lon="1.27212">
        <ele>488.49</ele>
        <time>2016-04-14T08:54:31Z</time>
      </trkpt>
      <trkpt lat="45.95285" lon="1.27242">
        <ele>488.49</ele>
        <time>2016-04-14T08:54:42Z</time>
      </trkpt>
      <trkpt lat="45.95295" lon="1.27263">
        <ele>488.49</ele>
        <time>2016-04-14T08:54:51Z</time>
      </trkpt>
      <trkpt lat="45.95296" lon="1.27265">
        <ele>488.49</ele>
        <time>2016-04-14T08:54:52Z</time>
      </trkpt>
      <trkpt lat="45.95297" lon="1.27267">
        <ele>488.49</ele>
        <time>2016-04-14T08:54:53Z</time>
      </trkpt>
      <trkpt lat="45.95307" lon="1.27298">
        <ele>488.97</ele>
        <time>2016-04-14T08:55:04Z</time>
      </trkpt>
      <trkpt lat="45.95309" lon="1.27309">
        <ele>488.97</ele>
        <time>2016-04-14T08:55:07Z</time>
      </trkpt>
      <trkpt lat="45.95309" lon="1.27313">
        <ele>488.97</ele>
        <time>2016-04-14T08:55:08Z</time>
      </trkpt>
      <trkpt lat="45.95309" lon="1.27317">
        <ele>488.97</ele>
        <time>2016-04-14T08:55:09Z</time>
      </trkpt>
      <trkpt lat="45.95312" lon="1.27339">
        <ele>488.01</ele>
        <time>2016-04-14T08:55:14Z</time>
      </trkpt>
      <trkpt lat="45.95313" lon="1.27399">
        <ele>486.08</ele>
        <time>2016-04-14T08:55:26Z</time>
      </trkpt>
      <trkpt lat="45.95319" lon="1.27416">
        <ele>485.6</ele>
        <time>2016-04-14T08:55:30Z</time>
      </trkpt>
      <trkpt lat="45.95322" lon="1.27418">
        <ele>484.64</ele>
        <time>2016-04-14T08:55:31Z</time>
      </trkpt>
      <trkpt lat="45.95331" lon="1.27422">
        <ele>483.2</ele>
        <time>2016-04-14T08:55:33Z</time>
      </trkpt>
      <trkpt lat="45.95344" lon="1.27429">
        <ele>482.72</ele>
        <time>2016-04-14T08:55:36Z</time>
      </trkpt>
      <trkpt lat="45.95369" lon="1.27446">
        <ele>484.16</ele>
        <time>2016-04-14T08:55:46Z</time>
      </trkpt>
      <trkpt lat="45.95381" lon="1.27457">
        <ele>486.08</ele>
        <time>2016-04-14T08:55:58Z</time>
      </trkpt>
      <trkpt lat="45.95396" lon="1.2747">
        <ele>488.97</ele>
        <time>2016-04-14T08:56:10Z</time>
      </trkpt>
      <trkpt lat="45.95409" lon="1.27476">
        <ele>490.41</ele>
        <time>2016-04-14T08:56:20Z</time>
      </trkpt>
      <trkpt lat="45.95423" lon="1.27479">
        <ele>492.81</ele>
        <time>2016-04-14T08:56:32Z</time>
      </trkpt>
      <trkpt lat="45.95426" lon="1.27479">
        <ele>493.29</ele>
        <time>2016-04-14T08:56:35Z</time>
      </trkpt>
      <trkpt lat="45.95428" lon="1.27479">
        <ele>493.77</ele>
        <time>2016-04-14T08:56:36Z</time>
      </trkpt>
      <trkpt lat="45.95434" lon="1.27483">
        <ele>494.74</ele>
        <time>2016-04-14T08:56:41Z</time>
      </trkpt>
      <trkpt lat="45.95438" lon="1.2749">
        <ele>495.7</ele>
        <time>2016-04-14T08:56:46Z</time>
      </trkpt>
      <trkpt lat="45.9544" lon="1.27493">
        <ele>495.7</ele>
        <time>2016-04-14T08:56:48Z</time>
      </trkpt>
      <trkpt lat="45.95441" lon="1.27495">
        <ele>496.18</ele>
        <time>2016-04-14T08:56:49Z</time>
      </trkpt>
      <trkpt lat="45.95444" lon="1.27513">
        <ele>497.62</ele>
        <time>2016-04-14T08:57:00Z</time>
      </trkpt>
      <trkpt lat="45.95452" lon="1.27533">
        <ele>500.5</ele>
        <time>2016-04-14T08:57:15Z</time>
      </trkpt>
      <trkpt lat="45.95462" lon="1.27539">
        <ele>501.95</ele>
        <time>2016-04-14T08:57:33Z</time>
      </trkpt>
      <trkpt lat="45.95471" lon="1.27545">
        <ele>502.91</ele>
        <time>2016-04-14T08:57:47Z</time>
      </trkpt>
      <trkpt lat="45.95477" lon="1.27555">
        <ele>504.83</ele>
        <time>2016-04-14T08:58:02Z</time>
      </trkpt>
      <trkpt lat="45.95484" lon="1.27565">
        <ele>506.27</ele>
        <time>2016-04-14T08:58:17Z</time>
      </trkpt>
      <trkpt lat="45.95487" lon="1.27573">
        <ele>506.75</ele>
        <time>2016-04-14T08:58:28Z</time>
      </trkpt>
      <trkpt lat="45.95491" lon="1.27579">
        <ele>507.71</ele>
        <time>2016-04-14T08:58:33Z</time>
      </trkpt>
      <trkpt lat="45.95492" lon="1.27581">
        <ele>507.71</ele>
        <time>2016-04-14T08:58:34Z</time>
      </trkpt>
      <trkpt lat="45.95493" lon="1.27583">
        <ele>507.71</ele>
        <time>2016-04-14T08:58:35Z</time>
      </trkpt>
      <trkpt lat="45.95493" lon="1.27584">
        <ele>507.71</ele>
        <time>2016-04-14T08:58:36Z</time>
      </trkpt>
      <trkpt lat="45.95507" lon="1.27598">
        <ele>509.64</ele>
        <time>2016-04-14T08:58:50Z</time>
      </trkpt>
      <trkpt lat="45.9551" lon="1.276">
        <ele>510.12</ele>
        <time>2016-04-14T08:58:53Z</time>
      </trkpt>
      <trkpt lat="45.95527" lon="1.27613">
        <ele>512.52</ele>
        <time>2016-04-14T08:59:07Z</time>
      </trkpt>
      <trkpt lat="45.95542" lon="1.27618">
        <ele>513.48</ele>
        <time>2016-04-14T08:59:19Z</time>
      </trkpt>
      <trkpt lat="45.95564" lon="1.27622">
        <ele>515.88</ele>
        <time>2016-04-14T08:59:33Z</time>
      </trkpt>
      <trkpt lat="45.95587" lon="1.27631">
        <ele>516.37</ele>
        <time>2016-04-14T08:59:46Z</time>
      </trkpt>
      <trkpt lat="45.95609" lon="1.27647">
        <ele>517.81</ele>
        <time>2016-04-14T08:59:58Z</time>
      </trkpt>
      <trkpt lat="45.95634" lon="1.27667">
        <ele>519.25</ele>
        <time>2016-04-14T09:00:12Z</time>
      </trkpt>
      <trkpt lat="45.95656" lon="1.2768">
        <ele>521.17</ele>
        <time>2016-04-14T09:00:24Z</time>
      </trkpt>
      <trkpt lat="45.95675" lon="1.27692">
        <ele>522.13</ele>
        <time>2016-04-14T09:00:36Z</time>
      </trkpt>
      <trkpt lat="45.95687" lon="1.27706">
        <ele>523.58</ele>
        <time>2016-04-14T09:00:44Z</time>
      </trkpt>
      <trkpt lat="45.95689" lon="1.27708">
        <ele>523.58</ele>
        <time>2016-04-14T09:00:45Z</time>
      </trkpt>
      <trkpt lat="45.95691" lon="1.2771">
        <ele>523.58</ele>
        <time>2016-04-14T09:00:46Z</time>
      </trkpt>
      <trkpt lat="45.95706" lon="1.27718">
        <ele>525.02</ele>
        <time>2016-04-14T09:00:55Z</time>
      </trkpt>
      <trkpt lat="45.95724" lon="1.27726">
        <ele>526.94</ele>
        <time>2016-04-14T09:01:06Z</time>
      </trkpt>
      <trkpt lat="45.95726" lon="1.27727">
        <ele>527.42</ele>
        <time>2016-04-14T09:01:07Z</time>
      </trkpt>
      <trkpt lat="45.95727" lon="1.27727">
        <ele>527.42</ele>
        <time>2016-04-14T09:01:08Z</time>
      </trkpt>
      <trkpt lat="45.95729" lon="1.27728">
        <ele>527.42</ele>
        <time>2016-04-14T09:01:09Z</time>
      </trkpt>
      <trkpt lat="45.9573" lon="1.27729">
        <ele>527.42</ele>
        <time>2016-04-14T09:01:10Z</time>
      </trkpt>
      <trkpt lat="45.95738" lon="1.27731">
        <ele>528.38</ele>
        <time>2016-04-14T09:01:16Z</time>
      </trkpt>
      <trkpt lat="45.9574" lon="1.27734">
        <ele>528.86</ele>
        <time>2016-04-14T09:01:19Z</time>
      </trkpt>
      <trkpt lat="45.95742" lon="1.27735">
        <ele>529.34</ele>
        <time>2016-04-14T09:01:20Z</time>
      </trkpt>
      <trkpt lat="45.95743" lon="1.27736">
        <ele>529.34</ele>
        <time>2016-04-14T09:01:21Z</time>
      </trkpt>
      <trkpt lat="45.95749" lon="1.27741">
        <ele>529.82</ele>
        <time>2016-04-14T09:01:26Z</time>
      </trkpt>
      <trkpt lat="45.95751" lon="1.27742">
        <ele>530.3</ele>
        <time>2016-04-14T09:01:27Z</time>
      </trkpt>
      <trkpt lat="45.95752" lon="1.27743">
        <ele>530.3</ele>
        <time>2016-04-14T09:01:28Z</time>
      </trkpt>
      <trkpt lat="45.95754" lon="1.27744">
        <ele>530.3</ele>
        <time>2016-04-14T09:01:29Z</time>
      </trkpt>
      <trkpt lat="45.95774" lon="1.27758">
        <ele>532.71</ele>
        <time>2016-04-14T09:01:44Z</time>
      </trkpt>
      <trkpt lat="45.95795" lon="1.27774">
        <ele>535.59</ele>
        <time>2016-04-14T09:02:00Z</time>
      </trkpt>
      <trkpt lat="45.95805" lon="1.27784">
        <ele>536.07</ele>
        <time>2016-04-14T09:02:08Z</time>
      </trkpt>
      <trkpt lat="45.95807" lon="1.27786">
        <ele>536.07</ele>
        <time>2016-04-14T09:02:09Z</time>
      </trkpt>
      <trkpt lat="45.95808" lon="1.27787">
        <ele>536.55</ele>
        <time>2016-04-14T09:02:10Z</time>
      </trkpt>
      <trkpt lat="45.95833" lon="1.27819">
        <ele>537.03</ele>
        <time>2016-04-14T09:02:27Z</time>
      </trkpt>
      <trkpt lat="45.95859" lon="1.27852">
        <ele>538.48</ele>
        <time>2016-04-14T09:02:42Z</time>
      </trkpt>
      <trkpt lat="45.95869" lon="1.2787">
        <ele>538.96</ele>
        <time>2016-04-14T09:02:49Z</time>
      </trkpt>
      <trkpt lat="45.95871" lon="1.27875">
        <ele>538.96</ele>
        <time>2016-04-14T09:02:52Z</time>
      </trkpt>
      <trkpt lat="45.95879" lon="1.27898">
        <ele>538.96</ele>
        <time>2016-04-14T09:03:04Z</time>
      </trkpt>
      <trkpt lat="45.95881" lon="1.27901">
        <ele>538.96</ele>
        <time>2016-04-14T09:03:05Z</time>
      </trkpt>
      <trkpt lat="45.95913" lon="1.27939">
        <ele>536.07</ele>
        <time>2016-04-14T09:03:19Z</time>
      </trkpt>
      <trkpt lat="45.95934" lon="1.27958">
        <ele>532.71</ele>
        <time>2016-04-14T09:03:25Z</time>
      </trkpt>
      <trkpt lat="45.95943" lon="1.27963">
        <ele>531.75</ele>
        <time>2016-04-14T09:03:27Z</time>
      </trkpt>
      <trkpt lat="45.9598" lon="1.27971">
        <ele>530.79</ele>
        <time>2016-04-14T09:03:34Z</time>
      </trkpt>
      <trkpt lat="45.95996" lon="1.27981">
        <ele>527.9</ele>
        <time>2016-04-14T09:03:38Z</time>
      </trkpt>
      <trkpt lat="45.96009" lon="1.27993">
        <ele>525.5</ele>
        <time>2016-04-14T09:03:42Z</time>
      </trkpt>
      <trkpt lat="45.96022" lon="1.28003">
        <ele>524.54</ele>
        <time>2016-04-14T09:03:45Z</time>
      </trkpt>
      <trkpt lat="45.96057" lon="1.2802">
        <ele>522.61</ele>
        <time>2016-04-14T09:03:53Z</time>
      </trkpt>
      <trkpt lat="45.96071" lon="1.2803">
        <ele>523.58</ele>
        <time>2016-04-14T09:03:58Z</time>
      </trkpt>
      <trkpt lat="45.96107" lon="1.28041">
        <ele>526.46</ele>
        <time>2016-04-14T09:04:14Z</time>
      </trkpt>
      <trkpt lat="45.96128" lon="1.28038">
        <ele>527.9</ele>
        <time>2016-04-14T09:04:24Z</time>
      </trkpt>
      <trkpt lat="45.96156" lon="1.28008">
        <ele>528.38</ele>
        <time>2016-04-14T09:04:38Z</time>
      </trkpt>
      <trkpt lat="45.96189" lon="1.27979">
        <ele>526.46</ele>
        <time>2016-04-14T09:04:48Z</time>
      </trkpt>
      <trkpt lat="45.96198" lon="1.27963">
        <ele>525.02</ele>
        <time>2016-04-14T09:04:51Z</time>
      </trkpt>
      <trkpt lat="45.96221" lon="1.27953">
        <ele>523.58</ele>
        <time>2016-04-14T09:04:56Z</time>
      </trkpt>
      <trkpt lat="45.96263" lon="1.2795">
        <ele>521.65</ele>
        <time>2016-04-14T09:05:04Z</time>
      </trkpt>
      <trkpt lat="45.96285" lon="1.27981">
        <ele>520.21</ele>
        <time>2016-04-14T09:05:12Z</time>
      </trkpt>
      <trkpt lat="45.96288" lon="1.2799">
        <ele>520.21</ele>
        <time>2016-04-14T09:05:14Z</time>
      </trkpt>
      <trkpt lat="45.96288" lon="1.27993">
        <ele>520.21</ele>
        <time>2016-04-14T09:05:15Z</time>
      </trkpt>
      <trkpt lat="45.96287" lon="1.27996">
        <ele>520.21</ele>
        <time>2016-04-14T09:05:16Z</time>
      </trkpt>
      <trkpt lat="45.96285" lon="1.27998">
        <ele>520.21</ele>
        <time>2016-04-14T09:05:17Z</time>
      </trkpt>
      <trkpt lat="45.96272" lon="1.28025">
        <ele>518.77</ele>
        <time>2016-04-14T09:05:26Z</time>
      </trkpt>
      <trkpt lat="45.96271" lon="1.28028">
        <ele>518.29</ele>
        <time>2016-04-14T09:05:27Z</time>
      </trkpt>
      <trkpt lat="45.9627" lon="1.28032">
        <ele>517.81</ele>
        <time>2016-04-14T09:05:28Z</time>
      </trkpt>
      <trkpt lat="45.9627" lon="1.28035">
        <ele>517.81</ele>
        <time>2016-04-14T09:05:29Z</time>
      </trkpt>
      <trkpt lat="45.96268" lon="1.28057">
        <ele>516.37</ele>
        <time>2016-04-14T09:05:34Z</time>
      </trkpt>
      <trkpt lat="45.96265" lon="1.28063">
        <ele>515.88</ele>
        <time>2016-04-14T09:05:35Z</time>
      </trkpt>
      <trkpt lat="45.96261" lon="1.2807">
        <ele>515.4</ele>
        <time>2016-04-14T09:05:36Z</time>
      </trkpt>
      <trkpt lat="45.96251" lon="1.28085">
        <ele>514.92</ele>
        <time>2016-04-14T09:05:38Z</time>
      </trkpt>
      <trkpt lat="45.96203" lon="1.28134">
        <ele>513.48</ele>
        <time>2016-04-14T09:05:47Z</time>
      </trkpt>
      <trkpt lat="45.96198" lon="1.28138">
        <ele>513.48</ele>
        <time>2016-04-14T09:05:48Z</time>
      </trkpt>
      <trkpt lat="45.96188" lon="1.28147">
        <ele>513.48</ele>
        <time>2016-04-14T09:05:50Z</time>
      </trkpt>
      <trkpt lat="45.96183" lon="1.28152">
        <ele>513</ele>
        <time>2016-04-14T09:05:51Z</time>
      </trkpt>
      <trkpt lat="45.96179" lon="1.28158">
        <ele>512.52</ele>
        <time>2016-04-14T09:05:52Z</time>
      </trkpt>
      <trkpt lat="45.96175" lon="1.28165">
        <ele>512.52</ele>
        <time>2016-04-14T09:05:53Z</time>
      </trkpt>
      <trkpt lat="45.96172" lon="1.28173">
        <ele>511.56</ele>
        <time>2016-04-14T09:05:54Z</time>
      </trkpt>
      <trkpt lat="45.96171" lon="1.28181">
        <ele>511.56</ele>
        <time>2016-04-14T09:05:55Z</time>
      </trkpt>
      <trkpt lat="45.9617" lon="1.2819">
        <ele>511.56</ele>
        <time>2016-04-14T09:05:56Z</time>
      </trkpt>
      <trkpt lat="45.9617" lon="1.28198">
        <ele>510.6</ele>
        <time>2016-04-14T09:05:57Z</time>
      </trkpt>
      <trkpt lat="45.96171" lon="1.28207">
        <ele>510.6</ele>
        <time>2016-04-14T09:05:58Z</time>
      </trkpt>
      <trkpt lat="45.96175" lon="1.28229">
        <ele>512.52</ele>
        <time>2016-04-14T09:06:01Z</time>
      </trkpt>
      <trkpt lat="45.96176" lon="1.28236">
        <ele>512.52</ele>
        <time>2016-04-14T09:06:02Z</time>
      </trkpt>
      <trkpt lat="45.96196" lon="1.28305">
        <ele>513.96</ele>
        <time>2016-04-14T09:06:15Z</time>
      </trkpt>
      <trkpt lat="45.96215" lon="1.28366">
        <ele>515.88</ele>
        <time>2016-04-14T09:06:28Z</time>
      </trkpt>
      <trkpt lat="45.96232" lon="1.28411">
        <ele>517.81</ele>
        <time>2016-04-14T09:06:39Z</time>
      </trkpt>
      <trkpt lat="45.96247" lon="1.28457">
        <ele>520.21</ele>
        <time>2016-04-14T09:06:53Z</time>
      </trkpt>
      <trkpt lat="45.9625" lon="1.2847">
        <ele>521.17</ele>
        <time>2016-04-14T09:06:58Z</time>
      </trkpt>
      <trkpt lat="45.96253" lon="1.28465">
        <ele>521.65</ele>
        <time>2016-04-14T09:07:01Z</time>
      </trkpt>
      <trkpt lat="45.96254" lon="1.28462">
        <ele>521.65</ele>
        <time>2016-04-14T09:07:02Z</time>
      </trkpt>
      <trkpt lat="45.96253" lon="1.28452">
        <ele>520.21</ele>
        <time>2016-04-14T09:07:04Z</time>
      </trkpt>
      <trkpt lat="45.9625" lon="1.28441">
        <ele>518.77</ele>
        <time>2016-04-14T09:07:07Z</time>
      </trkpt>
      <trkpt lat="45.96252" lon="1.28439">
        <ele>518.29</ele>
        <time>2016-04-14T09:07:08Z</time>
      </trkpt>
      <trkpt lat="45.96254" lon="1.28439">
        <ele>518.29</ele>
        <time>2016-04-14T09:07:09Z</time>
      </trkpt>
      <trkpt lat="45.96257" lon="1.28441">
        <ele>517.33</ele>
        <time>2016-04-14T09:07:10Z</time>
      </trkpt>
      <trkpt lat="45.9626" lon="1.28443">
        <ele>516.85</ele>
        <time>2016-04-14T09:07:11Z</time>
      </trkpt>
      <trkpt lat="45.96276" lon="1.28457">
        <ele>515.88</ele>
        <time>2016-04-14T09:07:15Z</time>
      </trkpt>
      <trkpt lat="45.96281" lon="1.28462">
        <ele>515.4</ele>
        <time>2016-04-14T09:07:16Z</time>
      </trkpt>
      <trkpt lat="45.96285" lon="1.28469">
        <ele>514.44</ele>
        <time>2016-04-14T09:07:17Z</time>
      </trkpt>
      <trkpt lat="45.96294" lon="1.28482">
        <ele>513</ele>
        <time>2016-04-14T09:07:19Z</time>
      </trkpt>
      <trkpt lat="45.963" lon="1.28488">
        <ele>512.52</ele>
        <time>2016-04-14T09:07:20Z</time>
      </trkpt>
      <trkpt lat="45.96306" lon="1.28493">
        <ele>511.56</ele>
        <time>2016-04-14T09:07:21Z</time>
      </trkpt>
      <trkpt lat="45.96312" lon="1.28497">
        <ele>511.56</ele>
        <time>2016-04-14T09:07:22Z</time>
      </trkpt>
      <trkpt lat="45.96318" lon="1.28499">
        <ele>511.56</ele>
        <time>2016-04-14T09:07:23Z</time>
      </trkpt>
      <trkpt lat="45.96323" lon="1.28501">
        <ele>512.04</ele>
        <time>2016-04-14T09:07:24Z</time>
      </trkpt>
      <trkpt lat="45.96356" lon="1.28509">
        <ele>513.96</ele>
        <time>2016-04-14T09:07:35Z</time>
      </trkpt>
      <trkpt lat="45.96388" lon="1.28507">
        <ele>516.37</ele>
        <time>2016-04-14T09:07:47Z</time>
      </trkpt>
      <trkpt lat="45.96406" lon="1.28498">
        <ele>514.92</ele>
        <time>2016-04-14T09:07:52Z</time>
      </trkpt>
      <trkpt lat="45.96432" lon="1.28477">
        <ele>512.04</ele>
        <time>2016-04-14T09:07:57Z</time>
      </trkpt>
      <trkpt lat="45.96438" lon="1.28473">
        <ele>512.04</ele>
        <time>2016-04-14T09:07:58Z</time>
      </trkpt>
      <trkpt lat="45.96485" lon="1.28448">
        <ele>509.16</ele>
        <time>2016-04-14T09:08:06Z</time>
      </trkpt>
      <trkpt lat="45.96492" lon="1.28446">
        <ele>508.67</ele>
        <time>2016-04-14T09:08:07Z</time>
      </trkpt>
      <trkpt lat="45.96548" lon="1.28441">
        <ele>505.31</ele>
        <time>2016-04-14T09:08:15Z</time>
      </trkpt>
      <trkpt lat="45.96555" lon="1.28441">
        <ele>505.31</ele>
        <time>2016-04-14T09:08:16Z</time>
      </trkpt>
      <trkpt lat="45.96579" lon="1.28443">
        <ele>503.39</ele>
        <time>2016-04-14T09:08:19Z</time>
      </trkpt>
      <trkpt lat="45.9667" lon="1.28473">
        <ele>500.02</ele>
        <time>2016-04-14T09:08:32Z</time>
      </trkpt>
      <trkpt lat="45.96694" lon="1.28479">
        <ele>496.66</ele>
        <time>2016-04-14T09:08:37Z</time>
      </trkpt>
      <trkpt lat="45.96707" lon="1.28481">
        <ele>494.26</ele>
        <time>2016-04-14T09:08:40Z</time>
      </trkpt>
      <trkpt lat="45.96733" lon="1.28482">
        <ele>490.89</ele>
        <time>2016-04-14T09:08:45Z</time>
      </trkpt>
      <trkpt lat="45.96737" lon="1.28485">
        <ele>490.89</ele>
        <time>2016-04-14T09:08:46Z</time>
      </trkpt>
      <trkpt lat="45.96746" lon="1.28492">
        <ele>489.45</ele>
        <time>2016-04-14T09:08:48Z</time>
      </trkpt>
      <trkpt lat="45.96752" lon="1.28497">
        <ele>488.49</ele>
        <time>2016-04-14T09:08:49Z</time>
      </trkpt>
      <trkpt lat="45.96766" lon="1.2851">
        <ele>487.05</ele>
        <time>2016-04-14T09:08:52Z</time>
      </trkpt>
      <trkpt lat="45.96771" lon="1.28512">
        <ele>486.56</ele>
        <time>2016-04-14T09:08:53Z</time>
      </trkpt>
      <trkpt lat="45.96776" lon="1.28513">
        <ele>486.56</ele>
        <time>2016-04-14T09:08:54Z</time>
      </trkpt>
      <trkpt lat="45.96781" lon="1.28513">
        <ele>486.08</ele>
        <time>2016-04-14T09:08:55Z</time>
      </trkpt>
      <trkpt lat="45.96786" lon="1.28514">
        <ele>485.6</ele>
        <time>2016-04-14T09:08:56Z</time>
      </trkpt>
      <trkpt lat="45.96798" lon="1.28513">
        <ele>484.16</ele>
        <time>2016-04-14T09:08:58Z</time>
      </trkpt>
      <trkpt lat="45.96804" lon="1.28511">
        <ele>483.2</ele>
        <time>2016-04-14T09:08:59Z</time>
      </trkpt>
      <trkpt lat="45.96854" lon="1.28497">
        <ele>485.12</ele>
        <time>2016-04-14T09:09:10Z</time>
      </trkpt>
      <trkpt lat="45.96892" lon="1.28505">
        <ele>486.56</ele>
        <time>2016-04-14T09:09:22Z</time>
      </trkpt>
      <trkpt lat="45.96923" lon="1.28498">
        <ele>488.49</ele>
        <time>2016-04-14T09:09:34Z</time>
      </trkpt>
      <trkpt lat="45.96957" lon="1.28479">
        <ele>490.41</ele>
        <time>2016-04-14T09:09:49Z</time>
      </trkpt>
      <trkpt lat="45.96998" lon="1.2846">
        <ele>491.37</ele>
        <time>2016-04-14T09:10:04Z</time>
      </trkpt>
      <trkpt lat="45.97017" lon="1.28451">
        <ele>489.45</ele>
        <time>2016-04-14T09:10:08Z</time>
      </trkpt>
      <trkpt lat="45.97075" lon="1.28416">
        <ele>486.08</ele>
        <time>2016-04-14T09:10:19Z</time>
      </trkpt>
      <trkpt lat="45.97098" lon="1.28401">
        <ele>484.64</ele>
        <time>2016-04-14T09:10:23Z</time>
      </trkpt>
      <trkpt lat="45.97148" lon="1.28344">
        <ele>483.68</ele>
        <time>2016-04-14T09:10:35Z</time>
      </trkpt>
      <trkpt lat="45.97184" lon="1.28286">
        <ele>483.2</ele>
        <time>2016-04-14T09:10:49Z</time>
      </trkpt>
      <trkpt lat="45.9721" lon="1.28262">
        <ele>481.28</ele>
        <time>2016-04-14T09:10:57Z</time>
      </trkpt>
      <trkpt lat="45.97213" lon="1.28258">
        <ele>480.32</ele>
        <time>2016-04-14T09:10:58Z</time>
      </trkpt>
      <trkpt lat="45.97217" lon="1.28254">
        <ele>479.84</ele>
        <time>2016-04-14T09:10:59Z</time>
      </trkpt>
      <trkpt lat="45.97221" lon="1.28249">
        <ele>479.35</ele>
        <time>2016-04-14T09:11:00Z</time>
      </trkpt>
      <trkpt lat="45.97224" lon="1.28244">
        <ele>479.35</ele>
        <time>2016-04-14T09:11:01Z</time>
      </trkpt>
      <trkpt lat="45.97228" lon="1.28238">
        <ele>478.87</ele>
        <time>2016-04-14T09:11:02Z</time>
      </trkpt>
      <trkpt lat="45.9723" lon="1.28232">
        <ele>478.39</ele>
        <time>2016-04-14T09:11:03Z</time>
      </trkpt>
      <trkpt lat="45.97233" lon="1.28226">
        <ele>478.39</ele>
        <time>2016-04-14T09:11:04Z</time>
      </trkpt>
      <trkpt lat="45.97239" lon="1.28213">
        <ele>477.43</ele>
        <time>2016-04-14T09:11:06Z</time>
      </trkpt>
      <trkpt lat="45.97243" lon="1.28207">
        <ele>476.95</ele>
        <time>2016-04-14T09:11:07Z</time>
      </trkpt>
      <trkpt lat="45.97254" lon="1.28192">
        <ele>475.99</ele>
        <time>2016-04-14T09:11:10Z</time>
      </trkpt>
      <trkpt lat="45.97258" lon="1.28189">
        <ele>475.51</ele>
        <time>2016-04-14T09:11:11Z</time>
      </trkpt>
      <trkpt lat="45.97262" lon="1.28186">
        <ele>475.03</ele>
        <time>2016-04-14T09:11:12Z</time>
      </trkpt>
      <trkpt lat="45.97278" lon="1.28177">
        <ele>472.14</ele>
        <time>2016-04-14T09:11:16Z</time>
      </trkpt>
      <trkpt lat="45.97301" lon="1.28171">
        <ele>469.26</ele>
        <time>2016-04-14T09:11:21Z</time>
      </trkpt>
      <trkpt lat="45.97326" lon="1.28167">
        <ele>465.9</ele>
        <time>2016-04-14T09:11:27Z</time>
      </trkpt>
      <trkpt lat="45.97331" lon="1.28165">
        <ele>465.42</ele>
        <time>2016-04-14T09:11:28Z</time>
      </trkpt>
      <trkpt lat="45.97336" lon="1.28165">
        <ele>463.97</ele>
        <time>2016-04-14T09:11:29Z</time>
      </trkpt>
      <trkpt lat="45.97341" lon="1.28165">
        <ele>463.49</ele>
        <time>2016-04-14T09:11:30Z</time>
      </trkpt>
      <trkpt lat="45.97369" lon="1.28164">
        <ele>460.13</ele>
        <time>2016-04-14T09:11:36Z</time>
      </trkpt>
      <trkpt lat="45.97391" lon="1.28165">
        <ele>456.76</ele>
        <time>2016-04-14T09:11:41Z</time>
      </trkpt>
      <trkpt lat="45.9741" lon="1.28159">
        <ele>453.88</ele>
        <time>2016-04-14T09:11:47Z</time>
      </trkpt>
      <trkpt lat="45.97424" lon="1.28148">
        <ele>450.52</ele>
        <time>2016-04-14T09:11:52Z</time>
      </trkpt>
      <trkpt lat="45.97439" lon="1.28139">
        <ele>446.67</ele>
        <time>2016-04-14T09:11:58Z</time>
      </trkpt>
      <trkpt lat="45.97454" lon="1.28134">
        <ele>443.79</ele>
        <time>2016-04-14T09:12:03Z</time>
      </trkpt>
      <trkpt lat="45.97456" lon="1.28133">
        <ele>443.31</ele>
        <time>2016-04-14T09:12:04Z</time>
      </trkpt>
      <trkpt lat="45.97457" lon="1.28133">
        <ele>442.82</ele>
        <time>2016-04-14T09:12:05Z</time>
      </trkpt>
      <trkpt lat="45.9746" lon="1.28131">
        <ele>441.86</ele>
        <time>2016-04-14T09:12:06Z</time>
      </trkpt>
      <trkpt lat="45.97462" lon="1.28128">
        <ele>440.9</ele>
        <time>2016-04-14T09:12:07Z</time>
      </trkpt>
      <trkpt lat="45.97463" lon="1.28125">
        <ele>439.94</ele>
        <time>2016-04-14T09:12:08Z</time>
      </trkpt>
      <trkpt lat="45.97473" lon="1.28113">
        <ele>438.02</ele>
        <time>2016-04-14T09:12:12Z</time>
      </trkpt>
      <trkpt lat="45.97481" lon="1.28106">
        <ele>434.65</ele>
        <time>2016-04-14T09:12:16Z</time>
      </trkpt>
      <trkpt lat="45.97493" lon="1.28091">
        <ele>431.77</ele>
        <time>2016-04-14T09:12:22Z</time>
      </trkpt>
      <trkpt lat="45.97495" lon="1.28089">
        <ele>430.81</ele>
        <time>2016-04-14T09:12:23Z</time>
      </trkpt>
      <trkpt lat="45.97497" lon="1.28088">
        <ele>430.81</ele>
        <time>2016-04-14T09:12:24Z</time>
      </trkpt>
      <trkpt lat="45.97508" lon="1.2809">
        <ele>427.92</ele>
        <time>2016-04-14T09:12:30Z</time>
      </trkpt>
      <trkpt lat="45.97522" lon="1.28088">
        <ele>424.56</ele>
        <time>2016-04-14T09:12:36Z</time>
      </trkpt>
      <trkpt lat="45.97537" lon="1.28087">
        <ele>420.71</ele>
        <time>2016-04-14T09:12:43Z</time>
      </trkpt>
      <trkpt lat="45.9755" lon="1.28096">
        <ele>417.35</ele>
        <time>2016-04-14T09:12:49Z</time>
      </trkpt>
      <trkpt lat="45.97559" lon="1.28112">
        <ele>414.47</ele>
        <time>2016-04-14T09:12:54Z</time>
      </trkpt>
      <trkpt lat="45.97561" lon="1.28117">
        <ele>413.98</ele>
        <time>2016-04-14T09:12:56Z</time>
      </trkpt>
      <trkpt lat="45.97562" lon="1.2812">
        <ele>413.5</ele>
        <time>2016-04-14T09:12:57Z</time>
      </trkpt>
      <trkpt lat="45.97562" lon="1.28122">
        <ele>413.02</ele>
        <time>2016-04-14T09:12:58Z</time>
      </trkpt>
      <trkpt lat="45.97563" lon="1.28128">
        <ele>411.58</ele>
        <time>2016-04-14T09:13:01Z</time>
      </trkpt>
      <trkpt lat="45.97564" lon="1.28134">
        <ele>410.62</ele>
        <time>2016-04-14T09:13:03Z</time>
      </trkpt>
      <trkpt lat="45.97564" lon="1.28136">
        <ele>410.14</ele>
        <time>2016-04-14T09:13:04Z</time>
      </trkpt>
      <trkpt lat="45.97565" lon="1.28138">
        <ele>409.18</ele>
        <time>2016-04-14T09:13:05Z</time>
      </trkpt>
      <trkpt lat="45.97565" lon="1.2814">
        <ele>409.18</ele>
        <time>2016-04-14T09:13:06Z</time>
      </trkpt>
      <trkpt lat="45.97568" lon="1.28154">
        <ele>406.29</ele>
        <time>2016-04-14T09:13:12Z</time>
      </trkpt>
      <trkpt lat="45.9757" lon="1.28158">
        <ele>405.33</ele>
        <time>2016-04-14T09:13:15Z</time>
      </trkpt>
      <trkpt lat="45.97578" lon="1.28171">
        <ele>401.97</ele>
        <time>2016-04-14T09:13:20Z</time>
      </trkpt>
      <trkpt lat="45.9758" lon="1.28176">
        <ele>401.49</ele>
        <time>2016-04-14T09:13:23Z</time>
      </trkpt>
      <trkpt lat="45.9758" lon="1.28179">
        <ele>400.53</ele>
        <time>2016-04-14T09:13:24Z</time>
      </trkpt>
      <trkpt lat="45.97581" lon="1.28184">
        <ele>400.53</ele>
        <time>2016-04-14T09:13:26Z</time>
      </trkpt>
      <trkpt lat="45.97582" lon="1.28201">
        <ele>397.16</ele>
        <time>2016-04-14T09:13:35Z</time>
      </trkpt>
      <trkpt lat="45.97588" lon="1.28225">
        <ele>394.28</ele>
        <time>2016-04-14T09:13:42Z</time>
      </trkpt>
      <trkpt lat="45.9759" lon="1.28227">
        <ele>393.32</ele>
        <time>2016-04-14T09:13:43Z</time>
      </trkpt>
      <trkpt lat="45.97592" lon="1.28227">
        <ele>393.32</ele>
        <time>2016-04-14T09:13:44Z</time>
      </trkpt>
      <trkpt lat="45.97595" lon="1.28227">
        <ele>392.84</ele>
        <time>2016-04-14T09:13:45Z</time>
      </trkpt>
      <trkpt lat="45.97597" lon="1.28227">
        <ele>392.36</ele>
        <time>2016-04-14T09:13:46Z</time>
      </trkpt>
      <trkpt lat="45.976" lon="1.28226">
        <ele>392.36</ele>
        <time>2016-04-14T09:13:47Z</time>
      </trkpt>
      <trkpt lat="45.97602" lon="1.28225">
        <ele>392.36</ele>
        <time>2016-04-14T09:13:48Z</time>
      </trkpt>
      <trkpt lat="45.97603" lon="1.28225">
        <ele>391.87</ele>
        <time>2016-04-14T09:13:49Z</time>
      </trkpt>
      <trkpt lat="45.9761" lon="1.28222">
        <ele>392.36</ele>
        <time>2016-04-14T09:14:00Z</time>
      </trkpt>
      <trkpt lat="45.97613" lon="1.28221">
        <ele>392.36</ele>
        <time>2016-04-14T09:14:16Z</time>
      </trkpt>
      <trkpt lat="45.97615" lon="1.28218">
        <ele>391.87</ele>
        <time>2016-04-14T09:14:30Z</time>
      </trkpt>
      <trkpt lat="45.97618" lon="1.28214">
        <ele>391.87</ele>
        <time>2016-04-14T09:14:42Z</time>
      </trkpt>
      <trkpt lat="45.9762" lon="1.28209">
        <ele>391.87</ele>
        <time>2016-04-14T09:14:56Z</time>
      </trkpt>
      <trkpt lat="45.9762" lon="1.28203">
        <ele>391.87</ele>
        <time>2016-04-14T09:15:08Z</time>
      </trkpt>
      <trkpt lat="45.97621" lon="1.28201">
        <ele>391.87</ele>
        <time>2016-04-14T09:15:14Z</time>
      </trkpt>
      <trkpt lat="45.97627" lon="1.28192">
        <ele>391.87</ele>
        <time>2016-04-14T09:15:26Z</time>
      </trkpt>
      <trkpt lat="45.97632" lon="1.28185">
        <ele>392.36</ele>
        <time>2016-04-14T09:15:37Z</time>
      </trkpt>
      <trkpt lat="45.97645" lon="1.28179">
        <ele>394.76</ele>
        <time>2016-04-14T09:15:52Z</time>
      </trkpt>
      <trkpt lat="45.97649" lon="1.28178">
        <ele>395.72</ele>
        <time>2016-04-14T09:15:58Z</time>
      </trkpt>
      <trkpt lat="45.97658" lon="1.2818">
        <ele>397.16</ele>
        <time>2016-04-14T09:16:09Z</time>
      </trkpt>
      <trkpt lat="45.97661" lon="1.28179">
        <ele>397.64</ele>
        <time>2016-04-14T09:16:25Z</time>
      </trkpt>
      <trkpt lat="45.97662" lon="1.28183">
        <ele>397.64</ele>
        <time>2016-04-14T09:16:40Z</time>
      </trkpt>
      <trkpt lat="45.97664" lon="1.28191">
        <ele>399.08</ele>
        <time>2016-04-14T09:16:53Z</time>
      </trkpt>
      <trkpt lat="45.97665" lon="1.28192">
        <ele>399.08</ele>
        <time>2016-04-14T09:16:54Z</time>
      </trkpt>
      <trkpt lat="45.97689" lon="1.28212">
        <ele>402.45</ele>
        <time>2016-04-14T09:17:13Z</time>
      </trkpt>
      <trkpt lat="45.9771" lon="1.28215">
        <ele>404.37</ele>
        <time>2016-04-14T09:17:28Z</time>
      </trkpt>
      <trkpt lat="45.97723" lon="1.28227">
        <ele>407.74</ele>
        <time>2016-04-14T09:17:41Z</time>
      </trkpt>
      <trkpt lat="45.97739" lon="1.28244">
        <ele>410.62</ele>
        <time>2016-04-14T09:17:53Z</time>
      </trkpt>
      <trkpt lat="45.97745" lon="1.28251">
        <ele>411.1</ele>
        <time>2016-04-14T09:17:58Z</time>
      </trkpt>
      <trkpt lat="45.97769" lon="1.28266">
        <ele>412.54</ele>
        <time>2016-04-14T09:18:14Z</time>
      </trkpt>
      <trkpt lat="45.97789" lon="1.28279">
        <ele>413.02</ele>
        <time>2016-04-14T09:18:26Z</time>
      </trkpt>
      <trkpt lat="45.97802" lon="1.28289">
        <ele>414.47</ele>
        <time>2016-04-14T09:18:33Z</time>
      </trkpt>
      <trkpt lat="45.97832" lon="1.28296">
        <ele>413.02</ele>
        <time>2016-04-14T09:18:43Z</time>
      </trkpt>
      <trkpt lat="45.97876" lon="1.28308">
        <ele>411.58</ele>
        <time>2016-04-14T09:18:56Z</time>
      </trkpt>
      <trkpt lat="45.97901" lon="1.28312">
        <ele>410.62</ele>
        <time>2016-04-14T09:19:06Z</time>
      </trkpt>
      <trkpt lat="45.97929" lon="1.28305">
        <ele>408.22</ele>
        <time>2016-04-14T09:19:18Z</time>
      </trkpt>
      <trkpt lat="45.9795" lon="1.28294">
        <ele>408.22</ele>
        <time>2016-04-14T09:19:30Z</time>
      </trkpt>
      <trkpt lat="45.97957" lon="1.28292">
        <ele>408.22</ele>
        <time>2016-04-14T09:19:34Z</time>
      </trkpt>
      <trkpt lat="45.97959" lon="1.28292">
        <ele>408.22</ele>
        <time>2016-04-14T09:19:35Z</time>
      </trkpt>
      <trkpt lat="45.9796" lon="1.28294">
        <ele>408.22</ele>
        <time>2016-04-14T09:19:36Z</time>
      </trkpt>
      <trkpt lat="45.97961" lon="1.28295">
        <ele>408.22</ele>
        <time>2016-04-14T09:19:37Z</time>
      </trkpt>
      <trkpt lat="45.97962" lon="1.28297">
        <ele>408.22</ele>
        <time>2016-04-14T09:19:38Z</time>
      </trkpt>
      <trkpt lat="45.97991" lon="1.28329">
        <ele>408.22</ele>
        <time>2016-04-14T09:19:51Z</time>
      </trkpt>
      <trkpt lat="45.98007" lon="1.28344">
        <ele>406.77</ele>
        <time>2016-04-14T09:19:56Z</time>
      </trkpt>
      <trkpt lat="45.9801" lon="1.2835">
        <ele>405.33</ele>
        <time>2016-04-14T09:19:57Z</time>
      </trkpt>
      <trkpt lat="45.98013" lon="1.28355">
        <ele>404.85</ele>
        <time>2016-04-14T09:19:58Z</time>
      </trkpt>
      <trkpt lat="45.98024" lon="1.28382">
        <ele>401.97</ele>
        <time>2016-04-14T09:20:02Z</time>
      </trkpt>
      <trkpt lat="45.98034" lon="1.28404">
        <ele>400.53</ele>
        <time>2016-04-14T09:20:05Z</time>
      </trkpt>
      <trkpt lat="45.98036" lon="1.28412">
        <ele>400.53</ele>
        <time>2016-04-14T09:20:06Z</time>
      </trkpt>
      <trkpt lat="45.98038" lon="1.2842">
        <ele>400.53</ele>
        <time>2016-04-14T09:20:07Z</time>
      </trkpt>
      <trkpt lat="45.98038" lon="1.28446">
        <ele>399.08</ele>
        <time>2016-04-14T09:20:10Z</time>
      </trkpt>
      <trkpt lat="45.98057" lon="1.28506">
        <ele>395.24</ele>
        <time>2016-04-14T09:20:17Z</time>
      </trkpt>
      <trkpt lat="45.98067" lon="1.2853">
        <ele>395.72</ele>
        <time>2016-04-14T09:20:21Z</time>
      </trkpt>
      <trkpt lat="45.98082" lon="1.28576">
        <ele>392.84</ele>
        <time>2016-04-14T09:20:28Z</time>
      </trkpt>
      <trkpt lat="45.9809" lon="1.28586">
        <ele>392.36</ele>
        <time>2016-04-14T09:20:30Z</time>
      </trkpt>
      <trkpt lat="45.98125" lon="1.286">
        <ele>390.43</ele>
        <time>2016-04-14T09:20:36Z</time>
      </trkpt>
      <trkpt lat="45.98143" lon="1.28623">
        <ele>389.95</ele>
        <time>2016-04-14T09:20:42Z</time>
      </trkpt>
      <trkpt lat="45.98149" lon="1.28669">
        <ele>389.95</ele>
        <time>2016-04-14T09:20:53Z</time>
      </trkpt>
      <trkpt lat="45.98151" lon="1.28719">
        <ele>387.55</ele>
        <time>2016-04-14T09:21:04Z</time>
      </trkpt>
      <trkpt lat="45.98157" lon="1.28756">
        <ele>387.07</ele>
        <time>2016-04-14T09:21:16Z</time>
      </trkpt>
      <trkpt lat="45.98159" lon="1.28761">
        <ele>388.51</ele>
        <time>2016-04-14T09:21:20Z</time>
      </trkpt>
      <trkpt lat="45.98159" lon="1.28783">
        <ele>391.39</ele>
        <time>2016-04-14T09:21:31Z</time>
      </trkpt>
      <trkpt lat="45.98146" lon="1.28798">
        <ele>394.76</ele>
        <time>2016-04-14T09:21:44Z</time>
      </trkpt>
      <trkpt lat="45.98125" lon="1.28823">
        <ele>395.72</ele>
        <time>2016-04-14T09:21:59Z</time>
      </trkpt>
      <trkpt lat="45.98124" lon="1.28825">
        <ele>396.2</ele>
        <time>2016-04-14T09:22:00Z</time>
      </trkpt>
      <trkpt lat="45.98132" lon="1.28847">
        <ele>398.6</ele>
        <time>2016-04-14T09:22:14Z</time>
      </trkpt>
      <trkpt lat="45.98156" lon="1.2885">
        <ele>401.01</ele>
        <time>2016-04-14T09:22:32Z</time>
      </trkpt>
      <trkpt lat="45.9816" lon="1.28853">
        <ele>401.49</ele>
        <time>2016-04-14T09:22:36Z</time>
      </trkpt>
      <trkpt lat="45.98162" lon="1.28865">
        <ele>401.49</ele>
        <time>2016-04-14T09:22:42Z</time>
      </trkpt>
      <trkpt lat="45.98163" lon="1.28917">
        <ele>401.97</ele>
        <time>2016-04-14T09:22:58Z</time>
      </trkpt>
      <trkpt lat="45.98161" lon="1.28974">
        <ele>402.45</ele>
        <time>2016-04-14T09:23:15Z</time>
      </trkpt>
      <trkpt lat="45.98127" lon="1.28997">
        <ele>404.37</ele>
        <time>2016-04-14T09:23:31Z</time>
      </trkpt>
      <trkpt lat="45.98124" lon="1.29004">
        <ele>404.37</ele>
        <time>2016-04-14T09:23:34Z</time>
      </trkpt>
      <trkpt lat="45.98125" lon="1.29007">
        <ele>404.85</ele>
        <time>2016-04-14T09:23:35Z</time>
      </trkpt>
      <trkpt lat="45.98125" lon="1.29009">
        <ele>405.33</ele>
        <time>2016-04-14T09:23:36Z</time>
      </trkpt>
      <trkpt lat="45.98125" lon="1.29012">
        <ele>405.33</ele>
        <time>2016-04-14T09:23:37Z</time>
      </trkpt>
      <trkpt lat="45.98125" lon="1.29014">
        <ele>405.81</ele>
        <time>2016-04-14T09:23:38Z</time>
      </trkpt>
      <trkpt lat="45.98139" lon="1.29035">
        <ele>408.22</ele>
        <time>2016-04-14T09:23:51Z</time>
      </trkpt>
      <trkpt lat="45.98144" lon="1.2904">
        <ele>408.7</ele>
        <time>2016-04-14T09:23:55Z</time>
      </trkpt>
      <trkpt lat="45.98145" lon="1.29042">
        <ele>408.7</ele>
        <time>2016-04-14T09:23:56Z</time>
      </trkpt>
      <trkpt lat="45.98146" lon="1.29043">
        <ele>409.18</ele>
        <time>2016-04-14T09:23:57Z</time>
      </trkpt>
      <trkpt lat="45.98154" lon="1.29075">
        <ele>411.58</ele>
        <time>2016-04-14T09:24:15Z</time>
      </trkpt>
      <trkpt lat="45.98155" lon="1.29112">
        <ele>413.5</ele>
        <time>2016-04-14T09:24:33Z</time>
      </trkpt>
      <trkpt lat="45.98151" lon="1.2916">
        <ele>414.95</ele>
        <time>2016-04-14T09:24:50Z</time>
      </trkpt>
      <trkpt lat="45.98148" lon="1.2921">
        <ele>413.98</ele>
        <time>2016-04-14T09:25:03Z</time>
      </trkpt>
      <trkpt lat="45.98147" lon="1.29247">
        <ele>414.95</ele>
        <time>2016-04-14T09:25:14Z</time>
      </trkpt>
      <trkpt lat="45.98158" lon="1.29269">
        <ele>417.83</ele>
        <time>2016-04-14T09:25:28Z</time>
      </trkpt>
      <trkpt lat="45.98177" lon="1.29293">
        <ele>420.23</ele>
        <time>2016-04-14T09:25:45Z</time>
      </trkpt>
      <trkpt lat="45.98188" lon="1.29319">
        <ele>420.71</ele>
        <time>2016-04-14T09:25:58Z</time>
      </trkpt>
      <trkpt lat="45.98214" lon="1.29316">
        <ele>421.19</ele>
        <time>2016-04-14T09:26:11Z</time>
      </trkpt>
      <trkpt lat="45.98233" lon="1.29328">
        <ele>423.12</ele>
        <time>2016-04-14T09:26:24Z</time>
      </trkpt>
      <trkpt lat="45.98235" lon="1.29331">
        <ele>423.12</ele>
        <time>2016-04-14T09:26:26Z</time>
      </trkpt>
      <trkpt lat="45.98238" lon="1.29339">
        <ele>423.6</ele>
        <time>2016-04-14T09:26:30Z</time>
      </trkpt>
      <trkpt lat="45.98242" lon="1.29348">
        <ele>423.6</ele>
        <time>2016-04-14T09:26:34Z</time>
      </trkpt>
      <trkpt lat="45.98245" lon="1.29359">
        <ele>424.08</ele>
        <time>2016-04-14T09:26:41Z</time>
      </trkpt>
      <trkpt lat="45.98264" lon="1.29375">
        <ele>425.52</ele>
        <time>2016-04-14T09:26:53Z</time>
      </trkpt>
      <trkpt lat="45.98285" lon="1.29393">
        <ele>427.44</ele>
        <time>2016-04-14T09:27:07Z</time>
      </trkpt>
      <trkpt lat="45.98303" lon="1.29405">
        <ele>429.85</ele>
        <time>2016-04-14T09:27:21Z</time>
      </trkpt>
      <trkpt lat="45.98319" lon="1.29416">
        <ele>432.25</ele>
        <time>2016-04-14T09:27:34Z</time>
      </trkpt>
      <trkpt lat="45.98325" lon="1.29418">
        <ele>433.21</ele>
        <time>2016-04-14T09:27:40Z</time>
      </trkpt>
      <trkpt lat="45.98342" lon="1.29425">
        <ele>435.61</ele>
        <time>2016-04-14T09:27:55Z</time>
      </trkpt>
      <trkpt lat="45.98367" lon="1.29435">
        <ele>438.02</ele>
        <time>2016-04-14T09:28:14Z</time>
      </trkpt>
      <trkpt lat="45.98373" lon="1.2944">
        <ele>438.98</ele>
        <time>2016-04-14T09:28:26Z</time>
      </trkpt>
      <trkpt lat="45.98382" lon="1.29444">
        <ele>440.42</ele>
        <time>2016-04-14T09:28:40Z</time>
      </trkpt>
      <trkpt lat="45.98399" lon="1.29449">
        <ele>442.34</ele>
        <time>2016-04-14T09:28:54Z</time>
      </trkpt>
      <trkpt lat="45.98417" lon="1.29457">
        <ele>445.23</ele>
        <time>2016-04-14T09:29:08Z</time>
      </trkpt>
      <trkpt lat="45.98434" lon="1.29472">
        <ele>448.11</ele>
        <time>2016-04-14T09:29:25Z</time>
      </trkpt>
      <trkpt lat="45.98455" lon="1.29486">
        <ele>451</ele>
        <time>2016-04-14T09:29:43Z</time>
      </trkpt>
      <trkpt lat="45.98472" lon="1.29497">
        <ele>453.4</ele>
        <time>2016-04-14T09:29:59Z</time>
      </trkpt>
      <trkpt lat="45.98488" lon="1.29507">
        <ele>456.76</ele>
        <time>2016-04-14T09:30:15Z</time>
      </trkpt>
      <trkpt lat="45.98504" lon="1.29514">
        <ele>459.65</ele>
        <time>2016-04-14T09:30:32Z</time>
      </trkpt>
      <trkpt lat="45.98509" lon="1.29515">
        <ele>460.13</ele>
        <time>2016-04-14T09:30:37Z</time>
      </trkpt>
      <trkpt lat="45.98512" lon="1.29514">
        <ele>460.61</ele>
        <time>2016-04-14T09:30:39Z</time>
      </trkpt>
      <trkpt lat="45.98513" lon="1.29513">
        <ele>461.09</ele>
        <time>2016-04-14T09:30:41Z</time>
      </trkpt>
      <trkpt lat="45.98516" lon="1.29506">
        <ele>461.09</ele>
        <time>2016-04-14T09:30:45Z</time>
      </trkpt>
      <trkpt lat="45.98538" lon="1.29482">
        <ele>462.53</ele>
        <time>2016-04-14T09:31:04Z</time>
      </trkpt>
      <trkpt lat="45.98549" lon="1.29476">
        <ele>463.01</ele>
        <time>2016-04-14T09:31:11Z</time>
      </trkpt>
      <trkpt lat="45.98561" lon="1.29436">
        <ele>465.9</ele>
        <time>2016-04-14T09:31:30Z</time>
      </trkpt>
      <trkpt lat="45.98572" lon="1.2941">
        <ele>467.34</ele>
        <time>2016-04-14T09:31:45Z</time>
      </trkpt>
      <trkpt lat="45.98589" lon="1.29389">
        <ele>468.78</ele>
        <time>2016-04-14T09:31:58Z</time>
      </trkpt>
      <trkpt lat="45.98607" lon="1.29377">
        <ele>471.18</ele>
        <time>2016-04-14T09:32:09Z</time>
      </trkpt>
      <trkpt lat="45.98638" lon="1.29365">
        <ele>472.14</ele>
        <time>2016-04-14T09:32:24Z</time>
      </trkpt>
      <trkpt lat="45.98655" lon="1.29361">
        <ele>470.7</ele>
        <time>2016-04-14T09:32:29Z</time>
      </trkpt>
      <trkpt lat="45.98701" lon="1.29353">
        <ele>467.34</ele>
        <time>2016-04-14T09:32:39Z</time>
      </trkpt>
      <trkpt lat="45.98713" lon="1.29349">
        <ele>465.9</ele>
        <time>2016-04-14T09:32:41Z</time>
      </trkpt>
      <trkpt lat="45.98719" lon="1.29346">
        <ele>465.42</ele>
        <time>2016-04-14T09:32:42Z</time>
      </trkpt>
      <trkpt lat="45.98725" lon="1.29342">
        <ele>464.45</ele>
        <time>2016-04-14T09:32:43Z</time>
      </trkpt>
      <trkpt lat="45.98752" lon="1.29326">
        <ele>461.09</ele>
        <time>2016-04-14T09:32:47Z</time>
      </trkpt>
      <trkpt lat="45.98787" lon="1.29298">
        <ele>458.21</ele>
        <time>2016-04-14T09:32:52Z</time>
      </trkpt>
      <trkpt lat="45.98818" lon="1.29258">
        <ele>457.24</ele>
        <time>2016-04-14T09:32:58Z</time>
      </trkpt>
      <trkpt lat="45.98826" lon="1.2925">
        <ele>457.24</ele>
        <time>2016-04-14T09:33:00Z</time>
      </trkpt>
      <trkpt lat="45.9883" lon="1.29249">
        <ele>457.24</ele>
        <time>2016-04-14T09:33:01Z</time>
      </trkpt>
      <trkpt lat="45.9885" lon="1.29243">
        <ele>458.69</ele>
        <time>2016-04-14T09:33:06Z</time>
      </trkpt>
      <trkpt lat="45.98881" lon="1.29239">
        <ele>459.65</ele>
        <time>2016-04-14T09:33:13Z</time>
      </trkpt>
      <trkpt lat="45.98946" lon="1.29224">
        <ele>461.09</ele>
        <time>2016-04-14T09:33:30Z</time>
      </trkpt>
      <trkpt lat="45.98997" lon="1.29225">
        <ele>461.57</ele>
        <time>2016-04-14T09:33:45Z</time>
      </trkpt>
      <trkpt lat="45.99021" lon="1.29225">
        <ele>461.57</ele>
        <time>2016-04-14T09:33:51Z</time>
      </trkpt>
      <trkpt lat="45.99025" lon="1.29226">
        <ele>460.61</ele>
        <time>2016-04-14T09:33:52Z</time>
      </trkpt>
      <trkpt lat="45.99067" lon="1.29231">
        <ele>459.65</ele>
        <time>2016-04-14T09:34:03Z</time>
      </trkpt>
      <trkpt lat="45.9912" lon="1.2924">
        <ele>458.21</ele>
        <time>2016-04-14T09:34:15Z</time>
      </trkpt>
      <trkpt lat="45.99175" lon="1.29252">
        <ele>454.36</ele>
        <time>2016-04-14T09:34:27Z</time>
      </trkpt>
      <trkpt lat="45.99179" lon="1.29253">
        <ele>454.36</ele>
        <time>2016-04-14T09:34:28Z</time>
      </trkpt>
      <trkpt lat="45.99188" lon="1.29253">
        <ele>452.92</ele>
        <time>2016-04-14T09:34:30Z</time>
      </trkpt>
      <trkpt lat="45.99193" lon="1.29251">
        <ele>452.92</ele>
        <time>2016-04-14T09:34:31Z</time>
      </trkpt>
      <trkpt lat="45.99197" lon="1.29249">
        <ele>452.92</ele>
        <time>2016-04-14T09:34:32Z</time>
      </trkpt>
      <trkpt lat="45.99214" lon="1.29234">
        <ele>449.55</ele>
        <time>2016-04-14T09:34:36Z</time>
      </trkpt>
      <trkpt lat="45.9922" lon="1.29232">
        <ele>449.55</ele>
        <time>2016-04-14T09:34:37Z</time>
      </trkpt>
      <trkpt lat="45.99226" lon="1.29232">
        <ele>449.55</ele>
        <time>2016-04-14T09:34:38Z</time>
      </trkpt>
      <trkpt lat="45.99265" lon="1.29237">
        <ele>448.59</ele>
        <time>2016-04-14T09:34:46Z</time>
      </trkpt>
      <trkpt lat="45.99321" lon="1.2924">
        <ele>448.59</ele>
        <time>2016-04-14T09:34:58Z</time>
      </trkpt>
      <trkpt lat="45.99326" lon="1.29239">
        <ele>448.59</ele>
        <time>2016-04-14T09:34:59Z</time>
      </trkpt>
      <trkpt lat="45.9933" lon="1.29237">
        <ele>447.15</ele>
        <time>2016-04-14T09:35:00Z</time>
      </trkpt>
      <trkpt lat="45.99335" lon="1.29235">
        <ele>447.15</ele>
        <time>2016-04-14T09:35:01Z</time>
      </trkpt>
      <trkpt lat="45.99339" lon="1.29232">
        <ele>446.67</ele>
        <time>2016-04-14T09:35:02Z</time>
      </trkpt>
      <trkpt lat="45.99355" lon="1.29229">
        <ele>444.27</ele>
        <time>2016-04-14T09:35:06Z</time>
      </trkpt>
      <trkpt lat="45.99379" lon="1.29232">
        <ele>440.9</ele>
        <time>2016-04-14T09:35:11Z</time>
      </trkpt>
      <trkpt lat="45.99421" lon="1.29249">
        <ele>437.06</ele>
        <time>2016-04-14T09:35:21Z</time>
      </trkpt>
      <trkpt lat="45.99442" lon="1.29263">
        <ele>434.65</ele>
        <time>2016-04-14T09:35:27Z</time>
      </trkpt>
      <trkpt lat="45.99459" lon="1.29261">
        <ele>434.17</ele>
        <time>2016-04-14T09:35:36Z</time>
      </trkpt>
      <trkpt lat="45.99468" lon="1.29258">
        <ele>433.69</ele>
        <time>2016-04-14T09:35:41Z</time>
      </trkpt>
      <trkpt lat="45.99493" lon="1.29258">
        <ele>433.21</ele>
        <time>2016-04-14T09:35:52Z</time>
      </trkpt>
      <trkpt lat="45.99494" lon="1.29254">
        <ele>433.21</ele>
        <time>2016-04-14T09:35:53Z</time>
      </trkpt>
      <trkpt lat="45.99494" lon="1.29251">
        <ele>433.21</ele>
        <time>2016-04-14T09:35:54Z</time>
      </trkpt>
      <trkpt lat="45.99495" lon="1.29248">
        <ele>433.21</ele>
        <time>2016-04-14T09:35:55Z</time>
      </trkpt>
      <trkpt lat="45.99495" lon="1.29244">
        <ele>433.21</ele>
        <time>2016-04-14T09:35:56Z</time>
      </trkpt>
      <trkpt lat="45.99495" lon="1.29241">
        <ele>433.21</ele>
        <time>2016-04-14T09:35:57Z</time>
      </trkpt>
      <trkpt lat="45.995" lon="1.29196">
        <ele>434.17</ele>
        <time>2016-04-14T09:36:09Z</time>
      </trkpt>
      <trkpt lat="45.99502" lon="1.29191">
        <ele>432.73</ele>
        <time>2016-04-14T09:36:10Z</time>
      </trkpt>
      <trkpt lat="45.99504" lon="1.29184">
        <ele>432.73</ele>
        <time>2016-04-14T09:36:11Z</time>
      </trkpt>
      <trkpt lat="45.99507" lon="1.29173">
        <ele>432.73</ele>
        <time>2016-04-14T09:36:13Z</time>
      </trkpt>
      <trkpt lat="45.9951" lon="1.29168">
        <ele>432.73</ele>
        <time>2016-04-14T09:36:14Z</time>
      </trkpt>
      <trkpt lat="45.99513" lon="1.29165">
        <ele>432.73</ele>
        <time>2016-04-14T09:36:15Z</time>
      </trkpt>
      <trkpt lat="45.99553" lon="1.29129">
        <ele>430.33</ele>
        <time>2016-04-14T09:36:28Z</time>
      </trkpt>
      <trkpt lat="45.99572" lon="1.29105">
        <ele>426</ele>
        <time>2016-04-14T09:36:37Z</time>
      </trkpt>
      <trkpt lat="45.99594" lon="1.29076">
        <ele>422.64</ele>
        <time>2016-04-14T09:36:45Z</time>
      </trkpt>
      <trkpt lat="45.99624" lon="1.29066">
        <ele>419.75</ele>
        <time>2016-04-14T09:36:54Z</time>
      </trkpt>
      <trkpt lat="45.99653" lon="1.29072">
        <ele>416.87</ele>
        <time>2016-04-14T09:37:03Z</time>
      </trkpt>
      <trkpt lat="45.99661" lon="1.29059">
        <ele>414.95</ele>
        <time>2016-04-14T09:37:09Z</time>
      </trkpt>
      <trkpt lat="45.99657" lon="1.29048">
        <ele>413.5</ele>
        <time>2016-04-14T09:37:12Z</time>
      </trkpt>
      <trkpt lat="45.99652" lon="1.29021">
        <ele>411.58</ele>
        <time>2016-04-14T09:37:17Z</time>
      </trkpt>
      <trkpt lat="45.9965" lon="1.29009">
        <ele>410.62</ele>
        <time>2016-04-14T09:37:19Z</time>
      </trkpt>
      <trkpt lat="45.99645" lon="1.28988">
        <ele>408.7</ele>
        <time>2016-04-14T09:37:23Z</time>
      </trkpt>
      <trkpt lat="45.99638" lon="1.28969">
        <ele>406.77</ele>
        <time>2016-04-14T09:37:26Z</time>
      </trkpt>
      <trkpt lat="45.99629" lon="1.2895">
        <ele>405.81</ele>
        <time>2016-04-14T09:37:29Z</time>
      </trkpt>
      <trkpt lat="45.99626" lon="1.28944">
        <ele>404.37</ele>
        <time>2016-04-14T09:37:30Z</time>
      </trkpt>
      <trkpt lat="45.99618" lon="1.28934">
        <ele>403.89</ele>
        <time>2016-04-14T09:37:32Z</time>
      </trkpt>
      <trkpt lat="45.99608" lon="1.28912">
        <ele>401.49</ele>
        <time>2016-04-14T09:37:36Z</time>
      </trkpt>
      <trkpt lat="45.99591" lon="1.28888">
        <ele>400.05</ele>
        <time>2016-04-14T09:37:42Z</time>
      </trkpt>
      <trkpt lat="45.99578" lon="1.28882">
        <ele>399.08</ele>
        <time>2016-04-14T09:37:46Z</time>
      </trkpt>
      <trkpt lat="45.99579" lon="1.28866">
        <ele>397.64</ele>
        <time>2016-04-14T09:37:51Z</time>
      </trkpt>
      <trkpt lat="45.99582" lon="1.28866">
        <ele>398.12</ele>
        <time>2016-04-14T09:37:52Z</time>
      </trkpt>
      <trkpt lat="45.99585" lon="1.28866">
        <ele>397.64</ele>
        <time>2016-04-14T09:37:53Z</time>
      </trkpt>
      <trkpt lat="45.99588" lon="1.28867">
        <ele>397.64</ele>
        <time>2016-04-14T09:37:54Z</time>
      </trkpt>
      <trkpt lat="45.99591" lon="1.28868">
        <ele>397.64</ele>
        <time>2016-04-14T09:37:55Z</time>
      </trkpt>
      <trkpt lat="45.99595" lon="1.2887">
        <ele>397.16</ele>
        <time>2016-04-14T09:37:56Z</time>
      </trkpt>
      <trkpt lat="45.99599" lon="1.28871">
        <ele>397.16</ele>
        <time>2016-04-14T09:37:57Z</time>
      </trkpt>
      <trkpt lat="45.99612" lon="1.28876">
        <ele>396.68</ele>
        <time>2016-04-14T09:38:00Z</time>
      </trkpt>
      <trkpt lat="45.99616" lon="1.28877">
        <ele>396.2</ele>
        <time>2016-04-14T09:38:01Z</time>
      </trkpt>
      <trkpt lat="45.99627" lon="1.28876">
        <ele>396.2</ele>
        <time>2016-04-14T09:38:05Z</time>
      </trkpt>
      <trkpt lat="45.99628" lon="1.28873">
        <ele>396.2</ele>
        <time>2016-04-14T09:38:06Z</time>
      </trkpt>
      <trkpt lat="45.99628" lon="1.2887">
        <ele>395.72</ele>
        <time>2016-04-14T09:38:07Z</time>
      </trkpt>
      <trkpt lat="45.99628" lon="1.28867">
        <ele>395.72</ele>
        <time>2016-04-14T09:38:08Z</time>
      </trkpt>
      <trkpt lat="45.99628" lon="1.28863">
        <ele>395.24</ele>
        <time>2016-04-14T09:38:09Z</time>
      </trkpt>
      <trkpt lat="45.9963" lon="1.28859">
        <ele>395.24</ele>
        <time>2016-04-14T09:38:10Z</time>
      </trkpt>
      <trkpt lat="45.99632" lon="1.28854">
        <ele>394.76</ele>
        <time>2016-04-14T09:38:11Z</time>
      </trkpt>
      <trkpt lat="45.99639" lon="1.28842">
        <ele>394.28</ele>
        <time>2016-04-14T09:38:14Z</time>
      </trkpt>
      <trkpt lat="45.99642" lon="1.28839">
        <ele>393.8</ele>
        <time>2016-04-14T09:38:15Z</time>
      </trkpt>
      <trkpt lat="45.99658" lon="1.28827">
        <ele>391.87</ele>
        <time>2016-04-14T09:38:19Z</time>
      </trkpt>
      <trkpt lat="45.99669" lon="1.28816">
        <ele>389.95</ele>
        <time>2016-04-14T09:38:22Z</time>
      </trkpt>
      <trkpt lat="45.99672" lon="1.28813">
        <ele>389.47</ele>
        <time>2016-04-14T09:38:23Z</time>
      </trkpt>
      <trkpt lat="45.99685" lon="1.28801">
        <ele>386.59</ele>
        <time>2016-04-14T09:38:27Z</time>
      </trkpt>
      <trkpt lat="45.99686" lon="1.28798">
        <ele>386.59</ele>
        <time>2016-04-14T09:38:28Z</time>
      </trkpt>
      <trkpt lat="45.99686" lon="1.28795">
        <ele>386.11</ele>
        <time>2016-04-14T09:38:29Z</time>
      </trkpt>
      <trkpt lat="45.99685" lon="1.28792">
        <ele>385.63</ele>
        <time>2016-04-14T09:38:30Z</time>
      </trkpt>
      <trkpt lat="45.99683" lon="1.28788">
        <ele>385.15</ele>
        <time>2016-04-14T09:38:31Z</time>
      </trkpt>
      <trkpt lat="45.99681" lon="1.28784">
        <ele>384.66</ele>
        <time>2016-04-14T09:38:32Z</time>
      </trkpt>
      <trkpt lat="45.99678" lon="1.28782">
        <ele>384.18</ele>
        <time>2016-04-14T09:38:33Z</time>
      </trkpt>
      <trkpt lat="45.99675" lon="1.2878">
        <ele>383.7</ele>
        <time>2016-04-14T09:38:34Z</time>
      </trkpt>
      <trkpt lat="45.99671" lon="1.28776">
        <ele>383.22</ele>
        <time>2016-04-14T09:38:35Z</time>
      </trkpt>
      <trkpt lat="45.99668" lon="1.28771">
        <ele>382.26</ele>
        <time>2016-04-14T09:38:36Z</time>
      </trkpt>
      <trkpt lat="45.99665" lon="1.28766">
        <ele>381.78</ele>
        <time>2016-04-14T09:38:37Z</time>
      </trkpt>
      <trkpt lat="45.99657" lon="1.28749">
        <ele>379.86</ele>
        <time>2016-04-14T09:38:40Z</time>
      </trkpt>
      <trkpt lat="45.99656" lon="1.28743">
        <ele>379.38</ele>
        <time>2016-04-14T09:38:41Z</time>
      </trkpt>
      <trkpt lat="45.99655" lon="1.28736">
        <ele>379.38</ele>
        <time>2016-04-14T09:38:42Z</time>
      </trkpt>
      <trkpt lat="45.99655" lon="1.28729">
        <ele>378.9</ele>
        <time>2016-04-14T09:38:43Z</time>
      </trkpt>
      <trkpt lat="45.99657" lon="1.28722">
        <ele>378.9</ele>
        <time>2016-04-14T09:38:44Z</time>
      </trkpt>
      <trkpt lat="45.99659" lon="1.28716">
        <ele>378.42</ele>
        <time>2016-04-14T09:38:45Z</time>
      </trkpt>
      <trkpt lat="45.99662" lon="1.2871">
        <ele>377.94</ele>
        <time>2016-04-14T09:38:46Z</time>
      </trkpt>
      <trkpt lat="45.99666" lon="1.28705">
        <ele>377.94</ele>
        <time>2016-04-14T09:38:47Z</time>
      </trkpt>
      <trkpt lat="45.99669" lon="1.28701">
        <ele>377.94</ele>
        <time>2016-04-14T09:38:48Z</time>
      </trkpt>
      <trkpt lat="45.99673" lon="1.28697">
        <ele>377.45</ele>
        <time>2016-04-14T09:38:49Z</time>
      </trkpt>
      <trkpt lat="45.99677" lon="1.28694">
        <ele>376.97</ele>
        <time>2016-04-14T09:38:50Z</time>
      </trkpt>
      <trkpt lat="45.9968" lon="1.2869">
        <ele>376.97</ele>
        <time>2016-04-14T09:38:51Z</time>
      </trkpt>
      <trkpt lat="45.99683" lon="1.28685">
        <ele>376.01</ele>
        <time>2016-04-14T09:38:52Z</time>
      </trkpt>
      <trkpt lat="45.99685" lon="1.2868">
        <ele>376.01</ele>
        <time>2016-04-14T09:38:53Z</time>
      </trkpt>
      <trkpt lat="45.99686" lon="1.28675">
        <ele>376.01</ele>
        <time>2016-04-14T09:38:54Z</time>
      </trkpt>
      <trkpt lat="45.99687" lon="1.2867">
        <ele>376.01</ele>
        <time>2016-04-14T09:38:55Z</time>
      </trkpt>
      <trkpt lat="45.99689" lon="1.28666">
        <ele>376.01</ele>
        <time>2016-04-14T09:38:56Z</time>
      </trkpt>
      <trkpt lat="45.9969" lon="1.28663">
        <ele>376.01</ele>
        <time>2016-04-14T09:38:57Z</time>
      </trkpt>
      <trkpt lat="45.99692" lon="1.28659">
        <ele>376.01</ele>
        <time>2016-04-14T09:38:58Z</time>
      </trkpt>
      <trkpt lat="45.99727" lon="1.28591">
        <ele>373.61</ele>
        <time>2016-04-14T09:39:13Z</time>
      </trkpt>
      <trkpt lat="45.99758" lon="1.28502">
        <ele>370.73</ele>
        <time>2016-04-14T09:39:28Z</time>
      </trkpt>
      <trkpt lat="45.9978" lon="1.28446">
        <ele>367.84</ele>
        <time>2016-04-14T09:39:36Z</time>
      </trkpt>
      <trkpt lat="45.99784" lon="1.2844">
        <ele>367.84</ele>
        <time>2016-04-14T09:39:37Z</time>
      </trkpt>
      <trkpt lat="45.99793" lon="1.28428">
        <ele>367.36</ele>
        <time>2016-04-14T09:39:39Z</time>
      </trkpt>
      <trkpt lat="45.99801" lon="1.28413">
        <ele>366.4</ele>
        <time>2016-04-14T09:39:41Z</time>
      </trkpt>
      <trkpt lat="45.99804" lon="1.28405">
        <ele>366.4</ele>
        <time>2016-04-14T09:39:42Z</time>
      </trkpt>
      <trkpt lat="45.99806" lon="1.28397">
        <ele>366.4</ele>
        <time>2016-04-14T09:39:43Z</time>
      </trkpt>
      <trkpt lat="45.99811" lon="1.28369">
        <ele>364.48</ele>
        <time>2016-04-14T09:39:46Z</time>
      </trkpt>
      <trkpt lat="45.99837" lon="1.28267">
        <ele>362.07</ele>
        <time>2016-04-14T09:39:59Z</time>
      </trkpt>
      <trkpt lat="45.9984" lon="1.28261">
        <ele>362.07</ele>
        <time>2016-04-14T09:40:00Z</time>
      </trkpt>
      <trkpt lat="45.99843" lon="1.28256">
        <ele>362.07</ele>
        <time>2016-04-14T09:40:01Z</time>
      </trkpt>
      <trkpt lat="45.99846" lon="1.28252">
        <ele>362.07</ele>
        <time>2016-04-14T09:40:02Z</time>
      </trkpt>
      <trkpt lat="45.9985" lon="1.28248">
        <ele>362.07</ele>
        <time>2016-04-14T09:40:03Z</time>
      </trkpt>
      <trkpt lat="45.99886" lon="1.28204">
        <ele>363.04</ele>
        <time>2016-04-14T09:40:16Z</time>
      </trkpt>
      <trkpt lat="45.99901" lon="1.28165">
        <ele>360.15</ele>
        <time>2016-04-14T09:40:24Z</time>
      </trkpt>
      <trkpt lat="45.99915" lon="1.28127">
        <ele>357.27</ele>
        <time>2016-04-14T09:40:30Z</time>
      </trkpt>
      <trkpt lat="45.99918" lon="1.28125">
        <ele>357.27</ele>
        <time>2016-04-14T09:40:31Z</time>
      </trkpt>
      <trkpt lat="45.99921" lon="1.28124">
        <ele>356.79</ele>
        <time>2016-04-14T09:40:32Z</time>
      </trkpt>
      <trkpt lat="45.99925" lon="1.28124">
        <ele>356.31</ele>
        <time>2016-04-14T09:40:33Z</time>
      </trkpt>
      <trkpt lat="45.99929" lon="1.28124">
        <ele>355.83</ele>
        <time>2016-04-14T09:40:34Z</time>
      </trkpt>
      <trkpt lat="45.99933" lon="1.28124">
        <ele>355.34</ele>
        <time>2016-04-14T09:40:35Z</time>
      </trkpt>
      <trkpt lat="45.99939" lon="1.28125">
        <ele>354.86</ele>
        <time>2016-04-14T09:40:36Z</time>
      </trkpt>
      <trkpt lat="45.99964" lon="1.28128">
        <ele>351.98</ele>
        <time>2016-04-14T09:40:40Z</time>
      </trkpt>
      <trkpt lat="46.00017" lon="1.28135">
        <ele>351.02</ele>
        <time>2016-04-14T09:40:48Z</time>
      </trkpt>
      <trkpt lat="46.00022" lon="1.28137">
        <ele>351.02</ele>
        <time>2016-04-14T09:40:49Z</time>
      </trkpt>
      <trkpt lat="46.00027" lon="1.28139">
        <ele>351.02</ele>
        <time>2016-04-14T09:40:50Z</time>
      </trkpt>
      <trkpt lat="46.00044" lon="1.28139">
        <ele>351.02</ele>
        <time>2016-04-14T09:40:55Z</time>
      </trkpt>
      <trkpt lat="46.00045" lon="1.28137">
        <ele>351.02</ele>
        <time>2016-04-14T09:40:56Z</time>
      </trkpt>
      <trkpt lat="46.00046" lon="1.28135">
        <ele>351.02</ele>
        <time>2016-04-14T09:40:57Z</time>
      </trkpt>
      <trkpt lat="46.00047" lon="1.28131">
        <ele>351.02</ele>
        <time>2016-04-14T09:40:58Z</time>
      </trkpt>
      <trkpt lat="46.00047" lon="1.28127">
        <ele>351.02</ele>
        <time>2016-04-14T09:40:59Z</time>
      </trkpt>
      <trkpt lat="46.00047" lon="1.28123">
        <ele>351.02</ele>
        <time>2016-04-14T09:41:00Z</time>
      </trkpt>
      <trkpt lat="46.00047" lon="1.28119">
        <ele>351.02</ele>
        <time>2016-04-14T09:41:01Z</time>
      </trkpt>
      <trkpt lat="46.00047" lon="1.28115">
        <ele>351.02</ele>
        <time>2016-04-14T09:41:02Z</time>
      </trkpt>
      <trkpt lat="46.00047" lon="1.28111">
        <ele>351.02</ele>
        <time>2016-04-14T09:41:03Z</time>
      </trkpt>
      <trkpt lat="46.00045" lon="1.28107">
        <ele>351.02</ele>
        <time>2016-04-14T09:41:04Z</time>
      </trkpt>
      <trkpt lat="46.00044" lon="1.28104">
        <ele>352.46</ele>
        <time>2016-04-14T09:41:05Z</time>
      </trkpt>
      <trkpt lat="46.00042" lon="1.28102">
        <ele>352.46</ele>
        <time>2016-04-14T09:41:06Z</time>
      </trkpt>
      <trkpt lat="46.00024" lon="1.2809">
        <ele>354.38</ele>
        <time>2016-04-14T09:41:16Z</time>
      </trkpt>
      <trkpt lat="46.00022" lon="1.28085">
        <ele>354.86</ele>
        <time>2016-04-14T09:41:18Z</time>
      </trkpt>
      <trkpt lat="46.00022" lon="1.28083">
        <ele>355.34</ele>
        <time>2016-04-14T09:41:19Z</time>
      </trkpt>
      <trkpt lat="46.00022" lon="1.2808">
        <ele>355.34</ele>
        <time>2016-04-14T09:41:20Z</time>
      </trkpt>
      <trkpt lat="46.00023" lon="1.28077">
        <ele>355.34</ele>
        <time>2016-04-14T09:41:21Z</time>
      </trkpt>
      <trkpt lat="46.00024" lon="1.28075">
        <ele>355.83</ele>
        <time>2016-04-14T09:41:22Z</time>
      </trkpt>
      <trkpt lat="46.00026" lon="1.28074">
        <ele>355.83</ele>
        <time>2016-04-14T09:41:23Z</time>
      </trkpt>
      <trkpt lat="46.00028" lon="1.28073">
        <ele>355.83</ele>
        <time>2016-04-14T09:41:24Z</time>
      </trkpt>
      <trkpt lat="46.0003" lon="1.28074">
        <ele>356.31</ele>
        <time>2016-04-14T09:41:25Z</time>
      </trkpt>
      <trkpt lat="46.00031" lon="1.28074">
        <ele>356.31</ele>
        <time>2016-04-14T09:41:26Z</time>
      </trkpt>
      <trkpt lat="46.00051" lon="1.28072">
        <ele>359.67</ele>
        <time>2016-04-14T09:41:40Z</time>
      </trkpt>
      <trkpt lat="46.00071" lon="1.28058">
        <ele>361.11</ele>
        <time>2016-04-14T09:41:55Z</time>
      </trkpt>
      <trkpt lat="46.00093" lon="1.28028">
        <ele>363.04</ele>
        <time>2016-04-14T09:42:13Z</time>
      </trkpt>
      <trkpt lat="46.00111" lon="1.28">
        <ele>364</ele>
        <time>2016-04-14T09:42:29Z</time>
      </trkpt>
      <trkpt lat="46.00132" lon="1.27974">
        <ele>364.48</ele>
        <time>2016-04-14T09:42:41Z</time>
      </trkpt>
      <trkpt lat="46.00137" lon="1.27969">
        <ele>363.52</ele>
        <time>2016-04-14T09:42:43Z</time>
      </trkpt>
      <trkpt lat="46.00138" lon="1.27966">
        <ele>363.52</ele>
        <time>2016-04-14T09:42:44Z</time>
      </trkpt>
      <trkpt lat="46.0014" lon="1.27963">
        <ele>363.52</ele>
        <time>2016-04-14T09:42:45Z</time>
      </trkpt>
      <trkpt lat="46.00141" lon="1.27959">
        <ele>363.52</ele>
        <time>2016-04-14T09:42:46Z</time>
      </trkpt>
      <trkpt lat="46.00143" lon="1.27956">
        <ele>363.52</ele>
        <time>2016-04-14T09:42:47Z</time>
      </trkpt>
      <trkpt lat="46.00144" lon="1.27952">
        <ele>363.04</ele>
        <time>2016-04-14T09:42:48Z</time>
      </trkpt>
      <trkpt lat="46.00145" lon="1.27949">
        <ele>363.04</ele>
        <time>2016-04-14T09:42:49Z</time>
      </trkpt>
      <trkpt lat="46.00145" lon="1.27944">
        <ele>363.04</ele>
        <time>2016-04-14T09:42:50Z</time>
      </trkpt>
      <trkpt lat="46.00145" lon="1.2794">
        <ele>363.04</ele>
        <time>2016-04-14T09:42:51Z</time>
      </trkpt>
      <trkpt lat="46.00144" lon="1.27936">
        <ele>363.04</ele>
        <time>2016-04-14T09:42:52Z</time>
      </trkpt>
      <trkpt lat="46.00143" lon="1.27933">
        <ele>363.04</ele>
        <time>2016-04-14T09:42:53Z</time>
      </trkpt>
      <trkpt lat="46.00141" lon="1.27929">
        <ele>363.04</ele>
        <time>2016-04-14T09:42:54Z</time>
      </trkpt>
      <trkpt lat="46.00139" lon="1.27926">
        <ele>363.04</ele>
        <time>2016-04-14T09:42:55Z</time>
      </trkpt>
      <trkpt lat="46.00132" lon="1.27915">
        <ele>361.59</ele>
        <time>2016-04-14T09:42:58Z</time>
      </trkpt>
      <trkpt lat="46.00119" lon="1.27904">
        <ele>359.67</ele>
        <time>2016-04-14T09:43:01Z</time>
      </trkpt>
      <trkpt lat="46.00102" lon="1.27894">
        <ele>357.27</ele>
        <time>2016-04-14T09:43:04Z</time>
      </trkpt>
      <trkpt lat="46.00081" lon="1.27884">
        <ele>355.83</ele>
        <time>2016-04-14T09:43:09Z</time>
      </trkpt>
      <trkpt lat="46.0008" lon="1.2788">
        <ele>355.83</ele>
        <time>2016-04-14T09:43:10Z</time>
      </trkpt>
      <trkpt lat="46.00079" lon="1.27876">
        <ele>355.83</ele>
        <time>2016-04-14T09:43:11Z</time>
      </trkpt>
      <trkpt lat="46.00079" lon="1.27871">
        <ele>355.83</ele>
        <time>2016-04-14T09:43:12Z</time>
      </trkpt>
      <trkpt lat="46.00078" lon="1.27866">
        <ele>355.83</ele>
        <time>2016-04-14T09:43:13Z</time>
      </trkpt>
      <trkpt lat="46.00077" lon="1.27862">
        <ele>355.83</ele>
        <time>2016-04-14T09:43:14Z</time>
      </trkpt>
      <trkpt lat="46.00085" lon="1.27826">
        <ele>359.19</ele>
        <time>2016-04-14T09:43:25Z</time>
      </trkpt>
      <trkpt lat="46.00101" lon="1.27791">
        <ele>362.07</ele>
        <time>2016-04-14T09:43:38Z</time>
      </trkpt>
      <trkpt lat="46.00124" lon="1.27752">
        <ele>363.52</ele>
        <time>2016-04-14T09:43:51Z</time>
      </trkpt>
      <trkpt lat="46.00125" lon="1.27746">
        <ele>362.07</ele>
        <time>2016-04-14T09:43:52Z</time>
      </trkpt>
      <trkpt lat="46.00125" lon="1.2774">
        <ele>362.07</ele>
        <time>2016-04-14T09:43:53Z</time>
      </trkpt>
      <trkpt lat="46.00118" lon="1.27684">
        <ele>364.48</ele>
        <time>2016-04-14T09:44:04Z</time>
      </trkpt>
      <trkpt lat="46.00117" lon="1.27636">
        <ele>365.92</ele>
        <time>2016-04-14T09:44:16Z</time>
      </trkpt>
      <trkpt lat="46.00115" lon="1.27562">
        <ele>366.4</ele>
        <time>2016-04-14T09:44:31Z</time>
      </trkpt>
      <trkpt lat="46.00121" lon="1.27503">
        <ele>364.48</ele>
        <time>2016-04-14T09:44:40Z</time>
      </trkpt>
      <trkpt lat="46.00134" lon="1.27461">
        <ele>363.04</ele>
        <time>2016-04-14T09:44:46Z</time>
      </trkpt>
      <trkpt lat="46.00135" lon="1.27454">
        <ele>363.04</ele>
        <time>2016-04-14T09:44:47Z</time>
      </trkpt>
      <trkpt lat="46.00135" lon="1.27446">
        <ele>363.04</ele>
        <time>2016-04-14T09:44:48Z</time>
      </trkpt>
      <trkpt lat="46.00134" lon="1.27438">
        <ele>362.07</ele>
        <time>2016-04-14T09:44:49Z</time>
      </trkpt>
      <trkpt lat="46.00132" lon="1.2743">
        <ele>362.55</ele>
        <time>2016-04-14T09:44:50Z</time>
      </trkpt>
      <trkpt lat="46.0013" lon="1.27422">
        <ele>362.07</ele>
        <time>2016-04-14T09:44:51Z</time>
      </trkpt>
      <trkpt lat="46.00124" lon="1.27402">
        <ele>362.07</ele>
        <time>2016-04-14T09:44:54Z</time>
      </trkpt>
      <trkpt lat="46.00123" lon="1.27395">
        <ele>362.07</ele>
        <time>2016-04-14T09:44:55Z</time>
      </trkpt>
      <trkpt lat="46.00122" lon="1.27388">
        <ele>362.07</ele>
        <time>2016-04-14T09:44:56Z</time>
      </trkpt>
      <trkpt lat="46.00121" lon="1.27381">
        <ele>362.07</ele>
        <time>2016-04-14T09:44:57Z</time>
      </trkpt>
      <trkpt lat="46.00121" lon="1.27374">
        <ele>362.07</ele>
        <time>2016-04-14T09:44:58Z</time>
      </trkpt>
      <trkpt lat="46.00121" lon="1.27361">
        <ele>361.59</ele>
        <time>2016-04-14T09:45:00Z</time>
      </trkpt>
      <trkpt lat="46.00121" lon="1.27354">
        <ele>361.59</ele>
        <time>2016-04-14T09:45:01Z</time>
      </trkpt>
      <trkpt lat="46.00132" lon="1.27268">
        <ele>363.04</ele>
        <time>2016-04-14T09:45:15Z</time>
      </trkpt>
      <trkpt lat="46.00143" lon="1.27212">
        <ele>364</ele>
        <time>2016-04-14T09:45:28Z</time>
      </trkpt>
      <trkpt lat="46.00153" lon="1.27164">
        <ele>365.44</ele>
        <time>2016-04-14T09:45:42Z</time>
      </trkpt>
      <trkpt lat="46.00162" lon="1.27128">
        <ele>367.84</ele>
        <time>2016-04-14T09:45:56Z</time>
      </trkpt>
      <trkpt lat="46.00175" lon="1.27096">
        <ele>370.73</ele>
        <time>2016-04-14T09:46:11Z</time>
      </trkpt>
      <trkpt lat="46.00188" lon="1.27058">
        <ele>372.17</ele>
        <time>2016-04-14T09:46:27Z</time>
      </trkpt>
      <trkpt lat="46.00199" lon="1.27019">
        <ele>373.13</ele>
        <time>2016-04-14T09:46:41Z</time>
      </trkpt>
      <trkpt lat="46.00194" lon="1.26997">
        <ele>373.61</ele>
        <time>2016-04-14T09:46:49Z</time>
      </trkpt>
      <trkpt lat="46.00193" lon="1.26994">
        <ele>374.09</ele>
        <time>2016-04-14T09:46:50Z</time>
      </trkpt>
      <trkpt lat="46.00191" lon="1.26974">
        <ele>374.57</ele>
        <time>2016-04-14T09:46:56Z</time>
      </trkpt>
      <trkpt lat="46.00192" lon="1.26932">
        <ele>377.45</ele>
        <time>2016-04-14T09:47:09Z</time>
      </trkpt>
      <trkpt lat="46.00192" lon="1.26915">
        <ele>378.42</ele>
        <time>2016-04-14T09:47:15Z</time>
      </trkpt>
      <trkpt lat="46.00193" lon="1.26912">
        <ele>378.9</ele>
        <time>2016-04-14T09:47:16Z</time>
      </trkpt>
      <trkpt lat="46.00194" lon="1.2691">
        <ele>378.9</ele>
        <time>2016-04-14T09:47:17Z</time>
      </trkpt>
      <trkpt lat="46.00195" lon="1.26908">
        <ele>378.9</ele>
        <time>2016-04-14T09:47:18Z</time>
      </trkpt>
      <trkpt lat="46.00195" lon="1.26906">
        <ele>378.9</ele>
        <time>2016-04-14T09:47:19Z</time>
      </trkpt>
      <trkpt lat="46.00199" lon="1.26893">
        <ele>380.34</ele>
        <time>2016-04-14T09:47:24Z</time>
      </trkpt>
      <trkpt lat="46.002" lon="1.26891">
        <ele>380.34</ele>
        <time>2016-04-14T09:47:25Z</time>
      </trkpt>
      <trkpt lat="46.00201" lon="1.26888">
        <ele>380.34</ele>
        <time>2016-04-14T09:47:26Z</time>
      </trkpt>
      <trkpt lat="46.00205" lon="1.26874">
        <ele>378.9</ele>
        <time>2016-04-14T09:47:29Z</time>
      </trkpt>
      <trkpt lat="46.00208" lon="1.26852">
        <ele>377.45</ele>
        <time>2016-04-14T09:47:32Z</time>
      </trkpt>
      <trkpt lat="46.00211" lon="1.26838">
        <ele>375.53</ele>
        <time>2016-04-14T09:47:34Z</time>
      </trkpt>
      <trkpt lat="46.00213" lon="1.26832">
        <ele>373.61</ele>
        <time>2016-04-14T09:47:35Z</time>
      </trkpt>
      <trkpt lat="46.00224" lon="1.26803">
        <ele>370.73</ele>
        <time>2016-04-14T09:47:39Z</time>
      </trkpt>
      <trkpt lat="46.00231" lon="1.26789">
        <ele>369.28</ele>
        <time>2016-04-14T09:47:41Z</time>
      </trkpt>
      <trkpt lat="46.00236" lon="1.26782">
        <ele>368.32</ele>
        <time>2016-04-14T09:47:42Z</time>
      </trkpt>
      <trkpt lat="46.00241" lon="1.26775">
        <ele>367.36</ele>
        <time>2016-04-14T09:47:43Z</time>
      </trkpt>
      <trkpt lat="46.00264" lon="1.26746">
        <ele>364.48</ele>
        <time>2016-04-14T09:47:47Z</time>
      </trkpt>
      <trkpt lat="46.00283" lon="1.26722">
        <ele>364</ele>
        <time>2016-04-14T09:47:51Z</time>
      </trkpt>
      <trkpt lat="46.00293" lon="1.26715">
        <ele>364</ele>
        <time>2016-04-14T09:47:53Z</time>
      </trkpt>
      <trkpt lat="46.00304" lon="1.2671">
        <ele>363.52</ele>
        <time>2016-04-14T09:47:55Z</time>
      </trkpt>
      <trkpt lat="46.00326" lon="1.26698">
        <ele>362.07</ele>
        <time>2016-04-14T09:47:59Z</time>
      </trkpt>
      <trkpt lat="46.00346" lon="1.26694">
        <ele>361.59</ele>
        <time>2016-04-14T09:48:03Z</time>
      </trkpt>
      <trkpt lat="46.0035" lon="1.26695">
        <ele>361.59</ele>
        <time>2016-04-14T09:48:04Z</time>
      </trkpt>
      <trkpt lat="46.00353" lon="1.26697">
        <ele>361.59</ele>
        <time>2016-04-14T09:48:05Z</time>
      </trkpt>
      <trkpt lat="46.00382" lon="1.26745">
        <ele>364</ele>
        <time>2016-04-14T09:48:20Z</time>
      </trkpt>
      <trkpt lat="46.00402" lon="1.26791">
        <ele>365.44</ele>
        <time>2016-04-14T09:48:35Z</time>
      </trkpt>
      <trkpt lat="46.0042" lon="1.26848">
        <ele>366.88</ele>
        <time>2016-04-14T09:48:50Z</time>
      </trkpt>
      <trkpt lat="46.00445" lon="1.26899">
        <ele>368.8</ele>
        <time>2016-04-14T09:49:06Z</time>
      </trkpt>
      <trkpt lat="46.00477" lon="1.26933">
        <ele>370.73</ele>
        <time>2016-04-14T09:49:22Z</time>
      </trkpt>
      <trkpt lat="46.00504" lon="1.26952">
        <ele>372.65</ele>
        <time>2016-04-14T09:49:35Z</time>
      </trkpt>
      <trkpt lat="46.00534" lon="1.26971">
        <ele>374.09</ele>
        <time>2016-04-14T09:49:48Z</time>
      </trkpt>
      <trkpt lat="46.00576" lon="1.26976">
        <ele>376.01</ele>
        <time>2016-04-14T09:50:02Z</time>
      </trkpt>
      <trkpt lat="46.00607" lon="1.26971">
        <ele>378.42</ele>
        <time>2016-04-14T09:50:14Z</time>
      </trkpt>
      <trkpt lat="46.0064" lon="1.26967">
        <ele>380.82</ele>
        <time>2016-04-14T09:50:27Z</time>
      </trkpt>
      <trkpt lat="46.00682" lon="1.26969">
        <ele>383.22</ele>
        <time>2016-04-14T09:50:45Z</time>
      </trkpt>
      <trkpt lat="46.00705" lon="1.26976">
        <ele>384.66</ele>
        <time>2016-04-14T09:50:56Z</time>
      </trkpt>
      <trkpt lat="46.00737" lon="1.26993">
        <ele>386.11</ele>
        <time>2016-04-14T09:51:10Z</time>
      </trkpt>
      <trkpt lat="46.00772" lon="1.27018">
        <ele>387.55</ele>
        <time>2016-04-14T09:51:24Z</time>
      </trkpt>
      <trkpt lat="46.00814" lon="1.27057">
        <ele>388.03</ele>
        <time>2016-04-14T09:51:38Z</time>
      </trkpt>
      <trkpt lat="46.00852" lon="1.27082">
        <ele>390.91</ele>
        <time>2016-04-14T09:51:54Z</time>
      </trkpt>
      <trkpt lat="46.00883" lon="1.27108">
        <ele>392.84</ele>
        <time>2016-04-14T09:52:10Z</time>
      </trkpt>
      <trkpt lat="46.00908" lon="1.27129">
        <ele>394.76</ele>
        <time>2016-04-14T09:52:23Z</time>
      </trkpt>
      <trkpt lat="46.00919" lon="1.2714">
        <ele>395.72</ele>
        <time>2016-04-14T09:52:29Z</time>
      </trkpt>
      <trkpt lat="46.00921" lon="1.2714">
        <ele>395.72</ele>
        <time>2016-04-14T09:52:30Z</time>
      </trkpt>
      <trkpt lat="46.00924" lon="1.27141">
        <ele>395.72</ele>
        <time>2016-04-14T09:52:31Z</time>
      </trkpt>
      <trkpt lat="46.00926" lon="1.27142">
        <ele>396.2</ele>
        <time>2016-04-14T09:52:32Z</time>
      </trkpt>
      <trkpt lat="46.00928" lon="1.27143">
        <ele>396.2</ele>
        <time>2016-04-14T09:52:33Z</time>
      </trkpt>
      <trkpt lat="46.0093" lon="1.27145">
        <ele>396.2</ele>
        <time>2016-04-14T09:52:34Z</time>
      </trkpt>
      <trkpt lat="46.00931" lon="1.27146">
        <ele>396.2</ele>
        <time>2016-04-14T09:52:35Z</time>
      </trkpt>
      <trkpt lat="46.00933" lon="1.27148">
        <ele>396.2</ele>
        <time>2016-04-14T09:52:36Z</time>
      </trkpt>
      <trkpt lat="46.00935" lon="1.27149">
        <ele>396.2</ele>
        <time>2016-04-14T09:52:37Z</time>
      </trkpt>
      <trkpt lat="46.00963" lon="1.2717">
        <ele>397.64</ele>
        <time>2016-04-14T09:52:50Z</time>
      </trkpt>
      <trkpt lat="46.00991" lon="1.27192">
        <ele>398.12</ele>
        <time>2016-04-14T09:53:03Z</time>
      </trkpt>
      <trkpt lat="46.01017" lon="1.2721">
        <ele>398.12</ele>
        <time>2016-04-14T09:53:14Z</time>
      </trkpt>
      <trkpt lat="46.01063" lon="1.27216">
        <ele>398.6</ele>
        <time>2016-04-14T09:53:28Z</time>
      </trkpt>
      <trkpt lat="46.01113" lon="1.27206">
        <ele>399.57</ele>
        <time>2016-04-14T09:53:43Z</time>
      </trkpt>
      <trkpt lat="46.01165" lon="1.27193">
        <ele>400.53</ele>
        <time>2016-04-14T09:53:59Z</time>
      </trkpt>
      <trkpt lat="46.01195" lon="1.27184">
        <ele>401.01</ele>
        <time>2016-04-14T09:54:08Z</time>
      </trkpt>
      <trkpt lat="46.01215" lon="1.2718">
        <ele>401.49</ele>
        <time>2016-04-14T09:54:14Z</time>
      </trkpt>
      <trkpt lat="46.01218" lon="1.27177">
        <ele>401.49</ele>
        <time>2016-04-14T09:54:15Z</time>
      </trkpt>
      <trkpt lat="46.01255" lon="1.27155">
        <ele>399.08</ele>
        <time>2016-04-14T09:54:26Z</time>
      </trkpt>
      <trkpt lat="46.01295" lon="1.27129">
        <ele>398.12</ele>
        <time>2016-04-14T09:54:36Z</time>
      </trkpt>
      <trkpt lat="46.01299" lon="1.27128">
        <ele>397.64</ele>
        <time>2016-04-14T09:54:37Z</time>
      </trkpt>
      <trkpt lat="46.01304" lon="1.27126">
        <ele>397.16</ele>
        <time>2016-04-14T09:54:38Z</time>
      </trkpt>
      <trkpt lat="46.01309" lon="1.27123">
        <ele>397.16</ele>
        <time>2016-04-14T09:54:39Z</time>
      </trkpt>
      <trkpt lat="46.01314" lon="1.2712">
        <ele>396.2</ele>
        <time>2016-04-14T09:54:40Z</time>
      </trkpt>
      <trkpt lat="46.01318" lon="1.27118">
        <ele>395.72</ele>
        <time>2016-04-14T09:54:41Z</time>
      </trkpt>
      <trkpt lat="46.01323" lon="1.27115">
        <ele>395.24</ele>
        <time>2016-04-14T09:54:42Z</time>
      </trkpt>
      <trkpt lat="46.01329" lon="1.27112">
        <ele>394.76</ele>
        <time>2016-04-14T09:54:43Z</time>
      </trkpt>
      <trkpt lat="46.0137" lon="1.27097">
        <ele>391.87</ele>
        <time>2016-04-14T09:54:50Z</time>
      </trkpt>
      <trkpt lat="46.01377" lon="1.27093">
        <ele>390.91</ele>
        <time>2016-04-14T09:54:51Z</time>
      </trkpt>
      <trkpt lat="46.01399" lon="1.27083">
        <ele>389.47</ele>
        <time>2016-04-14T09:54:54Z</time>
      </trkpt>
      <trkpt lat="46.01443" lon="1.27066">
        <ele>388.51</ele>
        <time>2016-04-14T09:55:00Z</time>
      </trkpt>
      <trkpt lat="46.01464" lon="1.27061">
        <ele>388.03</ele>
        <time>2016-04-14T09:55:03Z</time>
      </trkpt>
      <trkpt lat="46.0147" lon="1.27057">
        <ele>387.55</ele>
        <time>2016-04-14T09:55:04Z</time>
      </trkpt>
      <trkpt lat="46.01509" lon="1.27022">
        <ele>385.15</ele>
        <time>2016-04-14T09:55:11Z</time>
      </trkpt>
      <trkpt lat="46.01564" lon="1.26969">
        <ele>384.66</ele>
        <time>2016-04-14T09:55:24Z</time>
      </trkpt>
      <trkpt lat="46.01619" lon="1.26911">
        <ele>381.3</ele>
        <time>2016-04-14T09:55:37Z</time>
      </trkpt>
      <trkpt lat="46.01664" lon="1.2685">
        <ele>381.78</ele>
        <time>2016-04-14T09:55:49Z</time>
      </trkpt>
      <trkpt lat="46.01681" lon="1.26824">
        <ele>383.22</ele>
        <time>2016-04-14T09:56:00Z</time>
      </trkpt>
      <trkpt lat="46.017" lon="1.26789">
        <ele>385.63</ele>
        <time>2016-04-14T09:56:14Z</time>
      </trkpt>
      <trkpt lat="46.01702" lon="1.26789">
        <ele>385.63</ele>
        <time>2016-04-14T09:56:15Z</time>
      </trkpt>
      <trkpt lat="46.01705" lon="1.26789">
        <ele>385.63</ele>
        <time>2016-04-14T09:56:16Z</time>
      </trkpt>
      <trkpt lat="46.01734" lon="1.268">
        <ele>388.99</ele>
        <time>2016-04-14T09:56:28Z</time>
      </trkpt>
      <trkpt lat="46.0177" lon="1.26807">
        <ele>390.43</ele>
        <time>2016-04-14T09:56:43Z</time>
      </trkpt>
      <trkpt lat="46.01797" lon="1.26819">
        <ele>390.91</ele>
        <time>2016-04-14T09:56:54Z</time>
      </trkpt>
      <trkpt lat="46.01821" lon="1.2683">
        <ele>392.36</ele>
        <time>2016-04-14T09:57:06Z</time>
      </trkpt>
      <trkpt lat="46.01823" lon="1.26829">
        <ele>392.36</ele>
        <time>2016-04-14T09:57:07Z</time>
      </trkpt>
      <trkpt lat="46.01824" lon="1.26829">
        <ele>392.36</ele>
        <time>2016-04-14T09:57:08Z</time>
      </trkpt>
      <trkpt lat="46.01826" lon="1.2683">
        <ele>392.36</ele>
        <time>2016-04-14T09:57:09Z</time>
      </trkpt>
      <trkpt lat="46.01827" lon="1.26829">
        <ele>392.36</ele>
        <time>2016-04-14T09:57:10Z</time>
      </trkpt>
      <trkpt lat="46.01837" lon="1.26859">
        <ele>393.32</ele>
        <time>2016-04-14T09:57:20Z</time>
      </trkpt>
      <trkpt lat="46.01841" lon="1.26916">
        <ele>395.24</ele>
        <time>2016-04-14T09:57:35Z</time>
      </trkpt>
      <trkpt lat="46.0185" lon="1.26981">
        <ele>398.6</ele>
        <time>2016-04-14T09:57:53Z</time>
      </trkpt>
      <trkpt lat="46.01868" lon="1.27041">
        <ele>401.01</ele>
        <time>2016-04-14T09:58:11Z</time>
      </trkpt>
      <trkpt lat="46.01889" lon="1.27068">
        <ele>402.93</ele>
        <time>2016-04-14T09:58:24Z</time>
      </trkpt>
      <trkpt lat="46.01912" lon="1.27093">
        <ele>405.81</ele>
        <time>2016-04-14T09:58:38Z</time>
      </trkpt>
      <trkpt lat="46.01938" lon="1.27111">
        <ele>407.26</ele>
        <time>2016-04-14T09:58:53Z</time>
      </trkpt>
      <trkpt lat="46.0195" lon="1.27119">
        <ele>406.29</ele>
        <time>2016-04-14T09:58:58Z</time>
      </trkpt>
      <trkpt lat="46.01955" lon="1.2712">
        <ele>405.81</ele>
        <time>2016-04-14T09:58:59Z</time>
      </trkpt>
      <trkpt lat="46.01969" lon="1.27123">
        <ele>405.33</ele>
        <time>2016-04-14T09:59:02Z</time>
      </trkpt>
      <trkpt lat="46.01974" lon="1.27123">
        <ele>405.33</ele>
        <time>2016-04-14T09:59:03Z</time>
      </trkpt>
      <trkpt lat="46.01992" lon="1.27124">
        <ele>404.37</ele>
        <time>2016-04-14T09:59:07Z</time>
      </trkpt>
      <trkpt lat="46.01996" lon="1.27125">
        <ele>404.37</ele>
        <time>2016-04-14T09:59:08Z</time>
      </trkpt>
      <trkpt lat="46.02027" lon="1.27135">
        <ele>403.41</ele>
        <time>2016-04-14T09:59:18Z</time>
      </trkpt>
      <trkpt lat="46.02051" lon="1.27148">
        <ele>402.93</ele>
        <time>2016-04-14T09:59:29Z</time>
      </trkpt>
      <trkpt lat="46.02054" lon="1.27149">
        <ele>402.93</ele>
        <time>2016-04-14T09:59:30Z</time>
      </trkpt>
      <trkpt lat="46.02057" lon="1.27151">
        <ele>402.93</ele>
        <time>2016-04-14T09:59:31Z</time>
      </trkpt>
      <trkpt lat="46.02059" lon="1.27152">
        <ele>402.93</ele>
        <time>2016-04-14T09:59:32Z</time>
      </trkpt>
      <trkpt lat="46.02062" lon="1.27153">
        <ele>402.93</ele>
        <time>2016-04-14T09:59:33Z</time>
      </trkpt>
      <trkpt lat="46.02064" lon="1.27153">
        <ele>402.93</ele>
        <time>2016-04-14T09:59:34Z</time>
      </trkpt>
      <trkpt lat="46.02067" lon="1.27153">
        <ele>402.93</ele>
        <time>2016-04-14T09:59:35Z</time>
      </trkpt>
      <trkpt lat="46.02072" lon="1.27153">
        <ele>402.45</ele>
        <time>2016-04-14T09:59:46Z</time>
      </trkpt>
      <trkpt lat="46.02076" lon="1.27153">
        <ele>401.97</ele>
        <time>2016-04-14T10:00:07Z</time>
      </trkpt>
      <trkpt lat="46.02102" lon="1.27165">
        <ele>401.49</ele>
        <time>2016-04-14T10:00:19Z</time>
      </trkpt>
      <trkpt lat="46.02142" lon="1.27187">
        <ele>401.49</ele>
        <time>2016-04-14T10:00:33Z</time>
      </trkpt>
      <trkpt lat="46.02186" lon="1.27213">
        <ele>401.49</ele>
        <time>2016-04-14T10:00:49Z</time>
      </trkpt>
      <trkpt lat="46.02206" lon="1.27218">
        <ele>400.05</ele>
        <time>2016-04-14T10:00:54Z</time>
      </trkpt>
      <trkpt lat="46.02212" lon="1.27217">
        <ele>399.08</ele>
        <time>2016-04-14T10:00:55Z</time>
      </trkpt>
      <trkpt lat="46.02217" lon="1.27215">
        <ele>398.6</ele>
        <time>2016-04-14T10:00:56Z</time>
      </trkpt>
      <trkpt lat="46.02245" lon="1.27206">
        <ele>396.2</ele>
        <time>2016-04-14T10:01:01Z</time>
      </trkpt>
      <trkpt lat="46.02311" lon="1.27211">
        <ele>394.76</ele>
        <time>2016-04-14T10:01:13Z</time>
      </trkpt>
      <trkpt lat="46.02316" lon="1.2721">
        <ele>394.76</ele>
        <time>2016-04-14T10:01:14Z</time>
      </trkpt>
      <trkpt lat="46.0232" lon="1.2721">
        <ele>394.76</ele>
        <time>2016-04-14T10:01:15Z</time>
      </trkpt>
      <trkpt lat="46.02323" lon="1.27209">
        <ele>394.76</ele>
        <time>2016-04-14T10:01:16Z</time>
      </trkpt>
      <trkpt lat="46.02325" lon="1.27207">
        <ele>394.76</ele>
        <time>2016-04-14T10:01:17Z</time>
      </trkpt>
      <trkpt lat="46.02327" lon="1.27206">
        <ele>394.76</ele>
        <time>2016-04-14T10:01:18Z</time>
      </trkpt>
      <trkpt lat="46.02329" lon="1.27205">
        <ele>394.76</ele>
        <time>2016-04-14T10:01:19Z</time>
      </trkpt>
      <trkpt lat="46.0233" lon="1.27204">
        <ele>394.76</ele>
        <time>2016-04-14T10:01:20Z</time>
      </trkpt>
      <trkpt lat="46.02332" lon="1.27203">
        <ele>394.28</ele>
        <time>2016-04-14T10:01:21Z</time>
      </trkpt>
      <trkpt lat="46.02336" lon="1.27201">
        <ele>394.28</ele>
        <time>2016-04-14T10:01:24Z</time>
      </trkpt>
      <trkpt lat="46.02338" lon="1.272">
        <ele>394.28</ele>
        <time>2016-04-14T10:01:25Z</time>
      </trkpt>
      <trkpt lat="46.02345" lon="1.27193">
        <ele>394.28</ele>
        <time>2016-04-14T10:01:31Z</time>
      </trkpt>
      <trkpt lat="46.02346" lon="1.27191">
        <ele>394.28</ele>
        <time>2016-04-14T10:01:32Z</time>
      </trkpt>
      <trkpt lat="46.0237" lon="1.27168">
        <ele>394.28</ele>
        <time>2016-04-14T10:01:44Z</time>
      </trkpt>
      <trkpt lat="46.02378" lon="1.27163">
        <ele>395.72</ele>
        <time>2016-04-14T10:01:47Z</time>
      </trkpt>
      <trkpt lat="46.02408" lon="1.27145">
        <ele>399.08</ele>
        <time>2016-04-14T10:02:00Z</time>
      </trkpt>
      <trkpt lat="46.02435" lon="1.27129">
        <ele>401.97</ele>
        <time>2016-04-14T10:02:16Z</time>
      </trkpt>
      <trkpt lat="46.02468" lon="1.27129">
        <ele>404.37</ele>
        <time>2016-04-14T10:02:33Z</time>
      </trkpt>
      <trkpt lat="46.02499" lon="1.27129">
        <ele>406.29</ele>
        <time>2016-04-14T10:02:48Z</time>
      </trkpt>
      <trkpt lat="46.02532" lon="1.27127">
        <ele>407.26</ele>
        <time>2016-04-14T10:03:02Z</time>
      </trkpt>
      <trkpt lat="46.02568" lon="1.27132">
        <ele>407.26</ele>
        <time>2016-04-14T10:03:17Z</time>
      </trkpt>
      <trkpt lat="46.02621" lon="1.27101">
        <ele>404.37</ele>
        <time>2016-04-14T10:03:30Z</time>
      </trkpt>
      <trkpt lat="46.02627" lon="1.27098">
        <ele>403.89</ele>
        <time>2016-04-14T10:03:31Z</time>
      </trkpt>
      <trkpt lat="46.02633" lon="1.27096">
        <ele>403.41</ele>
        <time>2016-04-14T10:03:32Z</time>
      </trkpt>
      <trkpt lat="46.0264" lon="1.27095">
        <ele>402.45</ele>
        <time>2016-04-14T10:03:33Z</time>
      </trkpt>
      <trkpt lat="46.02646" lon="1.27095">
        <ele>401.97</ele>
        <time>2016-04-14T10:03:34Z</time>
      </trkpt>
      <trkpt lat="46.02653" lon="1.27096">
        <ele>401.49</ele>
        <time>2016-04-14T10:03:35Z</time>
      </trkpt>
      <trkpt lat="46.0266" lon="1.27099">
        <ele>401.01</ele>
        <time>2016-04-14T10:03:36Z</time>
      </trkpt>
      <trkpt lat="46.02668" lon="1.27102">
        <ele>400.05</ele>
        <time>2016-04-14T10:03:37Z</time>
      </trkpt>
      <trkpt lat="46.02675" lon="1.27107">
        <ele>399.57</ele>
        <time>2016-04-14T10:03:38Z</time>
      </trkpt>
      <trkpt lat="46.02683" lon="1.27112">
        <ele>398.6</ele>
        <time>2016-04-14T10:03:39Z</time>
      </trkpt>
      <trkpt lat="46.02722" lon="1.27138">
        <ele>394.76</ele>
        <time>2016-04-14T10:03:44Z</time>
      </trkpt>
      <trkpt lat="46.02728" lon="1.27142">
        <ele>394.76</ele>
        <time>2016-04-14T10:03:45Z</time>
      </trkpt>
      <trkpt lat="46.02735" lon="1.27145">
        <ele>394.76</ele>
        <time>2016-04-14T10:03:46Z</time>
      </trkpt>
      <trkpt lat="46.02742" lon="1.27146">
        <ele>393.8</ele>
        <time>2016-04-14T10:03:47Z</time>
      </trkpt>
      <trkpt lat="46.02753" lon="1.27149">
        <ele>393.32</ele>
        <time>2016-04-14T10:03:49Z</time>
      </trkpt>
      <trkpt lat="46.02757" lon="1.27152">
        <ele>392.84</ele>
        <time>2016-04-14T10:03:50Z</time>
      </trkpt>
      <trkpt lat="46.0276" lon="1.27155">
        <ele>392.84</ele>
        <time>2016-04-14T10:03:51Z</time>
      </trkpt>
      <trkpt lat="46.02762" lon="1.27159">
        <ele>392.84</ele>
        <time>2016-04-14T10:03:52Z</time>
      </trkpt>
      <trkpt lat="46.02764" lon="1.27162">
        <ele>392.84</ele>
        <time>2016-04-14T10:03:53Z</time>
      </trkpt>
      <trkpt lat="46.02792" lon="1.27198">
        <ele>392.84</ele>
        <time>2016-04-14T10:04:05Z</time>
      </trkpt>
      <trkpt lat="46.02818" lon="1.27254">
        <ele>391.39</ele>
        <time>2016-04-14T10:04:16Z</time>
      </trkpt>
      <trkpt lat="46.0282" lon="1.27259">
        <ele>391.39</ele>
        <time>2016-04-14T10:04:17Z</time>
      </trkpt>
      <trkpt lat="46.02827" lon="1.27296">
        <ele>393.32</ele>
        <time>2016-04-14T10:04:28Z</time>
      </trkpt>
      <trkpt lat="46.02827" lon="1.27302">
        <ele>393.8</ele>
        <time>2016-04-14T10:04:31Z</time>
      </trkpt>
      <trkpt lat="46.02833" lon="1.27338">
        <ele>396.2</ele>
        <time>2016-04-14T10:04:43Z</time>
      </trkpt>
      <trkpt lat="46.02841" lon="1.27378">
        <ele>397.64</ele>
        <time>2016-04-14T10:04:56Z</time>
      </trkpt>
      <trkpt lat="46.02856" lon="1.27416">
        <ele>398.6</ele>
        <time>2016-04-14T10:05:08Z</time>
      </trkpt>
      <trkpt lat="46.02866" lon="1.27432">
        <ele>399.08</ele>
        <time>2016-04-14T10:05:14Z</time>
      </trkpt>
      <trkpt lat="46.02876" lon="1.2744">
        <ele>397.64</ele>
        <time>2016-04-14T10:05:18Z</time>
      </trkpt>
      <trkpt lat="46.02904" lon="1.27476">
        <ele>397.16</ele>
        <time>2016-04-14T10:05:29Z</time>
      </trkpt>
      <trkpt lat="46.02907" lon="1.27503">
        <ele>393.8</ele>
        <time>2016-04-14T10:05:36Z</time>
      </trkpt>
      <trkpt lat="46.02895" lon="1.27536">
        <ele>391.39</ele>
        <time>2016-04-14T10:05:41Z</time>
      </trkpt>
      <trkpt lat="46.02891" lon="1.27619">
        <ele>388.51</ele>
        <time>2016-04-14T10:05:50Z</time>
      </trkpt>
      <trkpt lat="46.02893" lon="1.27628">
        <ele>387.55</ele>
        <time>2016-04-14T10:05:51Z</time>
      </trkpt>
      <trkpt lat="46.02903" lon="1.27659">
        <ele>386.11</ele>
        <time>2016-04-14T10:05:55Z</time>
      </trkpt>
      <trkpt lat="46.02946" lon="1.27702">
        <ele>383.22</ele>
        <time>2016-04-14T10:06:05Z</time>
      </trkpt>
      <trkpt lat="46.02982" lon="1.27732">
        <ele>381.3</ele>
        <time>2016-04-14T10:06:12Z</time>
      </trkpt>
      <trkpt lat="46.02993" lon="1.2774">
        <ele>380.82</ele>
        <time>2016-04-14T10:06:14Z</time>
      </trkpt>
      <trkpt lat="46.03021" lon="1.27773">
        <ele>376.97</ele>
        <time>2016-04-14T10:06:22Z</time>
      </trkpt>
      <trkpt lat="46.03035" lon="1.27784">
        <ele>376.01</ele>
        <time>2016-04-14T10:06:25Z</time>
      </trkpt>
      <trkpt lat="46.03066" lon="1.27782">
        <ele>374.09</ele>
        <time>2016-04-14T10:06:32Z</time>
      </trkpt>
      <trkpt lat="46.03072" lon="1.27773">
        <ele>372.65</ele>
        <time>2016-04-14T10:06:34Z</time>
      </trkpt>
      <trkpt lat="46.03084" lon="1.2776">
        <ele>370.73</ele>
        <time>2016-04-14T10:06:38Z</time>
      </trkpt>
      <trkpt lat="46.03092" lon="1.27755">
        <ele>368.8</ele>
        <time>2016-04-14T10:06:40Z</time>
      </trkpt>
      <trkpt lat="46.03104" lon="1.2775">
        <ele>366.88</ele>
        <time>2016-04-14T10:06:42Z</time>
      </trkpt>
      <trkpt lat="46.03146" lon="1.2776">
        <ele>368.8</ele>
        <time>2016-04-14T10:06:51Z</time>
      </trkpt>
      <trkpt lat="46.03182" lon="1.27774">
        <ele>370.73</ele>
        <time>2016-04-14T10:07:01Z</time>
      </trkpt>
      <trkpt lat="46.0322" lon="1.27788">
        <ele>372.17</ele>
        <time>2016-04-14T10:07:11Z</time>
      </trkpt>
      <trkpt lat="46.03262" lon="1.27797">
        <ele>372.17</ele>
        <time>2016-04-14T10:07:21Z</time>
      </trkpt>
      <trkpt lat="46.03287" lon="1.27825">
        <ele>369.28</ele>
        <time>2016-04-14T10:07:30Z</time>
      </trkpt>
      <trkpt lat="46.03284" lon="1.27846">
        <ele>370.73</ele>
        <time>2016-04-14T10:07:37Z</time>
      </trkpt>
      <trkpt lat="46.03274" lon="1.27895">
        <ele>372.17</ele>
        <time>2016-04-14T10:07:51Z</time>
      </trkpt>
      <trkpt lat="46.03274" lon="1.27942">
        <ele>372.65</ele>
        <time>2016-04-14T10:08:01Z</time>
      </trkpt>
      <trkpt lat="46.03281" lon="1.28001">
        <ele>373.13</ele>
        <time>2016-04-14T10:08:13Z</time>
      </trkpt>
      <trkpt lat="46.03282" lon="1.28053">
        <ele>373.61</ele>
        <time>2016-04-14T10:08:24Z</time>
      </trkpt>
      <trkpt lat="46.03269" lon="1.28098">
        <ele>372.17</ele>
        <time>2016-04-14T10:08:34Z</time>
      </trkpt>
      <trkpt lat="46.03239" lon="1.28136">
        <ele>372.17</ele>
        <time>2016-04-14T10:08:44Z</time>
      </trkpt>
      <trkpt lat="46.03222" lon="1.28157">
        <ele>370.73</ele>
        <time>2016-04-14T10:08:49Z</time>
      </trkpt>
      <trkpt lat="46.03206" lon="1.28179">
        <ele>368.8</ele>
        <time>2016-04-14T10:08:53Z</time>
      </trkpt>
      <trkpt lat="46.03202" lon="1.28184">
        <ele>368.32</ele>
        <time>2016-04-14T10:08:54Z</time>
      </trkpt>
      <trkpt lat="46.03196" lon="1.28188">
        <ele>367.36</ele>
        <time>2016-04-14T10:08:55Z</time>
      </trkpt>
      <trkpt lat="46.03191" lon="1.28193">
        <ele>367.36</ele>
        <time>2016-04-14T10:08:56Z</time>
      </trkpt>
      <trkpt lat="46.03168" lon="1.28219">
        <ele>366.88</ele>
        <time>2016-04-14T10:09:01Z</time>
      </trkpt>
      <trkpt lat="46.03143" lon="1.28249">
        <ele>366.88</ele>
        <time>2016-04-14T10:09:11Z</time>
      </trkpt>
      <trkpt lat="46.03129" lon="1.28269">
        <ele>370.24</ele>
        <time>2016-04-14T10:09:19Z</time>
      </trkpt>
      <trkpt lat="46.03129" lon="1.2827">
        <ele>370.24</ele>
        <time>2016-04-14T10:09:20Z</time>
      </trkpt>
      <trkpt lat="46.0313" lon="1.28273">
        <ele>370.73</ele>
        <time>2016-04-14T10:09:22Z</time>
      </trkpt>
      <trkpt lat="46.03134" lon="1.28289">
        <ele>369.28</ele>
        <time>2016-04-14T10:09:27Z</time>
      </trkpt>
      <trkpt lat="46.0314" lon="1.2834">
        <ele>367.36</ele>
        <time>2016-04-14T10:09:37Z</time>
      </trkpt>
      <trkpt lat="46.03134" lon="1.28381">
        <ele>368.32</ele>
        <time>2016-04-14T10:09:45Z</time>
      </trkpt>
      <trkpt lat="46.0311" lon="1.28434">
        <ele>368.32</ele>
        <time>2016-04-14T10:09:56Z</time>
      </trkpt>
      <trkpt lat="46.03096" lon="1.28471">
        <ele>368.32</ele>
        <time>2016-04-14T10:10:08Z</time>
      </trkpt>
      <trkpt lat="46.0309" lon="1.28516">
        <ele>367.84</ele>
        <time>2016-04-14T10:10:19Z</time>
      </trkpt>
      <trkpt lat="46.03088" lon="1.28524">
        <ele>368.32</ele>
        <time>2016-04-14T10:10:31Z</time>
      </trkpt>
      <trkpt lat="46.03086" lon="1.28531">
        <ele>367.84</ele>
        <time>2016-04-14T10:10:47Z</time>
      </trkpt>
      <trkpt lat="46.0309" lon="1.2853">
        <ele>367.84</ele>
        <time>2016-04-14T10:11:16Z</time>
      </trkpt>
      <trkpt lat="46.03091" lon="1.28531">
        <ele>367.84</ele>
        <time>2016-04-14T10:11:44Z</time>
      </trkpt>
      <trkpt lat="46.03091" lon="1.28527">
        <ele>367.84</ele>
        <time>2016-04-14T10:12:17Z</time>
      </trkpt>
      <trkpt lat="46.03092" lon="1.28526">
        <ele>367.84</ele>
        <time>2016-04-14T10:12:40Z</time>
      </trkpt>
      <trkpt lat="46.03094" lon="1.28526">
        <ele>367.36</ele>
        <time>2016-04-14T10:13:02Z</time>
      </trkpt>
      <trkpt lat="46.03093" lon="1.28528">
        <ele>367.36</ele>
        <time>2016-04-14T10:13:19Z</time>
      </trkpt>
      <trkpt lat="46.03091" lon="1.28529">
        <ele>367.36</ele>
        <time>2016-04-14T10:13:41Z</time>
      </trkpt>
      <trkpt lat="46.03091" lon="1.2853">
        <ele>366.88</ele>
        <time>2016-04-14T10:14:08Z</time>
      </trkpt>
      <trkpt lat="46.03088" lon="1.28531">
        <ele>366.88</ele>
        <time>2016-04-14T10:14:31Z</time>
      </trkpt>
      <trkpt lat="46.03089" lon="1.28527">
        <ele>366.4</ele>
        <time>2016-04-14T10:15:06Z</time>
      </trkpt>
      <trkpt lat="46.03088" lon="1.28527">
        <ele>366.4</ele>
        <time>2016-04-14T10:15:38Z</time>
      </trkpt>
      <trkpt lat="46.03088" lon="1.28527">
        <ele>366.4</ele>
        <time>2016-04-14T10:16:02Z</time>
      </trkpt>
      <trkpt lat="46.03088" lon="1.28527">
        <ele>366.4</ele>
        <time>2016-04-14T10:16:05Z</time>
      </trkpt>
      <trkpt lat="46.03084" lon="1.28531">
        <ele>366.4</ele>
        <time>2016-04-14T10:16:09Z</time>
      </trkpt>
      <trkpt lat="46.03068" lon="1.28541">
        <ele>366.88</ele>
        <time>2016-04-14T10:16:20Z</time>
      </trkpt>
      <trkpt lat="46.03059" lon="1.28547">
        <ele>366.88</ele>
        <time>2016-04-14T10:16:26Z</time>
      </trkpt>
      <trkpt lat="46.03056" lon="1.28547">
        <ele>366.88</ele>
        <time>2016-04-14T10:16:27Z</time>
      </trkpt>
      <trkpt lat="46.03054" lon="1.28547">
        <ele>366.88</ele>
        <time>2016-04-14T10:16:28Z</time>
      </trkpt>
      <trkpt lat="46.03051" lon="1.28547">
        <ele>366.88</ele>
        <time>2016-04-14T10:16:29Z</time>
      </trkpt>
      <trkpt lat="46.03049" lon="1.28548">
        <ele>367.36</ele>
        <time>2016-04-14T10:16:30Z</time>
      </trkpt>
      <trkpt lat="46.03013" lon="1.28551">
        <ele>368.32</ele>
        <time>2016-04-14T10:16:45Z</time>
      </trkpt>
      <trkpt lat="46.02988" lon="1.28577">
        <ele>368.8</ele>
        <time>2016-04-14T10:16:55Z</time>
      </trkpt>
      <trkpt lat="46.02971" lon="1.28608">
        <ele>368.8</ele>
        <time>2016-04-14T10:17:04Z</time>
      </trkpt>
      <trkpt lat="46.02946" lon="1.28633">
        <ele>367.36</ele>
        <time>2016-04-14T10:17:13Z</time>
      </trkpt>
      <trkpt lat="46.02937" lon="1.28638">
        <ele>366.4</ele>
        <time>2016-04-14T10:17:15Z</time>
      </trkpt>
      <trkpt lat="46.02897" lon="1.2864">
        <ele>366.4</ele>
        <time>2016-04-14T10:17:25Z</time>
      </trkpt>
      <trkpt lat="46.02872" lon="1.28641">
        <ele>367.84</ele>
        <time>2016-04-14T10:17:33Z</time>
      </trkpt>
      <trkpt lat="46.02859" lon="1.28645">
        <ele>369.28</ele>
        <time>2016-04-14T10:17:39Z</time>
      </trkpt>
      <trkpt lat="46.02837" lon="1.2865">
        <ele>365.44</ele>
        <time>2016-04-14T10:17:46Z</time>
      </trkpt>
      <trkpt lat="46.02809" lon="1.2863">
        <ele>365.44</ele>
        <time>2016-04-14T10:17:56Z</time>
      </trkpt>
      <trkpt lat="46.02797" lon="1.28635">
        <ele>365.44</ele>
        <time>2016-04-14T10:18:00Z</time>
      </trkpt>
      <trkpt lat="46.02778" lon="1.28665">
        <ele>365.44</ele>
        <time>2016-04-14T10:18:07Z</time>
      </trkpt>
      <trkpt lat="46.0277" lon="1.28698">
        <ele>368.32</ele>
        <time>2016-04-14T10:18:14Z</time>
      </trkpt>
      <trkpt lat="46.02769" lon="1.28701">
        <ele>368.32</ele>
        <time>2016-04-14T10:18:15Z</time>
      </trkpt>
      <trkpt lat="46.0275" lon="1.2874">
        <ele>370.24</ele>
        <time>2016-04-14T10:18:27Z</time>
      </trkpt>
      <trkpt lat="46.02748" lon="1.28745">
        <ele>368.8</ele>
        <time>2016-04-14T10:18:28Z</time>
      </trkpt>
      <trkpt lat="46.02732" lon="1.28771">
        <ele>366.4</ele>
        <time>2016-04-14T10:18:33Z</time>
      </trkpt>
      <trkpt lat="46.02725" lon="1.28782">
        <ele>366.4</ele>
        <time>2016-04-14T10:18:35Z</time>
      </trkpt>
      <trkpt lat="46.02689" lon="1.2881">
        <ele>365.92</ele>
        <time>2016-04-14T10:18:44Z</time>
      </trkpt>
      <trkpt lat="46.0267" lon="1.28812">
        <ele>365.92</ele>
        <time>2016-04-14T10:18:49Z</time>
      </trkpt>
      <trkpt lat="46.02652" lon="1.28845">
        <ele>365.44</ele>
        <time>2016-04-14T10:18:59Z</time>
      </trkpt>
      <trkpt lat="46.02631" lon="1.28875">
        <ele>365.44</ele>
        <time>2016-04-14T10:19:10Z</time>
      </trkpt>
      <trkpt lat="46.02607" lon="1.28884">
        <ele>365.44</ele>
        <time>2016-04-14T10:19:18Z</time>
      </trkpt>
      <trkpt lat="46.02598" lon="1.28896">
        <ele>365.44</ele>
        <time>2016-04-14T10:19:22Z</time>
      </trkpt>
      <trkpt lat="46.02591" lon="1.28913">
        <ele>365.44</ele>
        <time>2016-04-14T10:19:26Z</time>
      </trkpt>
      <trkpt lat="46.02594" lon="1.28969">
        <ele>365.44</ele>
        <time>2016-04-14T10:19:38Z</time>
      </trkpt>
      <trkpt lat="46.02611" lon="1.29002">
        <ele>366.4</ele>
        <time>2016-04-14T10:19:46Z</time>
      </trkpt>
      <trkpt lat="46.02616" lon="1.29027">
        <ele>366.88</ele>
        <time>2016-04-14T10:19:51Z</time>
      </trkpt>
      <trkpt lat="46.02614" lon="1.29045">
        <ele>367.84</ele>
        <time>2016-04-14T10:19:57Z</time>
      </trkpt>
      <trkpt lat="46.02625" lon="1.29062">
        <ele>367.84</ele>
        <time>2016-04-14T10:20:04Z</time>
      </trkpt>
      <trkpt lat="46.02657" lon="1.29103">
        <ele>367.84</ele>
        <time>2016-04-14T10:20:19Z</time>
      </trkpt>
      <trkpt lat="46.02688" lon="1.2915">
        <ele>367.84</ele>
        <time>2016-04-14T10:20:34Z</time>
      </trkpt>
      <trkpt lat="46.02691" lon="1.29157">
        <ele>367.84</ele>
        <time>2016-04-14T10:20:36Z</time>
      </trkpt>
      <trkpt lat="46.02687" lon="1.29171">
        <ele>367.84</ele>
        <time>2016-04-14T10:20:41Z</time>
      </trkpt>
      <trkpt lat="46.02681" lon="1.2918">
        <ele>368.32</ele>
        <time>2016-04-14T10:20:45Z</time>
      </trkpt>
      <trkpt lat="46.02664" lon="1.29168">
        <ele>369.28</ele>
        <time>2016-04-14T10:20:55Z</time>
      </trkpt>
      <trkpt lat="46.02642" lon="1.29172">
        <ele>371.21</ele>
        <time>2016-04-14T10:21:05Z</time>
      </trkpt>
      <trkpt lat="46.02642" lon="1.29187">
        <ele>371.69</ele>
        <time>2016-04-14T10:21:10Z</time>
      </trkpt>
      <trkpt lat="46.02672" lon="1.29247">
        <ele>371.69</ele>
        <time>2016-04-14T10:21:28Z</time>
      </trkpt>
      <trkpt lat="46.02679" lon="1.29268">
        <ele>372.65</ele>
        <time>2016-04-14T10:21:34Z</time>
      </trkpt>
      <trkpt lat="46.02677" lon="1.2927">
        <ele>372.65</ele>
        <time>2016-04-14T10:21:35Z</time>
      </trkpt>
      <trkpt lat="46.02676" lon="1.29272">
        <ele>373.13</ele>
        <time>2016-04-14T10:21:36Z</time>
      </trkpt>
      <trkpt lat="46.02674" lon="1.29273">
        <ele>373.13</ele>
        <time>2016-04-14T10:21:37Z</time>
      </trkpt>
      <trkpt lat="46.02671" lon="1.29273">
        <ele>373.13</ele>
        <time>2016-04-14T10:21:38Z</time>
      </trkpt>
      <trkpt lat="46.02669" lon="1.29273">
        <ele>373.61</ele>
        <time>2016-04-14T10:21:39Z</time>
      </trkpt>
      <trkpt lat="46.02666" lon="1.29273">
        <ele>373.61</ele>
        <time>2016-04-14T10:21:40Z</time>
      </trkpt>
      <trkpt lat="46.02664" lon="1.29273">
        <ele>373.61</ele>
        <time>2016-04-14T10:21:41Z</time>
      </trkpt>
      <trkpt lat="46.02662" lon="1.29272">
        <ele>374.09</ele>
        <time>2016-04-14T10:21:42Z</time>
      </trkpt>
      <trkpt lat="46.02659" lon="1.29271">
        <ele>374.09</ele>
        <time>2016-04-14T10:21:43Z</time>
      </trkpt>
      <trkpt lat="46.02657" lon="1.2927">
        <ele>374.09</ele>
        <time>2016-04-14T10:21:44Z</time>
      </trkpt>
      <trkpt lat="46.02626" lon="1.29265">
        <ele>376.49</ele>
        <time>2016-04-14T10:21:58Z</time>
      </trkpt>
      <trkpt lat="46.02602" lon="1.29273">
        <ele>377.45</ele>
        <time>2016-04-14T10:22:10Z</time>
      </trkpt>
      <trkpt lat="46.02603" lon="1.29275">
        <ele>377.45</ele>
        <time>2016-04-14T10:22:11Z</time>
      </trkpt>
      <trkpt lat="46.02603" lon="1.29277">
        <ele>377.45</ele>
        <time>2016-04-14T10:22:12Z</time>
      </trkpt>
      <trkpt lat="46.02604" lon="1.29279">
        <ele>377.45</ele>
        <time>2016-04-14T10:22:13Z</time>
      </trkpt>
      <trkpt lat="46.02605" lon="1.29282">
        <ele>376.49</ele>
        <time>2016-04-14T10:22:15Z</time>
      </trkpt>
      <trkpt lat="46.02607" lon="1.29289">
        <ele>374.09</ele>
        <time>2016-04-14T10:22:19Z</time>
      </trkpt>
      <trkpt lat="46.02607" lon="1.29293">
        <ele>372.65</ele>
        <time>2016-04-14T10:22:20Z</time>
      </trkpt>
      <trkpt lat="46.02598" lon="1.29316">
        <ele>370.24</ele>
        <time>2016-04-14T10:22:24Z</time>
      </trkpt>
      <trkpt lat="46.02593" lon="1.29321">
        <ele>370.24</ele>
        <time>2016-04-14T10:22:25Z</time>
      </trkpt>
      <trkpt lat="46.02588" lon="1.29324">
        <ele>370.24</ele>
        <time>2016-04-14T10:22:26Z</time>
      </trkpt>
      <trkpt lat="46.02583" lon="1.29327">
        <ele>370.24</ele>
        <time>2016-04-14T10:22:27Z</time>
      </trkpt>
      <trkpt lat="46.02577" lon="1.2933">
        <ele>369.28</ele>
        <time>2016-04-14T10:22:28Z</time>
      </trkpt>
      <trkpt lat="46.02507" lon="1.29351">
        <ele>367.36</ele>
        <time>2016-04-14T10:22:42Z</time>
      </trkpt>
      <trkpt lat="46.02477" lon="1.29356">
        <ele>368.8</ele>
        <time>2016-04-14T10:22:49Z</time>
      </trkpt>
      <trkpt lat="46.02433" lon="1.29363">
        <ele>371.21</ele>
        <time>2016-04-14T10:23:03Z</time>
      </trkpt>
      <trkpt lat="46.02399" lon="1.29384">
        <ele>371.69</ele>
        <time>2016-04-14T10:23:16Z</time>
      </trkpt>
      <trkpt lat="46.02393" lon="1.29391">
        <ele>370.73</ele>
        <time>2016-04-14T10:23:28Z</time>
      </trkpt>
      <trkpt lat="46.02382" lon="1.2941">
        <ele>370.24</ele>
        <time>2016-04-14T10:23:41Z</time>
      </trkpt>
      <trkpt lat="46.02381" lon="1.29412">
        <ele>369.28</ele>
        <time>2016-04-14T10:23:52Z</time>
      </trkpt>
      <trkpt lat="46.02367" lon="1.29427">
        <ele>368.8</ele>
        <time>2016-04-14T10:24:04Z</time>
      </trkpt>
      <trkpt lat="46.0236" lon="1.2943">
        <ele>368.8</ele>
        <time>2016-04-14T10:24:07Z</time>
      </trkpt>
      <trkpt lat="46.02344" lon="1.29461">
        <ele>365.92</ele>
        <time>2016-04-14T10:24:15Z</time>
      </trkpt>
      <trkpt lat="46.02321" lon="1.29518">
        <ele>365.44</ele>
        <time>2016-04-14T10:24:27Z</time>
      </trkpt>
      <trkpt lat="46.02313" lon="1.29554">
        <ele>366.4</ele>
        <time>2016-04-14T10:24:37Z</time>
      </trkpt>
      <trkpt lat="46.02313" lon="1.29558">
        <ele>366.4</ele>
        <time>2016-04-14T10:24:38Z</time>
      </trkpt>
      <trkpt lat="46.02314" lon="1.29562">
        <ele>366.4</ele>
        <time>2016-04-14T10:24:39Z</time>
      </trkpt>
      <trkpt lat="46.02314" lon="1.29566">
        <ele>366.88</ele>
        <time>2016-04-14T10:24:40Z</time>
      </trkpt>
      <trkpt lat="46.02314" lon="1.2957">
        <ele>366.88</ele>
        <time>2016-04-14T10:24:41Z</time>
      </trkpt>
      <trkpt lat="46.02314" lon="1.29574">
        <ele>367.84</ele>
        <time>2016-04-14T10:24:42Z</time>
      </trkpt>
      <trkpt lat="46.02314" lon="1.29577">
        <ele>367.84</ele>
        <time>2016-04-14T10:24:43Z</time>
      </trkpt>
      <trkpt lat="46.02314" lon="1.29581">
        <ele>368.32</ele>
        <time>2016-04-14T10:24:44Z</time>
      </trkpt>
      <trkpt lat="46.02314" lon="1.29585">
        <ele>368.32</ele>
        <time>2016-04-14T10:24:45Z</time>
      </trkpt>
      <trkpt lat="46.02314" lon="1.29617">
        <ele>371.69</ele>
        <time>2016-04-14T10:24:58Z</time>
      </trkpt>
      <trkpt lat="46.02318" lon="1.29638">
        <ele>375.05</ele>
        <time>2016-04-14T10:25:10Z</time>
      </trkpt>
      <trkpt lat="46.02325" lon="1.2967">
        <ele>376.97</ele>
        <time>2016-04-14T10:25:25Z</time>
      </trkpt>
      <trkpt lat="46.02328" lon="1.29695">
        <ele>377.94</ele>
        <time>2016-04-14T10:25:35Z</time>
      </trkpt>
      <trkpt lat="46.02329" lon="1.29698">
        <ele>377.94</ele>
        <time>2016-04-14T10:25:36Z</time>
      </trkpt>
      <trkpt lat="46.0233" lon="1.29701">
        <ele>378.42</ele>
        <time>2016-04-14T10:25:37Z</time>
      </trkpt>
      <trkpt lat="46.0233" lon="1.29704">
        <ele>378.42</ele>
        <time>2016-04-14T10:25:38Z</time>
      </trkpt>
      <trkpt lat="46.0233" lon="1.29707">
        <ele>378.42</ele>
        <time>2016-04-14T10:25:39Z</time>
      </trkpt>
      <trkpt lat="46.02331" lon="1.2971">
        <ele>378.42</ele>
        <time>2016-04-14T10:25:40Z</time>
      </trkpt>
      <trkpt lat="46.02328" lon="1.2975">
        <ele>379.38</ele>
        <time>2016-04-14T10:25:54Z</time>
      </trkpt>
      <trkpt lat="46.02323" lon="1.29793">
        <ele>381.78</ele>
        <time>2016-04-14T10:26:09Z</time>
      </trkpt>
      <trkpt lat="46.02318" lon="1.29836">
        <ele>382.26</ele>
        <time>2016-04-14T10:26:22Z</time>
      </trkpt>
      <trkpt lat="46.02303" lon="1.29903">
        <ele>382.26</ele>
        <time>2016-04-14T10:26:38Z</time>
      </trkpt>
      <trkpt lat="46.02295" lon="1.29934">
        <ele>380.34</ele>
        <time>2016-04-14T10:26:43Z</time>
      </trkpt>
      <trkpt lat="46.02296" lon="1.29941">
        <ele>380.34</ele>
        <time>2016-04-14T10:26:44Z</time>
      </trkpt>
      <trkpt lat="46.02299" lon="1.30016">
        <ele>380.34</ele>
        <time>2016-04-14T10:26:57Z</time>
      </trkpt>
      <trkpt lat="46.02298" lon="1.30022">
        <ele>380.34</ele>
        <time>2016-04-14T10:26:58Z</time>
      </trkpt>
      <trkpt lat="46.02296" lon="1.30027">
        <ele>380.34</ele>
        <time>2016-04-14T10:26:59Z</time>
      </trkpt>
      <trkpt lat="46.02295" lon="1.30032">
        <ele>380.34</ele>
        <time>2016-04-14T10:27:00Z</time>
      </trkpt>
      <trkpt lat="46.02294" lon="1.30037">
        <ele>380.34</ele>
        <time>2016-04-14T10:27:01Z</time>
      </trkpt>
      <trkpt lat="46.02275" lon="1.30067">
        <ele>381.3</ele>
        <time>2016-04-14T10:27:12Z</time>
      </trkpt>
      <trkpt lat="46.02269" lon="1.30078">
        <ele>381.78</ele>
        <time>2016-04-14T10:27:19Z</time>
      </trkpt>
      <trkpt lat="46.02269" lon="1.30081">
        <ele>381.78</ele>
        <time>2016-04-14T10:27:20Z</time>
      </trkpt>
      <trkpt lat="46.02269" lon="1.30083">
        <ele>382.26</ele>
        <time>2016-04-14T10:27:21Z</time>
      </trkpt>
      <trkpt lat="46.02268" lon="1.30086">
        <ele>382.26</ele>
        <time>2016-04-14T10:27:22Z</time>
      </trkpt>
      <trkpt lat="46.02268" lon="1.30089">
        <ele>382.26</ele>
        <time>2016-04-14T10:27:23Z</time>
      </trkpt>
      <trkpt lat="46.02267" lon="1.30092">
        <ele>382.26</ele>
        <time>2016-04-14T10:27:24Z</time>
      </trkpt>
      <trkpt lat="46.02267" lon="1.30095">
        <ele>382.26</ele>
        <time>2016-04-14T10:27:25Z</time>
      </trkpt>
      <trkpt lat="46.02267" lon="1.30098">
        <ele>383.22</ele>
        <time>2016-04-14T10:27:26Z</time>
      </trkpt>
      <trkpt lat="46.02245" lon="1.30138">
        <ele>384.18</ele>
        <time>2016-04-14T10:27:39Z</time>
      </trkpt>
      <trkpt lat="46.0221" lon="1.30145">
        <ele>387.07</ele>
        <time>2016-04-14T10:27:52Z</time>
      </trkpt>
      <trkpt lat="46.02171" lon="1.30146">
        <ele>388.03</ele>
        <time>2016-04-14T10:28:06Z</time>
      </trkpt>
      <trkpt lat="46.02147" lon="1.30147">
        <ele>386.11</ele>
        <time>2016-04-14T10:28:12Z</time>
      </trkpt>
      <trkpt lat="46.02143" lon="1.30146">
        <ele>386.11</ele>
        <time>2016-04-14T10:28:13Z</time>
      </trkpt>
      <trkpt lat="46.02118" lon="1.30142">
        <ele>388.03</ele>
        <time>2016-04-14T10:28:24Z</time>
      </trkpt>
      <trkpt lat="46.02107" lon="1.30143">
        <ele>390.91</ele>
        <time>2016-04-14T10:28:33Z</time>
      </trkpt>
      <trkpt lat="46.021" lon="1.30141">
        <ele>390.91</ele>
        <time>2016-04-14T10:28:39Z</time>
      </trkpt>
      <trkpt lat="46.02099" lon="1.3014">
        <ele>390.91</ele>
        <time>2016-04-14T10:28:40Z</time>
      </trkpt>
      <trkpt lat="46.02098" lon="1.30139">
        <ele>390.91</ele>
        <time>2016-04-14T10:28:41Z</time>
      </trkpt>
      <trkpt lat="46.02091" lon="1.30129">
        <ele>391.87</ele>
        <time>2016-04-14T10:28:49Z</time>
      </trkpt>
      <trkpt lat="46.0209" lon="1.30127">
        <ele>392.36</ele>
        <time>2016-04-14T10:28:50Z</time>
      </trkpt>
      <trkpt lat="46.02089" lon="1.30125">
        <ele>392.36</ele>
        <time>2016-04-14T10:28:51Z</time>
      </trkpt>
      <trkpt lat="46.02075" lon="1.30099">
        <ele>395.72</ele>
        <time>2016-04-14T10:29:05Z</time>
      </trkpt>
      <trkpt lat="46.02054" lon="1.30086">
        <ele>397.64</ele>
        <time>2016-04-14T10:29:20Z</time>
      </trkpt>
      <trkpt lat="46.02048" lon="1.30082">
        <ele>398.6</ele>
        <time>2016-04-14T10:29:25Z</time>
      </trkpt>
      <trkpt lat="46.02031" lon="1.30061">
        <ele>401.01</ele>
        <time>2016-04-14T10:29:41Z</time>
      </trkpt>
      <trkpt lat="46.02015" lon="1.30029">
        <ele>401.01</ele>
        <time>2016-04-14T10:29:56Z</time>
      </trkpt>
      <trkpt lat="46.02009" lon="1.30009">
        <ele>402.45</ele>
        <time>2016-04-14T10:30:05Z</time>
      </trkpt>
      <trkpt lat="46.02007" lon="1.29994">
        <ele>402.93</ele>
        <time>2016-04-14T10:30:11Z</time>
      </trkpt>
      <trkpt lat="46.02006" lon="1.29985">
        <ele>403.89</ele>
        <time>2016-04-14T10:30:15Z</time>
      </trkpt>
      <trkpt lat="46.02002" lon="1.29975">
        <ele>404.37</ele>
        <time>2016-04-14T10:30:20Z</time>
      </trkpt>
      <trkpt lat="46.01998" lon="1.29963">
        <ele>405.81</ele>
        <time>2016-04-14T10:30:27Z</time>
      </trkpt>
      <trkpt lat="46.01995" lon="1.29949">
        <ele>407.26</ele>
        <time>2016-04-14T10:30:36Z</time>
      </trkpt>
      <trkpt lat="46.0201" lon="1.2993">
        <ele>409.18</ele>
        <time>2016-04-14T10:30:53Z</time>
      </trkpt>
      <trkpt lat="46.02012" lon="1.29928">
        <ele>409.66</ele>
        <time>2016-04-14T10:30:55Z</time>
      </trkpt>
      <trkpt lat="46.02016" lon="1.29913">
        <ele>412.06</ele>
        <time>2016-04-14T10:31:06Z</time>
      </trkpt>
      <trkpt lat="46.02012" lon="1.29884">
        <ele>413.98</ele>
        <time>2016-04-14T10:31:22Z</time>
      </trkpt>
      <trkpt lat="46.02011" lon="1.29883">
        <ele>413.98</ele>
        <time>2016-04-14T10:31:23Z</time>
      </trkpt>
      <trkpt lat="46.02003" lon="1.2986">
        <ele>416.39</ele>
        <time>2016-04-14T10:31:39Z</time>
      </trkpt>
      <trkpt lat="46.02" lon="1.29854">
        <ele>416.87</ele>
        <time>2016-04-14T10:31:44Z</time>
      </trkpt>
      <trkpt lat="46.01987" lon="1.29826">
        <ele>418.31</ele>
        <time>2016-04-14T10:32:01Z</time>
      </trkpt>
      <trkpt lat="46.01979" lon="1.29798">
        <ele>420.23</ele>
        <time>2016-04-14T10:32:14Z</time>
      </trkpt>
      <trkpt lat="46.01974" lon="1.29781">
        <ele>421.68</ele>
        <time>2016-04-14T10:32:26Z</time>
      </trkpt>
      <trkpt lat="46.01961" lon="1.29768">
        <ele>424.08</ele>
        <time>2016-04-14T10:32:39Z</time>
      </trkpt>
      <trkpt lat="46.01945" lon="1.29754">
        <ele>426.96</ele>
        <time>2016-04-14T10:32:54Z</time>
      </trkpt>
      <trkpt lat="46.01939" lon="1.29754">
        <ele>427.44</ele>
        <time>2016-04-14T10:33:00Z</time>
      </trkpt>
      <trkpt lat="46.01929" lon="1.2977">
        <ele>429.37</ele>
        <time>2016-04-14T10:33:15Z</time>
      </trkpt>
      <trkpt lat="46.01929" lon="1.29772">
        <ele>429.85</ele>
        <time>2016-04-14T10:33:16Z</time>
      </trkpt>
      <trkpt lat="46.01922" lon="1.2979">
        <ele>430.81</ele>
        <time>2016-04-14T10:33:27Z</time>
      </trkpt>
      <trkpt lat="46.01908" lon="1.29829">
        <ele>432.73</ele>
        <time>2016-04-14T10:33:43Z</time>
      </trkpt>
      <trkpt lat="46.01891" lon="1.29864">
        <ele>433.21</ele>
        <time>2016-04-14T10:33:57Z</time>
      </trkpt>
      <trkpt lat="46.01873" lon="1.29883">
        <ele>434.17</ele>
        <time>2016-04-14T10:34:08Z</time>
      </trkpt>
      <trkpt lat="46.01849" lon="1.29919">
        <ele>434.65</ele>
        <time>2016-04-14T10:34:22Z</time>
      </trkpt>
      <trkpt lat="46.01845" lon="1.2993">
        <ele>432.73</ele>
        <time>2016-04-14T10:34:24Z</time>
      </trkpt>
      <trkpt lat="46.01839" lon="1.29964">
        <ele>430.81</ele>
        <time>2016-04-14T10:34:29Z</time>
      </trkpt>
      <trkpt lat="46.01827" lon="1.30026">
        <ele>431.29</ele>
        <time>2016-04-14T10:34:41Z</time>
      </trkpt>
      <trkpt lat="46.01804" lon="1.30059">
        <ele>431.77</ele>
        <time>2016-04-14T10:34:54Z</time>
      </trkpt>
      <trkpt lat="46.01794" lon="1.30097">
        <ele>434.17</ele>
        <time>2016-04-14T10:35:07Z</time>
      </trkpt>
      <trkpt lat="46.01796" lon="1.30103">
        <ele>435.13</ele>
        <time>2016-04-14T10:35:09Z</time>
      </trkpt>
      <trkpt lat="46.01803" lon="1.3011">
        <ele>434.65</ele>
        <time>2016-04-14T10:35:13Z</time>
      </trkpt>
      <trkpt lat="46.01831" lon="1.3015">
        <ele>433.69</ele>
        <time>2016-04-14T10:35:28Z</time>
      </trkpt>
      <trkpt lat="46.01854" lon="1.30188">
        <ele>430.33</ele>
        <time>2016-04-14T10:35:38Z</time>
      </trkpt>
      <trkpt lat="46.01855" lon="1.30193">
        <ele>430.33</ele>
        <time>2016-04-14T10:35:39Z</time>
      </trkpt>
      <trkpt lat="46.0184" lon="1.30203">
        <ele>427.92</ele>
        <time>2016-04-14T10:35:47Z</time>
      </trkpt>
      <trkpt lat="46.01828" lon="1.30202">
        <ele>429.85</ele>
        <time>2016-04-14T10:35:52Z</time>
      </trkpt>
      <trkpt lat="46.01803" lon="1.30221">
        <ele>430.33</ele>
        <time>2016-04-14T10:36:06Z</time>
      </trkpt>
      <trkpt lat="46.01802" lon="1.30223">
        <ele>431.29</ele>
        <time>2016-04-14T10:36:07Z</time>
      </trkpt>
      <trkpt lat="46.018" lon="1.3023">
        <ele>431.77</ele>
        <time>2016-04-14T10:36:11Z</time>
      </trkpt>
      <trkpt lat="46.01795" lon="1.30251">
        <ele>431.29</ele>
        <time>2016-04-14T10:36:22Z</time>
      </trkpt>
      <trkpt lat="46.01793" lon="1.30253">
        <ele>430.33</ele>
        <time>2016-04-14T10:36:24Z</time>
      </trkpt>
      <trkpt lat="46.01781" lon="1.30247">
        <ele>433.21</ele>
        <time>2016-04-14T10:36:35Z</time>
      </trkpt>
      <trkpt lat="46.01772" lon="1.30244">
        <ele>433.69</ele>
        <time>2016-04-14T10:36:41Z</time>
      </trkpt>
      <trkpt lat="46.01745" lon="1.30245">
        <ele>436.58</ele>
        <time>2016-04-14T10:36:58Z</time>
      </trkpt>
      <trkpt lat="46.01727" lon="1.30255">
        <ele>438.02</ele>
        <time>2016-04-14T10:37:11Z</time>
      </trkpt>
      <trkpt lat="46.01707" lon="1.30267">
        <ele>438.98</ele>
        <time>2016-04-14T10:37:24Z</time>
      </trkpt>
      <trkpt lat="46.01687" lon="1.30257">
        <ele>441.86</ele>
        <time>2016-04-14T10:37:39Z</time>
      </trkpt>
      <trkpt lat="46.01671" lon="1.30251">
        <ele>442.82</ele>
        <time>2016-04-14T10:37:48Z</time>
      </trkpt>
      <trkpt lat="46.01642" lon="1.30276">
        <ele>445.71</ele>
        <time>2016-04-14T10:38:07Z</time>
      </trkpt>
      <trkpt lat="46.01628" lon="1.30296">
        <ele>446.67</ele>
        <time>2016-04-14T10:38:21Z</time>
      </trkpt>
      <trkpt lat="46.01623" lon="1.30303">
        <ele>447.63</ele>
        <time>2016-04-14T10:38:25Z</time>
      </trkpt>
      <trkpt lat="46.01601" lon="1.30322">
        <ele>449.07</ele>
        <time>2016-04-14T10:38:41Z</time>
      </trkpt>
      <trkpt lat="46.01584" lon="1.30336">
        <ele>450.52</ele>
        <time>2016-04-14T10:38:55Z</time>
      </trkpt>
      <trkpt lat="46.01566" lon="1.30351">
        <ele>452.44</ele>
        <time>2016-04-14T10:39:08Z</time>
      </trkpt>
      <trkpt lat="46.01562" lon="1.30349">
        <ele>453.4</ele>
        <time>2016-04-14T10:39:12Z</time>
      </trkpt>
      <trkpt lat="46.01553" lon="1.3034">
        <ele>453.88</ele>
        <time>2016-04-14T10:39:19Z</time>
      </trkpt>
      <trkpt lat="46.01532" lon="1.30319">
        <ele>454.36</ele>
        <time>2016-04-14T10:39:32Z</time>
      </trkpt>
      <trkpt lat="46.01505" lon="1.30281">
        <ele>451.96</ele>
        <time>2016-04-14T10:39:45Z</time>
      </trkpt>
      <trkpt lat="46.01491" lon="1.30291">
        <ele>452.44</ele>
        <time>2016-04-14T10:39:52Z</time>
      </trkpt>
      <trkpt lat="46.01474" lon="1.30295">
        <ele>453.4</ele>
        <time>2016-04-14T10:39:58Z</time>
      </trkpt>
      <trkpt lat="46.01463" lon="1.30277">
        <ele>451.96</ele>
        <time>2016-04-14T10:40:03Z</time>
      </trkpt>
      <trkpt lat="46.0146" lon="1.30272">
        <ele>451</ele>
        <time>2016-04-14T10:40:04Z</time>
      </trkpt>
      <trkpt lat="46.01431" lon="1.30252">
        <ele>449.55</ele>
        <time>2016-04-14T10:40:11Z</time>
      </trkpt>
      <trkpt lat="46.01407" lon="1.30256">
        <ele>449.07</ele>
        <time>2016-04-14T10:40:17Z</time>
      </trkpt>
      <trkpt lat="46.01392" lon="1.30259">
        <ele>449.07</ele>
        <time>2016-04-14T10:40:22Z</time>
      </trkpt>
      <trkpt lat="46.01388" lon="1.30248">
        <ele>449.07</ele>
        <time>2016-04-14T10:40:27Z</time>
      </trkpt>
      <trkpt lat="46.01387" lon="1.30245">
        <ele>449.07</ele>
        <time>2016-04-14T10:40:28Z</time>
      </trkpt>
      <trkpt lat="46.01384" lon="1.30243">
        <ele>449.07</ele>
        <time>2016-04-14T10:40:29Z</time>
      </trkpt>
      <trkpt lat="46.01381" lon="1.30242">
        <ele>449.07</ele>
        <time>2016-04-14T10:40:30Z</time>
      </trkpt>
      <trkpt lat="46.01378" lon="1.30242">
        <ele>449.07</ele>
        <time>2016-04-14T10:40:31Z</time>
      </trkpt>
      <trkpt lat="46.01355" lon="1.30241">
        <ele>449.07</ele>
        <time>2016-04-14T10:40:43Z</time>
      </trkpt>
      <trkpt lat="46.01354" lon="1.30242">
        <ele>448.59</ele>
        <time>2016-04-14T10:40:44Z</time>
      </trkpt>
      <trkpt lat="46.01354" lon="1.30244">
        <ele>448.59</ele>
        <time>2016-04-14T10:40:45Z</time>
      </trkpt>
      <trkpt lat="46.01355" lon="1.30244">
        <ele>448.59</ele>
        <time>2016-04-14T10:40:46Z</time>
      </trkpt>
      <trkpt lat="46.01357" lon="1.30244">
        <ele>448.59</ele>
        <time>2016-04-14T10:40:47Z</time>
      </trkpt>
      <trkpt lat="46.01359" lon="1.30243">
        <ele>448.59</ele>
        <time>2016-04-14T10:40:48Z</time>
      </trkpt>
      <trkpt lat="46.01368" lon="1.30242">
        <ele>448.59</ele>
        <time>2016-04-14T10:40:53Z</time>
      </trkpt>
      <trkpt lat="46.0137" lon="1.30243">
        <ele>448.59</ele>
        <time>2016-04-14T10:40:54Z</time>
      </trkpt>
      <trkpt lat="46.01372" lon="1.30244">
        <ele>448.59</ele>
        <time>2016-04-14T10:40:55Z</time>
      </trkpt>
      <trkpt lat="46.01373" lon="1.30246">
        <ele>448.59</ele>
        <time>2016-04-14T10:40:56Z</time>
      </trkpt>
      <trkpt lat="46.01375" lon="1.30249">
        <ele>448.59</ele>
        <time>2016-04-14T10:40:57Z</time>
      </trkpt>
      <trkpt lat="46.01376" lon="1.30251">
        <ele>448.59</ele>
        <time>2016-04-14T10:40:58Z</time>
      </trkpt>
      <trkpt lat="46.01378" lon="1.30261">
        <ele>450.03</ele>
        <time>2016-04-14T10:41:03Z</time>
      </trkpt>
      <trkpt lat="46.01378" lon="1.30263">
        <ele>450.03</ele>
        <time>2016-04-14T10:41:04Z</time>
      </trkpt>
      <trkpt lat="46.01368" lon="1.30283">
        <ele>448.11</ele>
        <time>2016-04-14T10:41:14Z</time>
      </trkpt>
      <trkpt lat="46.0135" lon="1.30312">
        <ele>445.23</ele>
        <time>2016-04-14T10:41:21Z</time>
      </trkpt>
      <trkpt lat="46.01349" lon="1.30319">
        <ele>445.23</ele>
        <time>2016-04-14T10:41:22Z</time>
      </trkpt>
      <trkpt lat="46.0135" lon="1.30325">
        <ele>445.23</ele>
        <time>2016-04-14T10:41:23Z</time>
      </trkpt>
      <trkpt lat="46.01351" lon="1.30332">
        <ele>444.75</ele>
        <time>2016-04-14T10:41:24Z</time>
      </trkpt>
      <trkpt lat="46.01354" lon="1.30338">
        <ele>444.27</ele>
        <time>2016-04-14T10:41:25Z</time>
      </trkpt>
      <trkpt lat="46.01355" lon="1.30346">
        <ele>444.27</ele>
        <time>2016-04-14T10:41:26Z</time>
      </trkpt>
      <trkpt lat="46.01357" lon="1.30353">
        <ele>443.31</ele>
        <time>2016-04-14T10:41:27Z</time>
      </trkpt>
      <trkpt lat="46.01365" lon="1.30392">
        <ele>439.94</ele>
        <time>2016-04-14T10:41:32Z</time>
      </trkpt>
      <trkpt lat="46.01368" lon="1.30408">
        <ele>438.98</ele>
        <time>2016-04-14T10:41:34Z</time>
      </trkpt>
      <trkpt lat="46.01367" lon="1.30416">
        <ele>438.5</ele>
        <time>2016-04-14T10:41:35Z</time>
      </trkpt>
      <trkpt lat="46.01364" lon="1.30437">
        <ele>437.06</ele>
        <time>2016-04-14T10:41:38Z</time>
      </trkpt>
      <trkpt lat="46.01361" lon="1.30443">
        <ele>435.61</ele>
        <time>2016-04-14T10:41:39Z</time>
      </trkpt>
      <trkpt lat="46.01353" lon="1.30454">
        <ele>434.65</ele>
        <time>2016-04-14T10:41:41Z</time>
      </trkpt>
      <trkpt lat="46.01345" lon="1.30462">
        <ele>434.17</ele>
        <time>2016-04-14T10:41:43Z</time>
      </trkpt>
      <trkpt lat="46.0134" lon="1.30464">
        <ele>434.17</ele>
        <time>2016-04-14T10:41:44Z</time>
      </trkpt>
      <trkpt lat="46.0133" lon="1.30468">
        <ele>434.17</ele>
        <time>2016-04-14T10:41:46Z</time>
      </trkpt>
      <trkpt lat="46.01322" lon="1.30473">
        <ele>434.17</ele>
        <time>2016-04-14T10:41:47Z</time>
      </trkpt>
      <trkpt lat="46.01316" lon="1.30476">
        <ele>434.17</ele>
        <time>2016-04-14T10:41:48Z</time>
      </trkpt>
      <trkpt lat="46.01311" lon="1.30479">
        <ele>434.17</ele>
        <time>2016-04-14T10:41:49Z</time>
      </trkpt>
      <trkpt lat="46.01307" lon="1.30484">
        <ele>434.17</ele>
        <time>2016-04-14T10:41:50Z</time>
      </trkpt>
      <trkpt lat="46.01304" lon="1.30486">
        <ele>434.17</ele>
        <time>2016-04-14T10:41:51Z</time>
      </trkpt>
      <trkpt lat="46.013" lon="1.30487">
        <ele>434.17</ele>
        <time>2016-04-14T10:41:52Z</time>
      </trkpt>
      <trkpt lat="46.01297" lon="1.30488">
        <ele>434.17</ele>
        <time>2016-04-14T10:41:53Z</time>
      </trkpt>
      <trkpt lat="46.0128" lon="1.30484">
        <ele>430.81</ele>
        <time>2016-04-14T10:41:59Z</time>
      </trkpt>
      <trkpt lat="46.01272" lon="1.30483">
        <ele>430.33</ele>
        <time>2016-04-14T10:42:01Z</time>
      </trkpt>
      <trkpt lat="46.01267" lon="1.30482">
        <ele>429.85</ele>
        <time>2016-04-14T10:42:02Z</time>
      </trkpt>
      <trkpt lat="46.01253" lon="1.30481">
        <ele>429.85</ele>
        <time>2016-04-14T10:42:06Z</time>
      </trkpt>
      <trkpt lat="46.01251" lon="1.30482">
        <ele>429.85</ele>
        <time>2016-04-14T10:42:07Z</time>
      </trkpt>
      <trkpt lat="46.01248" lon="1.30483">
        <ele>429.85</ele>
        <time>2016-04-14T10:42:08Z</time>
      </trkpt>
      <trkpt lat="46.01245" lon="1.30484">
        <ele>429.85</ele>
        <time>2016-04-14T10:42:09Z</time>
      </trkpt>
      <trkpt lat="46.01241" lon="1.30485">
        <ele>429.85</ele>
        <time>2016-04-14T10:42:10Z</time>
      </trkpt>
      <trkpt lat="46.01238" lon="1.30486">
        <ele>429.85</ele>
        <time>2016-04-14T10:42:11Z</time>
      </trkpt>
      <trkpt lat="46.01234" lon="1.30488">
        <ele>429.85</ele>
        <time>2016-04-14T10:42:12Z</time>
      </trkpt>
      <trkpt lat="46.01231" lon="1.3049">
        <ele>429.85</ele>
        <time>2016-04-14T10:42:13Z</time>
      </trkpt>
      <trkpt lat="46.01228" lon="1.30493">
        <ele>429.85</ele>
        <time>2016-04-14T10:42:14Z</time>
      </trkpt>
      <trkpt lat="46.01225" lon="1.30496">
        <ele>429.85</ele>
        <time>2016-04-14T10:42:15Z</time>
      </trkpt>
      <trkpt lat="46.01223" lon="1.30499">
        <ele>429.85</ele>
        <time>2016-04-14T10:42:16Z</time>
      </trkpt>
      <trkpt lat="46.0122" lon="1.30503">
        <ele>429.37</ele>
        <time>2016-04-14T10:42:17Z</time>
      </trkpt>
      <trkpt lat="46.01218" lon="1.30509">
        <ele>428.89</ele>
        <time>2016-04-14T10:42:18Z</time>
      </trkpt>
      <trkpt lat="46.01214" lon="1.30514">
        <ele>427.92</ele>
        <time>2016-04-14T10:42:19Z</time>
      </trkpt>
      <trkpt lat="46.01198" lon="1.30541">
        <ele>424.08</ele>
        <time>2016-04-14T10:42:24Z</time>
      </trkpt>
      <trkpt lat="46.01186" lon="1.30554">
        <ele>421.68</ele>
        <time>2016-04-14T10:42:27Z</time>
      </trkpt>
      <trkpt lat="46.01181" lon="1.30555">
        <ele>420.71</ele>
        <time>2016-04-14T10:42:28Z</time>
      </trkpt>
      <trkpt lat="46.01176" lon="1.30555">
        <ele>420.71</ele>
        <time>2016-04-14T10:42:29Z</time>
      </trkpt>
      <trkpt lat="46.01171" lon="1.30556">
        <ele>420.71</ele>
        <time>2016-04-14T10:42:30Z</time>
      </trkpt>
      <trkpt lat="46.01166" lon="1.30557">
        <ele>420.71</ele>
        <time>2016-04-14T10:42:31Z</time>
      </trkpt>
      <trkpt lat="46.01162" lon="1.30559">
        <ele>420.71</ele>
        <time>2016-04-14T10:42:32Z</time>
      </trkpt>
      <trkpt lat="46.01158" lon="1.30562">
        <ele>420.23</ele>
        <time>2016-04-14T10:42:33Z</time>
      </trkpt>
      <trkpt lat="46.01154" lon="1.30565">
        <ele>419.75</ele>
        <time>2016-04-14T10:42:34Z</time>
      </trkpt>
      <trkpt lat="46.01146" lon="1.30572">
        <ele>419.75</ele>
        <time>2016-04-14T10:42:36Z</time>
      </trkpt>
      <trkpt lat="46.01142" lon="1.30576">
        <ele>419.27</ele>
        <time>2016-04-14T10:42:37Z</time>
      </trkpt>
      <trkpt lat="46.01119" lon="1.30606">
        <ele>420.71</ele>
        <time>2016-04-14T10:42:44Z</time>
      </trkpt>
      <trkpt lat="46.01091" lon="1.30646">
        <ele>420.71</ele>
        <time>2016-04-14T10:42:56Z</time>
      </trkpt>
      <trkpt lat="46.01045" lon="1.30679">
        <ele>422.16</ele>
        <time>2016-04-14T10:43:12Z</time>
      </trkpt>
      <trkpt lat="46.01007" lon="1.30702">
        <ele>423.6</ele>
        <time>2016-04-14T10:43:26Z</time>
      </trkpt>
      <trkpt lat="46.00978" lon="1.30725">
        <ele>425.04</ele>
        <time>2016-04-14T10:43:38Z</time>
      </trkpt>
      <trkpt lat="46.00958" lon="1.30748">
        <ele>427.44</ele>
        <time>2016-04-14T10:43:50Z</time>
      </trkpt>
      <trkpt lat="46.00942" lon="1.30768">
        <ele>428.4</ele>
        <time>2016-04-14T10:44:00Z</time>
      </trkpt>
      <trkpt lat="46.00925" lon="1.30792">
        <ele>428.4</ele>
        <time>2016-04-14T10:44:10Z</time>
      </trkpt>
      <trkpt lat="46.00923" lon="1.30794">
        <ele>428.4</ele>
        <time>2016-04-14T10:44:11Z</time>
      </trkpt>
      <trkpt lat="46.0092" lon="1.30795">
        <ele>428.4</ele>
        <time>2016-04-14T10:44:12Z</time>
      </trkpt>
      <trkpt lat="46.00918" lon="1.30797">
        <ele>428.4</ele>
        <time>2016-04-14T10:44:13Z</time>
      </trkpt>
      <trkpt lat="46.00916" lon="1.30799">
        <ele>428.4</ele>
        <time>2016-04-14T10:44:14Z</time>
      </trkpt>
      <trkpt lat="46.00915" lon="1.308">
        <ele>428.4</ele>
        <time>2016-04-14T10:44:15Z</time>
      </trkpt>
      <trkpt lat="46.00886" lon="1.3082">
        <ele>429.85</ele>
        <time>2016-04-14T10:44:26Z</time>
      </trkpt>
      <trkpt lat="46.00852" lon="1.3085">
        <ele>428.4</ele>
        <time>2016-04-14T10:44:37Z</time>
      </trkpt>
      <trkpt lat="46.00818" lon="1.30877">
        <ele>425.52</ele>
        <time>2016-04-14T10:44:45Z</time>
      </trkpt>
      <trkpt lat="46.00793" lon="1.30894">
        <ele>424.56</ele>
        <time>2016-04-14T10:44:51Z</time>
      </trkpt>
      <trkpt lat="46.00776" lon="1.30904">
        <ele>422.64</ele>
        <time>2016-04-14T10:44:55Z</time>
      </trkpt>
      <trkpt lat="46.0075" lon="1.30927">
        <ele>421.19</ele>
        <time>2016-04-14T10:45:01Z</time>
      </trkpt>
      <trkpt lat="46.00738" lon="1.30936">
        <ele>420.23</ele>
        <time>2016-04-14T10:45:04Z</time>
      </trkpt>
      <trkpt lat="46.00726" lon="1.30941">
        <ele>420.23</ele>
        <time>2016-04-14T10:45:06Z</time>
      </trkpt>
      <trkpt lat="46.00711" lon="1.30945">
        <ele>418.79</ele>
        <time>2016-04-14T10:45:08Z</time>
      </trkpt>
      <trkpt lat="46.0068" lon="1.30948">
        <ele>415.43</ele>
        <time>2016-04-14T10:45:12Z</time>
      </trkpt>
      <trkpt lat="46.00651" lon="1.30951">
        <ele>413.98</ele>
        <time>2016-04-14T10:45:20Z</time>
      </trkpt>
      <trkpt lat="46.00649" lon="1.30949">
        <ele>414.47</ele>
        <time>2016-04-14T10:45:23Z</time>
      </trkpt>
      <trkpt lat="46.00648" lon="1.30946">
        <ele>414.47</ele>
        <time>2016-04-14T10:45:24Z</time>
      </trkpt>
      <trkpt lat="46.00645" lon="1.30914">
        <ele>414.47</ele>
        <time>2016-04-14T10:45:31Z</time>
      </trkpt>
      <trkpt lat="46.00642" lon="1.30912">
        <ele>413.5</ele>
        <time>2016-04-14T10:45:32Z</time>
      </trkpt>
      <trkpt lat="46.00638" lon="1.30912">
        <ele>413.02</ele>
        <time>2016-04-14T10:45:33Z</time>
      </trkpt>
      <trkpt lat="46.00635" lon="1.30913">
        <ele>412.54</ele>
        <time>2016-04-14T10:45:34Z</time>
      </trkpt>
      <trkpt lat="46.00632" lon="1.30914">
        <ele>412.54</ele>
        <time>2016-04-14T10:45:35Z</time>
      </trkpt>
      <trkpt lat="46.00629" lon="1.30917">
        <ele>412.54</ele>
        <time>2016-04-14T10:45:36Z</time>
      </trkpt>
      <trkpt lat="46.00628" lon="1.3092">
        <ele>413.98</ele>
        <time>2016-04-14T10:45:37Z</time>
      </trkpt>
      <trkpt lat="46.00627" lon="1.30924">
        <ele>413.98</ele>
        <time>2016-04-14T10:45:38Z</time>
      </trkpt>
      <trkpt lat="46.00626" lon="1.30928">
        <ele>413.98</ele>
        <time>2016-04-14T10:45:39Z</time>
      </trkpt>
      <trkpt lat="46.00626" lon="1.30933">
        <ele>413.98</ele>
        <time>2016-04-14T10:45:40Z</time>
      </trkpt>
      <trkpt lat="46.00626" lon="1.30938">
        <ele>413.98</ele>
        <time>2016-04-14T10:45:41Z</time>
      </trkpt>
      <trkpt lat="46.00631" lon="1.30973">
        <ele>412.54</ele>
        <time>2016-04-14T10:45:49Z</time>
      </trkpt>
      <trkpt lat="46.00632" lon="1.30978">
        <ele>412.54</ele>
        <time>2016-04-14T10:45:51Z</time>
      </trkpt>
      <trkpt lat="46.00631" lon="1.3098">
        <ele>412.54</ele>
        <time>2016-04-14T10:45:52Z</time>
      </trkpt>
      <trkpt lat="46.00628" lon="1.30984">
        <ele>412.54</ele>
        <time>2016-04-14T10:45:56Z</time>
      </trkpt>
      <trkpt lat="46.00627" lon="1.30983">
        <ele>412.54</ele>
        <time>2016-04-14T10:45:57Z</time>
      </trkpt>
      <trkpt lat="46.00626" lon="1.30982">
        <ele>412.54</ele>
        <time>2016-04-14T10:45:58Z</time>
      </trkpt>
      <trkpt lat="46.00625" lon="1.30979">
        <ele>412.54</ele>
        <time>2016-04-14T10:46:00Z</time>
      </trkpt>
      <trkpt lat="46.00625" lon="1.30977">
        <ele>412.54</ele>
        <time>2016-04-14T10:46:01Z</time>
      </trkpt>
      <trkpt lat="46.00624" lon="1.30974">
        <ele>412.54</ele>
        <time>2016-04-14T10:46:03Z</time>
      </trkpt>
      <trkpt lat="46.00623" lon="1.30972">
        <ele>412.54</ele>
        <time>2016-04-14T10:46:04Z</time>
      </trkpt>
      <trkpt lat="46.00622" lon="1.30971">
        <ele>412.54</ele>
        <time>2016-04-14T10:46:05Z</time>
      </trkpt>
      <trkpt lat="46.00594" lon="1.30974">
        <ele>409.18</ele>
        <time>2016-04-14T10:46:15Z</time>
      </trkpt>
      <trkpt lat="46.00591" lon="1.30974">
        <ele>409.18</ele>
        <time>2016-04-14T10:46:16Z</time>
      </trkpt>
      <trkpt lat="46.00577" lon="1.30972">
        <ele>405.81</ele>
        <time>2016-04-14T10:46:21Z</time>
      </trkpt>
      <trkpt lat="46.00564" lon="1.30968">
        <ele>404.85</ele>
        <time>2016-04-14T10:46:24Z</time>
      </trkpt>
      <trkpt lat="46.00545" lon="1.30965">
        <ele>403.89</ele>
        <time>2016-04-14T10:46:33Z</time>
      </trkpt>
      <trkpt lat="46.00542" lon="1.30966">
        <ele>402.93</ele>
        <time>2016-04-14T10:46:44Z</time>
      </trkpt>
      <trkpt lat="46.00542" lon="1.30964">
        <ele>402.93</ele>
        <time>2016-04-14T10:46:58Z</time>
      </trkpt>
      <trkpt lat="46.00536" lon="1.30966">
        <ele>404.85</ele>
        <time>2016-04-14T10:47:11Z</time>
      </trkpt>
      <trkpt lat="46.00532" lon="1.30958">
        <ele>404.85</ele>
        <time>2016-04-14T10:47:20Z</time>
      </trkpt>
      <trkpt lat="46.00528" lon="1.30942">
        <ele>405.81</ele>
        <time>2016-04-14T10:47:35Z</time>
      </trkpt>
      <trkpt lat="46.00522" lon="1.30922">
        <ele>407.26</ele>
        <time>2016-04-14T10:47:51Z</time>
      </trkpt>
      <trkpt lat="46.00518" lon="1.30919">
        <ele>408.22</ele>
        <time>2016-04-14T10:47:58Z</time>
      </trkpt>
      <trkpt lat="46.00514" lon="1.30927">
        <ele>410.62</ele>
        <time>2016-04-14T10:48:13Z</time>
      </trkpt>
      <trkpt lat="46.00509" lon="1.30941">
        <ele>411.58</ele>
        <time>2016-04-14T10:48:27Z</time>
      </trkpt>
      <trkpt lat="46.00507" lon="1.30943">
        <ele>412.06</ele>
        <time>2016-04-14T10:48:29Z</time>
      </trkpt>
      <trkpt lat="46.00505" lon="1.30943">
        <ele>412.54</ele>
        <time>2016-04-14T10:48:32Z</time>
      </trkpt>
      <trkpt lat="46.00499" lon="1.30925">
        <ele>414.47</ele>
        <time>2016-04-14T10:48:47Z</time>
      </trkpt>
      <trkpt lat="46.00495" lon="1.30918">
        <ele>415.43</ele>
        <time>2016-04-14T10:48:52Z</time>
      </trkpt>
      <trkpt lat="46.00483" lon="1.30893">
        <ele>416.87</ele>
        <time>2016-04-14T10:49:06Z</time>
      </trkpt>
      <trkpt lat="46.0046" lon="1.30873">
        <ele>417.83</ele>
        <time>2016-04-14T10:49:20Z</time>
      </trkpt>
      <trkpt lat="46.00449" lon="1.30874">
        <ele>418.31</ele>
        <time>2016-04-14T10:49:26Z</time>
      </trkpt>
      <trkpt lat="46.00442" lon="1.30889">
        <ele>418.79</ele>
        <time>2016-04-14T10:49:36Z</time>
      </trkpt>
      <trkpt lat="46.00431" lon="1.30901">
        <ele>421.68</ele>
        <time>2016-04-14T10:49:49Z</time>
      </trkpt>
      <trkpt lat="46.0041" lon="1.30906">
        <ele>423.12</ele>
        <time>2016-04-14T10:50:04Z</time>
      </trkpt>
      <trkpt lat="46.00398" lon="1.30932">
        <ele>424.56</ele>
        <time>2016-04-14T10:50:17Z</time>
      </trkpt>
      <trkpt lat="46.00392" lon="1.30961">
        <ele>426</ele>
        <time>2016-04-14T10:50:29Z</time>
      </trkpt>
      <trkpt lat="46.0039" lon="1.30966">
        <ele>426.48</ele>
        <time>2016-04-14T10:50:31Z</time>
      </trkpt>
      <trkpt lat="46.0039" lon="1.30985">
        <ele>427.44</ele>
        <time>2016-04-14T10:50:39Z</time>
      </trkpt>
      <trkpt lat="46.00393" lon="1.31002">
        <ele>428.4</ele>
        <time>2016-04-14T10:50:46Z</time>
      </trkpt>
      <trkpt lat="46.00393" lon="1.31008">
        <ele>428.4</ele>
        <time>2016-04-14T10:50:48Z</time>
      </trkpt>
      <trkpt lat="46.00389" lon="1.3102">
        <ele>428.4</ele>
        <time>2016-04-14T10:50:52Z</time>
      </trkpt>
      <trkpt lat="46.0037" lon="1.31062">
        <ele>428.4</ele>
        <time>2016-04-14T10:51:06Z</time>
      </trkpt>
      <trkpt lat="46.00384" lon="1.31099">
        <ele>428.89</ele>
        <time>2016-04-14T10:51:16Z</time>
      </trkpt>
      <trkpt lat="46.00404" lon="1.31131">
        <ele>431.29</ele>
        <time>2016-04-14T10:51:28Z</time>
      </trkpt>
      <trkpt lat="46.00423" lon="1.31165">
        <ele>432.25</ele>
        <time>2016-04-14T10:51:42Z</time>
      </trkpt>
      <trkpt lat="46.00435" lon="1.31195">
        <ele>432.73</ele>
        <time>2016-04-14T10:51:54Z</time>
      </trkpt>
      <trkpt lat="46.00441" lon="1.31205">
        <ele>432.73</ele>
        <time>2016-04-14T10:51:58Z</time>
      </trkpt>
      <trkpt lat="46.00456" lon="1.31235">
        <ele>431.77</ele>
        <time>2016-04-14T10:52:09Z</time>
      </trkpt>
      <trkpt lat="46.00457" lon="1.3124">
        <ele>431.77</ele>
        <time>2016-04-14T10:52:10Z</time>
      </trkpt>
      <trkpt lat="46.00479" lon="1.31284">
        <ele>431.77</ele>
        <time>2016-04-14T10:52:22Z</time>
      </trkpt>
      <trkpt lat="46.00494" lon="1.31316">
        <ele>433.69</ele>
        <time>2016-04-14T10:52:31Z</time>
      </trkpt>
      <trkpt lat="46.00497" lon="1.31324">
        <ele>434.17</ele>
        <time>2016-04-14T10:52:34Z</time>
      </trkpt>
      <trkpt lat="46.00513" lon="1.31368">
        <ele>435.13</ele>
        <time>2016-04-14T10:52:47Z</time>
      </trkpt>
      <trkpt lat="46.00529" lon="1.31418">
        <ele>434.17</ele>
        <time>2016-04-14T10:53:00Z</time>
      </trkpt>
      <trkpt lat="46.00521" lon="1.3146">
        <ele>433.21</ele>
        <time>2016-04-14T10:53:10Z</time>
      </trkpt>
      <trkpt lat="46.00504" lon="1.31499">
        <ele>434.65</ele>
        <time>2016-04-14T10:53:20Z</time>
      </trkpt>
      <trkpt lat="46.00467" lon="1.31533">
        <ele>436.1</ele>
        <time>2016-04-14T10:53:36Z</time>
      </trkpt>
      <trkpt lat="46.0044" lon="1.31546">
        <ele>438.02</ele>
        <time>2016-04-14T10:53:48Z</time>
      </trkpt>
      <trkpt lat="46.00418" lon="1.31567">
        <ele>439.46</ele>
        <time>2016-04-14T10:54:01Z</time>
      </trkpt>
      <trkpt lat="46.00394" lon="1.31595">
        <ele>441.38</ele>
        <time>2016-04-14T10:54:18Z</time>
      </trkpt>
      <trkpt lat="46.00373" lon="1.31605">
        <ele>443.31</ele>
        <time>2016-04-14T10:54:32Z</time>
      </trkpt>
      <trkpt lat="46.00352" lon="1.31612">
        <ele>446.19</ele>
        <time>2016-04-14T10:54:45Z</time>
      </trkpt>
      <trkpt lat="46.00337" lon="1.31614">
        <ele>446.67</ele>
        <time>2016-04-14T10:54:54Z</time>
      </trkpt>
      <trkpt lat="46.00321" lon="1.31601">
        <ele>447.15</ele>
        <time>2016-04-14T10:55:05Z</time>
      </trkpt>
      <trkpt lat="46.0032" lon="1.31599">
        <ele>447.15</ele>
        <time>2016-04-14T10:55:06Z</time>
      </trkpt>
      <trkpt lat="46.00318" lon="1.31583">
        <ele>448.11</ele>
        <time>2016-04-14T10:55:13Z</time>
      </trkpt>
      <trkpt lat="46.00308" lon="1.31549">
        <ele>448.59</ele>
        <time>2016-04-14T10:55:26Z</time>
      </trkpt>
      <trkpt lat="46.00281" lon="1.31502">
        <ele>448.11</ele>
        <time>2016-04-14T10:55:39Z</time>
      </trkpt>
      <trkpt lat="46.00277" lon="1.31494">
        <ele>447.15</ele>
        <time>2016-04-14T10:55:41Z</time>
      </trkpt>
      <trkpt lat="46.00275" lon="1.3149">
        <ele>447.15</ele>
        <time>2016-04-14T10:55:42Z</time>
      </trkpt>
      <trkpt lat="46.0026" lon="1.31484">
        <ele>447.15</ele>
        <time>2016-04-14T10:55:49Z</time>
      </trkpt>
      <trkpt lat="46.00253" lon="1.31485">
        <ele>448.11</ele>
        <time>2016-04-14T10:55:52Z</time>
      </trkpt>
      <trkpt lat="46.00251" lon="1.31484">
        <ele>448.11</ele>
        <time>2016-04-14T10:55:53Z</time>
      </trkpt>
      <trkpt lat="46.00248" lon="1.31484">
        <ele>448.11</ele>
        <time>2016-04-14T10:55:54Z</time>
      </trkpt>
      <trkpt lat="46.00245" lon="1.31484">
        <ele>448.11</ele>
        <time>2016-04-14T10:55:55Z</time>
      </trkpt>
      <trkpt lat="46.00242" lon="1.31484">
        <ele>448.11</ele>
        <time>2016-04-14T10:55:56Z</time>
      </trkpt>
      <trkpt lat="46.00239" lon="1.31485">
        <ele>448.11</ele>
        <time>2016-04-14T10:55:57Z</time>
      </trkpt>
      <trkpt lat="46.00236" lon="1.31486">
        <ele>448.11</ele>
        <time>2016-04-14T10:55:58Z</time>
      </trkpt>
      <trkpt lat="46.00234" lon="1.31488">
        <ele>448.11</ele>
        <time>2016-04-14T10:55:59Z</time>
      </trkpt>
      <trkpt lat="46.00232" lon="1.3149">
        <ele>448.11</ele>
        <time>2016-04-14T10:56:00Z</time>
      </trkpt>
      <trkpt lat="46.00231" lon="1.31493">
        <ele>448.11</ele>
        <time>2016-04-14T10:56:01Z</time>
      </trkpt>
      <trkpt lat="46.00229" lon="1.31496">
        <ele>448.11</ele>
        <time>2016-04-14T10:56:02Z</time>
      </trkpt>
      <trkpt lat="46.00228" lon="1.31499">
        <ele>448.11</ele>
        <time>2016-04-14T10:56:03Z</time>
      </trkpt>
      <trkpt lat="46.00226" lon="1.31502">
        <ele>449.07</ele>
        <time>2016-04-14T10:56:04Z</time>
      </trkpt>
      <trkpt lat="46.00198" lon="1.31529">
        <ele>446.19</ele>
        <time>2016-04-14T10:56:16Z</time>
      </trkpt>
      <trkpt lat="46.00181" lon="1.31541">
        <ele>444.75</ele>
        <time>2016-04-14T10:56:20Z</time>
      </trkpt>
      <trkpt lat="46.00172" lon="1.31549">
        <ele>444.27</ele>
        <time>2016-04-14T10:56:22Z</time>
      </trkpt>
      <trkpt lat="46.00132" lon="1.31574">
        <ele>441.86</ele>
        <time>2016-04-14T10:56:30Z</time>
      </trkpt>
      <trkpt lat="46.00118" lon="1.31586">
        <ele>441.86</ele>
        <time>2016-04-14T10:56:34Z</time>
      </trkpt>
      <trkpt lat="46.00089" lon="1.31629">
        <ele>441.86</ele>
        <time>2016-04-14T10:56:46Z</time>
      </trkpt>
      <trkpt lat="46.00082" lon="1.31633">
        <ele>443.79</ele>
        <time>2016-04-14T10:56:48Z</time>
      </trkpt>
      <trkpt lat="46.00047" lon="1.31653">
        <ele>444.75</ele>
        <time>2016-04-14T10:57:01Z</time>
      </trkpt>
      <trkpt lat="46.00033" lon="1.31666">
        <ele>443.31</ele>
        <time>2016-04-14T10:57:07Z</time>
      </trkpt>
      <trkpt lat="46" lon="1.31697">
        <ele>439.46</ele>
        <time>2016-04-14T10:57:17Z</time>
      </trkpt>
      <trkpt lat="45.99976" lon="1.31744">
        <ele>436.1</ele>
        <time>2016-04-14T10:57:25Z</time>
      </trkpt>
      <trkpt lat="45.99969" lon="1.31767">
        <ele>435.61</ele>
        <time>2016-04-14T10:57:29Z</time>
      </trkpt>
      <trkpt lat="45.99953" lon="1.31843">
        <ele>433.21</ele>
        <time>2016-04-14T10:57:41Z</time>
      </trkpt>
      <trkpt lat="45.99935" lon="1.3187">
        <ele>433.21</ele>
        <time>2016-04-14T10:57:47Z</time>
      </trkpt>
      <trkpt lat="45.99913" lon="1.3187">
        <ele>433.21</ele>
        <time>2016-04-14T10:57:52Z</time>
      </trkpt>
      <trkpt lat="45.9989" lon="1.31855">
        <ele>433.21</ele>
        <time>2016-04-14T10:57:58Z</time>
      </trkpt>
      <trkpt lat="45.9988" lon="1.31822">
        <ele>432.25</ele>
        <time>2016-04-14T10:58:04Z</time>
      </trkpt>
      <trkpt lat="45.99864" lon="1.31808">
        <ele>432.25</ele>
        <time>2016-04-14T10:58:09Z</time>
      </trkpt>
      <trkpt lat="45.99838" lon="1.3181">
        <ele>433.69</ele>
        <time>2016-04-14T10:58:14Z</time>
      </trkpt>
      <trkpt lat="45.99811" lon="1.31819">
        <ele>434.65</ele>
        <time>2016-04-14T10:58:25Z</time>
      </trkpt>
      <trkpt lat="45.99795" lon="1.31822">
        <ele>433.21</ele>
        <time>2016-04-14T10:58:30Z</time>
      </trkpt>
      <trkpt lat="45.99771" lon="1.31813">
        <ele>432.25</ele>
        <time>2016-04-14T10:58:37Z</time>
      </trkpt>
      <trkpt lat="45.99759" lon="1.3181">
        <ele>430.81</ele>
        <time>2016-04-14T10:58:40Z</time>
      </trkpt>
      <trkpt lat="45.99756" lon="1.31811">
        <ele>430.81</ele>
        <time>2016-04-14T10:58:41Z</time>
      </trkpt>
      <trkpt lat="45.99752" lon="1.31814">
        <ele>430.81</ele>
        <time>2016-04-14T10:58:42Z</time>
      </trkpt>
      <trkpt lat="45.99749" lon="1.31816">
        <ele>430.81</ele>
        <time>2016-04-14T10:58:43Z</time>
      </trkpt>
      <trkpt lat="45.99733" lon="1.3186">
        <ele>430.33</ele>
        <time>2016-04-14T10:58:53Z</time>
      </trkpt>
      <trkpt lat="45.99722" lon="1.31875">
        <ele>429.37</ele>
        <time>2016-04-14T10:58:57Z</time>
      </trkpt>
      <trkpt lat="45.99718" lon="1.31875">
        <ele>429.37</ele>
        <time>2016-04-14T10:58:58Z</time>
      </trkpt>
      <trkpt lat="45.99684" lon="1.31866">
        <ele>427.92</ele>
        <time>2016-04-14T10:59:09Z</time>
      </trkpt>
      <trkpt lat="45.99682" lon="1.31867">
        <ele>427.92</ele>
        <time>2016-04-14T10:59:10Z</time>
      </trkpt>
      <trkpt lat="45.9968" lon="1.31868">
        <ele>427.92</ele>
        <time>2016-04-14T10:59:11Z</time>
      </trkpt>
      <trkpt lat="45.99678" lon="1.3187">
        <ele>427.92</ele>
        <time>2016-04-14T10:59:12Z</time>
      </trkpt>
      <trkpt lat="45.99675" lon="1.31871">
        <ele>427.92</ele>
        <time>2016-04-14T10:59:13Z</time>
      </trkpt>
      <trkpt lat="45.99672" lon="1.31872">
        <ele>427.92</ele>
        <time>2016-04-14T10:59:14Z</time>
      </trkpt>
      <trkpt lat="45.99668" lon="1.31871">
        <ele>427.44</ele>
        <time>2016-04-14T10:59:15Z</time>
      </trkpt>
      <trkpt lat="45.99664" lon="1.31871">
        <ele>427.44</ele>
        <time>2016-04-14T10:59:16Z</time>
      </trkpt>
      <trkpt lat="45.9966" lon="1.31871">
        <ele>427.44</ele>
        <time>2016-04-14T10:59:17Z</time>
      </trkpt>
      <trkpt lat="45.99642" lon="1.31873">
        <ele>426</ele>
        <time>2016-04-14T10:59:21Z</time>
      </trkpt>
      <trkpt lat="45.99636" lon="1.31871">
        <ele>425.52</ele>
        <time>2016-04-14T10:59:22Z</time>
      </trkpt>
      <trkpt lat="45.99631" lon="1.31867">
        <ele>425.04</ele>
        <time>2016-04-14T10:59:23Z</time>
      </trkpt>
      <trkpt lat="45.99627" lon="1.3186">
        <ele>425.04</ele>
        <time>2016-04-14T10:59:24Z</time>
      </trkpt>
      <trkpt lat="45.99623" lon="1.31853">
        <ele>424.56</ele>
        <time>2016-04-14T10:59:25Z</time>
      </trkpt>
      <trkpt lat="45.9962" lon="1.31846">
        <ele>424.56</ele>
        <time>2016-04-14T10:59:26Z</time>
      </trkpt>
      <trkpt lat="45.99617" lon="1.31839">
        <ele>424.56</ele>
        <time>2016-04-14T10:59:27Z</time>
      </trkpt>
      <trkpt lat="45.99613" lon="1.31832">
        <ele>423.6</ele>
        <time>2016-04-14T10:59:28Z</time>
      </trkpt>
      <trkpt lat="45.99608" lon="1.31826">
        <ele>422.16</ele>
        <time>2016-04-14T10:59:29Z</time>
      </trkpt>
      <trkpt lat="45.99602" lon="1.31823">
        <ele>421.68</ele>
        <time>2016-04-14T10:59:30Z</time>
      </trkpt>
      <trkpt lat="45.99596" lon="1.31821">
        <ele>420.71</ele>
        <time>2016-04-14T10:59:31Z</time>
      </trkpt>
      <trkpt lat="45.9959" lon="1.3182">
        <ele>419.75</ele>
        <time>2016-04-14T10:59:32Z</time>
      </trkpt>
      <trkpt lat="45.99582" lon="1.31818">
        <ele>418.79</ele>
        <time>2016-04-14T10:59:33Z</time>
      </trkpt>
      <trkpt lat="45.99544" lon="1.31805">
        <ele>415.43</ele>
        <time>2016-04-14T10:59:38Z</time>
      </trkpt>
      <trkpt lat="45.99538" lon="1.31804">
        <ele>415.43</ele>
        <time>2016-04-14T10:59:39Z</time>
      </trkpt>
      <trkpt lat="45.99533" lon="1.31804">
        <ele>417.83</ele>
        <time>2016-04-14T10:59:40Z</time>
      </trkpt>
      <trkpt lat="45.99528" lon="1.31806">
        <ele>417.83</ele>
        <time>2016-04-14T10:59:41Z</time>
      </trkpt>
      <trkpt lat="45.99522" lon="1.31813">
        <ele>420.23</ele>
        <time>2016-04-14T10:59:44Z</time>
      </trkpt>
      <trkpt lat="45.99509" lon="1.31832">
        <ele>422.64</ele>
        <time>2016-04-14T10:59:55Z</time>
      </trkpt>
      <trkpt lat="45.99486" lon="1.31838">
        <ele>426</ele>
        <time>2016-04-14T11:00:07Z</time>
      </trkpt>
      <trkpt lat="45.9947" lon="1.31822">
        <ele>427.44</ele>
        <time>2016-04-14T11:00:18Z</time>
      </trkpt>
      <trkpt lat="45.99468" lon="1.31821">
        <ele>427.92</ele>
        <time>2016-04-14T11:00:19Z</time>
      </trkpt>
      <trkpt lat="45.99467" lon="1.3182">
        <ele>427.92</ele>
        <time>2016-04-14T11:00:20Z</time>
      </trkpt>
      <trkpt lat="45.99465" lon="1.3182">
        <ele>427.92</ele>
        <time>2016-04-14T11:00:21Z</time>
      </trkpt>
      <trkpt lat="45.99464" lon="1.31818">
        <ele>428.4</ele>
        <time>2016-04-14T11:00:22Z</time>
      </trkpt>
      <trkpt lat="45.99463" lon="1.31817">
        <ele>428.4</ele>
        <time>2016-04-14T11:00:23Z</time>
      </trkpt>
      <trkpt lat="45.99462" lon="1.31815">
        <ele>428.89</ele>
        <time>2016-04-14T11:00:24Z</time>
      </trkpt>
      <trkpt lat="45.99461" lon="1.31814">
        <ele>428.89</ele>
        <time>2016-04-14T11:00:25Z</time>
      </trkpt>
      <trkpt lat="45.9946" lon="1.31812">
        <ele>429.37</ele>
        <time>2016-04-14T11:00:26Z</time>
      </trkpt>
      <trkpt lat="45.99458" lon="1.31812">
        <ele>429.37</ele>
        <time>2016-04-14T11:00:27Z</time>
      </trkpt>
      <trkpt lat="45.99457" lon="1.31812">
        <ele>429.85</ele>
        <time>2016-04-14T11:00:28Z</time>
      </trkpt>
      <trkpt lat="45.99455" lon="1.31811">
        <ele>429.85</ele>
        <time>2016-04-14T11:00:29Z</time>
      </trkpt>
      <trkpt lat="45.99454" lon="1.3181">
        <ele>429.85</ele>
        <time>2016-04-14T11:00:30Z</time>
      </trkpt>
      <trkpt lat="45.99449" lon="1.31808">
        <ele>430.81</ele>
        <time>2016-04-14T11:00:34Z</time>
      </trkpt>
      <trkpt lat="45.99447" lon="1.31808">
        <ele>430.81</ele>
        <time>2016-04-14T11:00:35Z</time>
      </trkpt>
      <trkpt lat="45.99444" lon="1.31808">
        <ele>431.29</ele>
        <time>2016-04-14T11:00:37Z</time>
      </trkpt>
      <trkpt lat="45.99439" lon="1.31807">
        <ele>432.25</ele>
        <time>2016-04-14T11:00:40Z</time>
      </trkpt>
      <trkpt lat="45.99438" lon="1.31807">
        <ele>432.25</ele>
        <time>2016-04-14T11:00:41Z</time>
      </trkpt>
      <trkpt lat="45.99436" lon="1.31807">
        <ele>432.73</ele>
        <time>2016-04-14T11:00:42Z</time>
      </trkpt>
      <trkpt lat="45.99434" lon="1.31807">
        <ele>432.73</ele>
        <time>2016-04-14T11:00:43Z</time>
      </trkpt>
      <trkpt lat="45.99433" lon="1.31807">
        <ele>432.73</ele>
        <time>2016-04-14T11:00:44Z</time>
      </trkpt>
      <trkpt lat="45.99431" lon="1.31807">
        <ele>432.73</ele>
        <time>2016-04-14T11:00:45Z</time>
      </trkpt>
      <trkpt lat="45.9943" lon="1.31807">
        <ele>432.73</ele>
        <time>2016-04-14T11:00:46Z</time>
      </trkpt>
      <trkpt lat="45.99428" lon="1.31808">
        <ele>432.73</ele>
        <time>2016-04-14T11:00:47Z</time>
      </trkpt>
      <trkpt lat="45.99426" lon="1.31808">
        <ele>433.21</ele>
        <time>2016-04-14T11:00:48Z</time>
      </trkpt>
      <trkpt lat="45.99424" lon="1.31808">
        <ele>433.21</ele>
        <time>2016-04-14T11:00:49Z</time>
      </trkpt>
      <trkpt lat="45.99422" lon="1.31809">
        <ele>433.21</ele>
        <time>2016-04-14T11:00:50Z</time>
      </trkpt>
      <trkpt lat="45.9942" lon="1.31809">
        <ele>433.21</ele>
        <time>2016-04-14T11:00:51Z</time>
      </trkpt>
      <trkpt lat="45.99377" lon="1.31803">
        <ele>430.33</ele>
        <time>2016-04-14T11:01:05Z</time>
      </trkpt>
      <trkpt lat="45.99354" lon="1.31804">
        <ele>427.44</ele>
        <time>2016-04-14T11:01:09Z</time>
      </trkpt>
      <trkpt lat="45.99342" lon="1.31803">
        <ele>426.48</ele>
        <time>2016-04-14T11:01:11Z</time>
      </trkpt>
      <trkpt lat="45.99336" lon="1.31801">
        <ele>426.48</ele>
        <time>2016-04-14T11:01:12Z</time>
      </trkpt>
      <trkpt lat="45.99331" lon="1.31799">
        <ele>426</ele>
        <time>2016-04-14T11:01:13Z</time>
      </trkpt>
      <trkpt lat="45.99308" lon="1.31774">
        <ele>429.37</ele>
        <time>2016-04-14T11:01:22Z</time>
      </trkpt>
      <trkpt lat="45.99297" lon="1.31722">
        <ele>430.33</ele>
        <time>2016-04-14T11:01:36Z</time>
      </trkpt>
      <trkpt lat="45.99291" lon="1.3169">
        <ele>428.4</ele>
        <time>2016-04-14T11:01:45Z</time>
      </trkpt>
      <trkpt lat="45.99304" lon="1.31665">
        <ele>428.89</ele>
        <time>2016-04-14T11:01:56Z</time>
      </trkpt>
      <trkpt lat="45.99307" lon="1.3166">
        <ele>428.89</ele>
        <time>2016-04-14T11:01:58Z</time>
      </trkpt>
      <trkpt lat="45.99307" lon="1.31657">
        <ele>428.89</ele>
        <time>2016-04-14T11:01:59Z</time>
      </trkpt>
      <trkpt lat="45.99306" lon="1.31654">
        <ele>428.89</ele>
        <time>2016-04-14T11:02:00Z</time>
      </trkpt>
      <trkpt lat="45.99304" lon="1.3165">
        <ele>428.89</ele>
        <time>2016-04-14T11:02:01Z</time>
      </trkpt>
      <trkpt lat="45.99301" lon="1.31649">
        <ele>428.89</ele>
        <time>2016-04-14T11:02:02Z</time>
      </trkpt>
      <trkpt lat="45.99297" lon="1.31648">
        <ele>427.92</ele>
        <time>2016-04-14T11:02:03Z</time>
      </trkpt>
      <trkpt lat="45.99289" lon="1.31645">
        <ele>427.44</ele>
        <time>2016-04-14T11:02:06Z</time>
      </trkpt>
      <trkpt lat="45.99273" lon="1.31641">
        <ele>427.44</ele>
        <time>2016-04-14T11:02:17Z</time>
      </trkpt>
      <trkpt lat="45.99272" lon="1.3164">
        <ele>428.89</ele>
        <time>2016-04-14T11:02:18Z</time>
      </trkpt>
      <trkpt lat="45.99271" lon="1.31639">
        <ele>428.89</ele>
        <time>2016-04-14T11:02:19Z</time>
      </trkpt>
      <trkpt lat="45.99256" lon="1.31619">
        <ele>430.81</ele>
        <time>2016-04-14T11:02:33Z</time>
      </trkpt>
      <trkpt lat="45.9925" lon="1.31602">
        <ele>433.21</ele>
        <time>2016-04-14T11:02:46Z</time>
      </trkpt>
      <trkpt lat="45.99251" lon="1.3159">
        <ele>435.61</ele>
        <time>2016-04-14T11:02:58Z</time>
      </trkpt>
      <trkpt lat="45.99265" lon="1.31578">
        <ele>438.02</ele>
        <time>2016-04-14T11:03:11Z</time>
      </trkpt>
      <trkpt lat="45.99276" lon="1.31568">
        <ele>439.94</ele>
        <time>2016-04-14T11:03:23Z</time>
      </trkpt>
      <trkpt lat="45.99289" lon="1.31553">
        <ele>441.86</ele>
        <time>2016-04-14T11:03:38Z</time>
      </trkpt>
      <trkpt lat="45.99303" lon="1.3154">
        <ele>444.27</ele>
        <time>2016-04-14T11:03:53Z</time>
      </trkpt>
      <trkpt lat="45.99304" lon="1.31538">
        <ele>444.27</ele>
        <time>2016-04-14T11:03:55Z</time>
      </trkpt>
      <trkpt lat="45.99313" lon="1.31525">
        <ele>446.67</ele>
        <time>2016-04-14T11:04:08Z</time>
      </trkpt>
      <trkpt lat="45.99322" lon="1.31511">
        <ele>448.59</ele>
        <time>2016-04-14T11:04:22Z</time>
      </trkpt>
      <trkpt lat="45.99325" lon="1.31506">
        <ele>450.03</ele>
        <time>2016-04-14T11:04:27Z</time>
      </trkpt>
      <trkpt lat="45.99328" lon="1.31503">
        <ele>450.03</ele>
        <time>2016-04-14T11:04:30Z</time>
      </trkpt>
      <trkpt lat="45.99334" lon="1.31499">
        <ele>451.48</ele>
        <time>2016-04-14T11:04:36Z</time>
      </trkpt>
      <trkpt lat="45.99357" lon="1.31486">
        <ele>451.96</ele>
        <time>2016-04-14T11:04:50Z</time>
      </trkpt>
      <trkpt lat="45.9937" lon="1.31473">
        <ele>451.96</ele>
        <time>2016-04-14T11:05:00Z</time>
      </trkpt>
      <trkpt lat="45.99373" lon="1.31449">
        <ele>454.84</ele>
        <time>2016-04-14T11:05:14Z</time>
      </trkpt>
      <trkpt lat="45.99377" lon="1.31421">
        <ele>457.24</ele>
        <time>2016-04-14T11:05:29Z</time>
      </trkpt>
      <trkpt lat="45.99376" lon="1.3142">
        <ele>457.24</ele>
        <time>2016-04-14T11:05:43Z</time>
      </trkpt>
      <trkpt lat="45.99378" lon="1.31421">
        <ele>457.24</ele>
        <time>2016-04-14T11:05:59Z</time>
      </trkpt>
      <trkpt lat="45.99378" lon="1.31422">
        <ele>457.24</ele>
        <time>2016-04-14T11:06:15Z</time>
      </trkpt>
      <trkpt lat="45.99375" lon="1.3142">
        <ele>457.24</ele>
        <time>2016-04-14T11:06:43Z</time>
      </trkpt>
      <trkpt lat="45.99376" lon="1.31421">
        <ele>457.24</ele>
        <time>2016-04-14T11:07:12Z</time>
      </trkpt>
      <trkpt lat="45.99376" lon="1.31419">
        <ele>457.24</ele>
        <time>2016-04-14T11:07:38Z</time>
      </trkpt>
      <trkpt lat="45.99377" lon="1.31416">
        <ele>457.24</ele>
        <time>2016-04-14T11:08:02Z</time>
      </trkpt>
      <trkpt lat="45.9938" lon="1.3141">
        <ele>457.72</ele>
        <time>2016-04-14T11:08:16Z</time>
      </trkpt>
      <trkpt lat="45.99395" lon="1.31385">
        <ele>459.17</ele>
        <time>2016-04-14T11:08:31Z</time>
      </trkpt>
      <trkpt lat="45.99405" lon="1.31363">
        <ele>462.05</ele>
        <time>2016-04-14T11:08:44Z</time>
      </trkpt>
      <trkpt lat="45.99406" lon="1.31336">
        <ele>463.01</ele>
        <time>2016-04-14T11:08:58Z</time>
      </trkpt>
      <trkpt lat="45.99411" lon="1.31326">
        <ele>463.97</ele>
        <time>2016-04-14T11:09:04Z</time>
      </trkpt>
      <trkpt lat="45.9942" lon="1.31321">
        <ele>464.93</ele>
        <time>2016-04-14T11:09:11Z</time>
      </trkpt>
      <trkpt lat="45.99422" lon="1.31318">
        <ele>465.9</ele>
        <time>2016-04-14T11:09:13Z</time>
      </trkpt>
      <trkpt lat="45.9944" lon="1.313">
        <ele>467.82</ele>
        <time>2016-04-14T11:09:27Z</time>
      </trkpt>
      <trkpt lat="45.99462" lon="1.31272">
        <ele>469.74</ele>
        <time>2016-04-14T11:09:45Z</time>
      </trkpt>
      <trkpt lat="45.99474" lon="1.31244">
        <ele>472.14</ele>
        <time>2016-04-14T11:10:01Z</time>
      </trkpt>
      <trkpt lat="45.99473" lon="1.31208">
        <ele>474.07</ele>
        <time>2016-04-14T11:10:18Z</time>
      </trkpt>
      <trkpt lat="45.9947" lon="1.31191">
        <ele>475.03</ele>
        <time>2016-04-14T11:10:27Z</time>
      </trkpt>
      <trkpt lat="45.99463" lon="1.31169">
        <ele>477.43</ele>
        <time>2016-04-14T11:10:39Z</time>
      </trkpt>
      <trkpt lat="45.99446" lon="1.31148">
        <ele>479.84</ele>
        <time>2016-04-14T11:10:57Z</time>
      </trkpt>
      <trkpt lat="45.99442" lon="1.3114">
        <ele>480.32</ele>
        <time>2016-04-14T11:11:03Z</time>
      </trkpt>
      <trkpt lat="45.99442" lon="1.31114">
        <ele>482.24</ele>
        <time>2016-04-14T11:11:17Z</time>
      </trkpt>
      <trkpt lat="45.99453" lon="1.31089">
        <ele>485.12</ele>
        <time>2016-04-14T11:11:32Z</time>
      </trkpt>
      <trkpt lat="45.99467" lon="1.31073">
        <ele>486.56</ele>
        <time>2016-04-14T11:11:47Z</time>
      </trkpt>
      <trkpt lat="45.99474" lon="1.31065">
        <ele>488.01</ele>
        <time>2016-04-14T11:11:54Z</time>
      </trkpt>
      <trkpt lat="45.99491" lon="1.31042">
        <ele>490.41</ele>
        <time>2016-04-14T11:12:10Z</time>
      </trkpt>
      <trkpt lat="45.99501" lon="1.3102">
        <ele>492.33</ele>
        <time>2016-04-14T11:12:23Z</time>
      </trkpt>
      <trkpt lat="45.99514" lon="1.30992">
        <ele>494.74</ele>
        <time>2016-04-14T11:12:39Z</time>
      </trkpt>
      <trkpt lat="45.9953" lon="1.30963">
        <ele>495.7</ele>
        <time>2016-04-14T11:12:53Z</time>
      </trkpt>
      <trkpt lat="45.99572" lon="1.30923">
        <ele>493.77</ele>
        <time>2016-04-14T11:13:08Z</time>
      </trkpt>
      <trkpt lat="45.99584" lon="1.30913">
        <ele>492.81</ele>
        <time>2016-04-14T11:13:11Z</time>
      </trkpt>
      <trkpt lat="45.99596" lon="1.309">
        <ele>492.33</ele>
        <time>2016-04-14T11:13:14Z</time>
      </trkpt>
      <trkpt lat="45.99603" lon="1.30888">
        <ele>491.85</ele>
        <time>2016-04-14T11:13:16Z</time>
      </trkpt>
      <trkpt lat="45.99606" lon="1.30882">
        <ele>491.85</ele>
        <time>2016-04-14T11:13:17Z</time>
      </trkpt>
      <trkpt lat="45.99608" lon="1.30876">
        <ele>491.37</ele>
        <time>2016-04-14T11:13:18Z</time>
      </trkpt>
      <trkpt lat="45.9961" lon="1.30869">
        <ele>491.37</ele>
        <time>2016-04-14T11:13:19Z</time>
      </trkpt>
      <trkpt lat="45.99611" lon="1.30861">
        <ele>491.37</ele>
        <time>2016-04-14T11:13:20Z</time>
      </trkpt>
      <trkpt lat="45.99612" lon="1.30855">
        <ele>491.37</ele>
        <time>2016-04-14T11:13:21Z</time>
      </trkpt>
      <trkpt lat="45.99613" lon="1.30847">
        <ele>490.89</ele>
        <time>2016-04-14T11:13:22Z</time>
      </trkpt>
      <trkpt lat="45.99613" lon="1.3084">
        <ele>490.89</ele>
        <time>2016-04-14T11:13:23Z</time>
      </trkpt>
      <trkpt lat="45.99613" lon="1.30834">
        <ele>490.89</ele>
        <time>2016-04-14T11:13:24Z</time>
      </trkpt>
      <trkpt lat="45.99612" lon="1.30828">
        <ele>490.89</ele>
        <time>2016-04-14T11:13:25Z</time>
      </trkpt>
      <trkpt lat="45.99611" lon="1.30822">
        <ele>490.89</ele>
        <time>2016-04-14T11:13:26Z</time>
      </trkpt>
      <trkpt lat="45.99608" lon="1.3081">
        <ele>490.89</ele>
        <time>2016-04-14T11:13:28Z</time>
      </trkpt>
      <trkpt lat="45.99607" lon="1.30804">
        <ele>490.89</ele>
        <time>2016-04-14T11:13:29Z</time>
      </trkpt>
      <trkpt lat="45.99606" lon="1.30798">
        <ele>490.89</ele>
        <time>2016-04-14T11:13:30Z</time>
      </trkpt>
      <trkpt lat="45.99582" lon="1.30729">
        <ele>490.89</ele>
        <time>2016-04-14T11:13:44Z</time>
      </trkpt>
      <trkpt lat="45.99571" lon="1.30723">
        <ele>490.89</ele>
        <time>2016-04-14T11:13:47Z</time>
      </trkpt>
      <trkpt lat="45.99567" lon="1.30723">
        <ele>490.89</ele>
        <time>2016-04-14T11:13:48Z</time>
      </trkpt>
      <trkpt lat="45.99563" lon="1.30725">
        <ele>490.89</ele>
        <time>2016-04-14T11:13:49Z</time>
      </trkpt>
      <trkpt lat="45.99537" lon="1.30751">
        <ele>492.81</ele>
        <time>2016-04-14T11:14:01Z</time>
      </trkpt>
      <trkpt lat="45.99515" lon="1.30777">
        <ele>494.74</ele>
        <time>2016-04-14T11:14:16Z</time>
      </trkpt>
      <trkpt lat="45.9949" lon="1.30797">
        <ele>497.14</ele>
        <time>2016-04-14T11:14:31Z</time>
      </trkpt>
      <trkpt lat="45.99487" lon="1.308">
        <ele>497.62</ele>
        <time>2016-04-14T11:14:42Z</time>
      </trkpt>
      <trkpt lat="45.99485" lon="1.30801">
        <ele>497.62</ele>
        <time>2016-04-14T11:14:57Z</time>
      </trkpt>
      <trkpt lat="45.99473" lon="1.30808">
        <ele>498.1</ele>
        <time>2016-04-14T11:15:11Z</time>
      </trkpt>
      <trkpt lat="45.99454" lon="1.30817">
        <ele>499.54</ele>
        <time>2016-04-14T11:15:24Z</time>
      </trkpt>
      <trkpt lat="45.99431" lon="1.30827">
        <ele>501.95</ele>
        <time>2016-04-14T11:15:39Z</time>
      </trkpt>
      <trkpt lat="45.99411" lon="1.30829">
        <ele>503.87</ele>
        <time>2016-04-14T11:15:53Z</time>
      </trkpt>
      <trkpt lat="45.99388" lon="1.30833">
        <ele>505.79</ele>
        <time>2016-04-14T11:16:07Z</time>
      </trkpt>
      <trkpt lat="45.99364" lon="1.30842">
        <ele>507.71</ele>
        <time>2016-04-14T11:16:22Z</time>
      </trkpt>
      <trkpt lat="45.99362" lon="1.30842">
        <ele>507.71</ele>
        <time>2016-04-14T11:16:23Z</time>
      </trkpt>
      <trkpt lat="45.99337" lon="1.30854">
        <ele>509.64</ele>
        <time>2016-04-14T11:16:40Z</time>
      </trkpt>
      <trkpt lat="45.99315" lon="1.30872">
        <ele>511.56</ele>
        <time>2016-04-14T11:16:57Z</time>
      </trkpt>
      <trkpt lat="45.99298" lon="1.30897">
        <ele>513</ele>
        <time>2016-04-14T11:17:12Z</time>
      </trkpt>
      <trkpt lat="45.99279" lon="1.30937">
        <ele>512.04</ele>
        <time>2016-04-14T11:17:26Z</time>
      </trkpt>
      <trkpt lat="45.99256" lon="1.30967">
        <ele>511.56</ele>
        <time>2016-04-14T11:17:39Z</time>
      </trkpt>
      <trkpt lat="45.99227" lon="1.30985">
        <ele>513</ele>
        <time>2016-04-14T11:17:52Z</time>
      </trkpt>
      <trkpt lat="45.99219" lon="1.30986">
        <ele>513</ele>
        <time>2016-04-14T11:17:55Z</time>
      </trkpt>
      <trkpt lat="45.99217" lon="1.30985">
        <ele>513</ele>
        <time>2016-04-14T11:17:56Z</time>
      </trkpt>
      <trkpt lat="45.99214" lon="1.30985">
        <ele>513</ele>
        <time>2016-04-14T11:17:57Z</time>
      </trkpt>
      <trkpt lat="45.99211" lon="1.30985">
        <ele>513</ele>
        <time>2016-04-14T11:17:58Z</time>
      </trkpt>
      <trkpt lat="45.99209" lon="1.30984">
        <ele>513</ele>
        <time>2016-04-14T11:17:59Z</time>
      </trkpt>
      <trkpt lat="45.99207" lon="1.30983">
        <ele>513.48</ele>
        <time>2016-04-14T11:18:00Z</time>
      </trkpt>
      <trkpt lat="45.99181" lon="1.30982">
        <ele>513.96</ele>
        <time>2016-04-14T11:18:10Z</time>
      </trkpt>
      <trkpt lat="45.99147" lon="1.30976">
        <ele>514.44</ele>
        <time>2016-04-14T11:18:22Z</time>
      </trkpt>
      <trkpt lat="45.99118" lon="1.30968">
        <ele>515.4</ele>
        <time>2016-04-14T11:18:32Z</time>
      </trkpt>
      <trkpt lat="45.9908" lon="1.30948">
        <ele>516.37</ele>
        <time>2016-04-14T11:18:46Z</time>
      </trkpt>
      <trkpt lat="45.99059" lon="1.30934">
        <ele>517.81</ele>
        <time>2016-04-14T11:18:57Z</time>
      </trkpt>
      <trkpt lat="45.99032" lon="1.30914">
        <ele>519.25</ele>
        <time>2016-04-14T11:19:10Z</time>
      </trkpt>
      <trkpt lat="45.98999" lon="1.30895">
        <ele>520.69</ele>
        <time>2016-04-14T11:19:25Z</time>
      </trkpt>
      <trkpt lat="45.98973" lon="1.30887">
        <ele>522.61</ele>
        <time>2016-04-14T11:19:39Z</time>
      </trkpt>
      <trkpt lat="45.98962" lon="1.30884">
        <ele>523.09</ele>
        <time>2016-04-14T11:19:51Z</time>
      </trkpt>
      <trkpt lat="45.98949" lon="1.30878">
        <ele>523.09</ele>
        <time>2016-04-14T11:20:01Z</time>
      </trkpt>
      <trkpt lat="45.9891" lon="1.30853">
        <ele>521.17</ele>
        <time>2016-04-14T11:20:13Z</time>
      </trkpt>
      <trkpt lat="45.98879" lon="1.30841">
        <ele>518.77</ele>
        <time>2016-04-14T11:20:19Z</time>
      </trkpt>
      <trkpt lat="45.98836" lon="1.30815">
        <ele>518.29</ele>
        <time>2016-04-14T11:20:31Z</time>
      </trkpt>
      <trkpt lat="45.98826" lon="1.30811">
        <ele>518.29</ele>
        <time>2016-04-14T11:20:36Z</time>
      </trkpt>
      <trkpt lat="45.98797" lon="1.3079">
        <ele>518.29</ele>
        <time>2016-04-14T11:20:47Z</time>
      </trkpt>
      <trkpt lat="45.98766" lon="1.30771">
        <ele>519.73</ele>
        <time>2016-04-14T11:20:59Z</time>
      </trkpt>
      <trkpt lat="45.98743" lon="1.3076">
        <ele>521.65</ele>
        <time>2016-04-14T11:21:11Z</time>
      </trkpt>
      <trkpt lat="45.98724" lon="1.30751">
        <ele>523.58</ele>
        <time>2016-04-14T11:21:23Z</time>
      </trkpt>
      <trkpt lat="45.98723" lon="1.3075">
        <ele>523.58</ele>
        <time>2016-04-14T11:21:24Z</time>
      </trkpt>
      <trkpt lat="45.98716" lon="1.30741">
        <ele>525.02</ele>
        <time>2016-04-14T11:21:30Z</time>
      </trkpt>
      <trkpt lat="45.98709" lon="1.30736">
        <ele>525.5</ele>
        <time>2016-04-14T11:21:36Z</time>
      </trkpt>
      <trkpt lat="45.98709" lon="1.30734">
        <ele>525.98</ele>
        <time>2016-04-14T11:21:37Z</time>
      </trkpt>
      <trkpt lat="45.98708" lon="1.30732">
        <ele>525.98</ele>
        <time>2016-04-14T11:21:38Z</time>
      </trkpt>
      <trkpt lat="45.98708" lon="1.3073">
        <ele>525.98</ele>
        <time>2016-04-14T11:21:39Z</time>
      </trkpt>
      <trkpt lat="45.98707" lon="1.30729">
        <ele>525.98</ele>
        <time>2016-04-14T11:21:40Z</time>
      </trkpt>
      <trkpt lat="45.98706" lon="1.30727">
        <ele>526.46</ele>
        <time>2016-04-14T11:21:41Z</time>
      </trkpt>
      <trkpt lat="45.98703" lon="1.30723">
        <ele>526.94</ele>
        <time>2016-04-14T11:21:43Z</time>
      </trkpt>
      <trkpt lat="45.987" lon="1.30711">
        <ele>527.42</ele>
        <time>2016-04-14T11:21:49Z</time>
      </trkpt>
      <trkpt lat="45.98702" lon="1.30699">
        <ele>527.9</ele>
        <time>2016-04-14T11:21:55Z</time>
      </trkpt>
      <trkpt lat="45.98699" lon="1.3068">
        <ele>528.86</ele>
        <time>2016-04-14T11:22:05Z</time>
      </trkpt>
      <trkpt lat="45.98697" lon="1.3068">
        <ele>528.86</ele>
        <time>2016-04-14T11:22:06Z</time>
      </trkpt>
      <trkpt lat="45.98696" lon="1.30679">
        <ele>529.82</ele>
        <time>2016-04-14T11:22:07Z</time>
      </trkpt>
      <trkpt lat="45.98695" lon="1.3068">
        <ele>529.82</ele>
        <time>2016-04-14T11:22:08Z</time>
      </trkpt>
      <trkpt lat="45.98694" lon="1.30682">
        <ele>529.82</ele>
        <time>2016-04-14T11:22:09Z</time>
      </trkpt>
      <trkpt lat="45.98693" lon="1.30685">
        <ele>529.82</ele>
        <time>2016-04-14T11:22:10Z</time>
      </trkpt>
      <trkpt lat="45.98693" lon="1.30687">
        <ele>529.82</ele>
        <time>2016-04-14T11:22:11Z</time>
      </trkpt>
      <trkpt lat="45.9868" lon="1.30724">
        <ele>530.3</ele>
        <time>2016-04-14T11:22:25Z</time>
      </trkpt>
      <trkpt lat="45.98655" lon="1.30745">
        <ele>531.27</ele>
        <time>2016-04-14T11:22:37Z</time>
      </trkpt>
      <trkpt lat="45.98624" lon="1.30743">
        <ele>533.19</ele>
        <time>2016-04-14T11:22:51Z</time>
      </trkpt>
      <trkpt lat="45.98597" lon="1.30743">
        <ele>534.15</ele>
        <time>2016-04-14T11:23:03Z</time>
      </trkpt>
      <trkpt lat="45.98568" lon="1.30741">
        <ele>534.63</ele>
        <time>2016-04-14T11:23:18Z</time>
      </trkpt>
      <trkpt lat="45.98522" lon="1.30749">
        <ele>537.51</ele>
        <time>2016-04-14T11:23:37Z</time>
      </trkpt>
      <trkpt lat="45.98475" lon="1.30764">
        <ele>538.96</ele>
        <time>2016-04-14T11:23:56Z</time>
      </trkpt>
      <trkpt lat="45.98449" lon="1.30769">
        <ele>542.8</ele>
        <time>2016-04-14T11:24:10Z</time>
      </trkpt>
      <trkpt lat="45.98426" lon="1.30756">
        <ele>544.24</ele>
        <time>2016-04-14T11:24:23Z</time>
      </trkpt>
      <trkpt lat="45.984" lon="1.30732">
        <ele>545.2</ele>
        <time>2016-04-14T11:24:37Z</time>
      </trkpt>
      <trkpt lat="45.98376" lon="1.30698">
        <ele>545.69</ele>
        <time>2016-04-14T11:24:49Z</time>
      </trkpt>
      <trkpt lat="45.98369" lon="1.30686">
        <ele>545.69</ele>
        <time>2016-04-14T11:24:54Z</time>
      </trkpt>
      <trkpt lat="45.98366" lon="1.30685">
        <ele>545.69</ele>
        <time>2016-04-14T11:24:55Z</time>
      </trkpt>
      <trkpt lat="45.98364" lon="1.30684">
        <ele>545.69</ele>
        <time>2016-04-14T11:24:56Z</time>
      </trkpt>
      <trkpt lat="45.98361" lon="1.30684">
        <ele>545.69</ele>
        <time>2016-04-14T11:24:57Z</time>
      </trkpt>
      <trkpt lat="45.98357" lon="1.30685">
        <ele>545.69</ele>
        <time>2016-04-14T11:24:58Z</time>
      </trkpt>
      <trkpt lat="45.98355" lon="1.30687">
        <ele>546.17</ele>
        <time>2016-04-14T11:24:59Z</time>
      </trkpt>
      <trkpt lat="45.98352" lon="1.30688">
        <ele>546.17</ele>
        <time>2016-04-14T11:25:00Z</time>
      </trkpt>
      <trkpt lat="45.98351" lon="1.30691">
        <ele>546.65</ele>
        <time>2016-04-14T11:25:01Z</time>
      </trkpt>
      <trkpt lat="45.98349" lon="1.30694">
        <ele>547.13</ele>
        <time>2016-04-14T11:25:02Z</time>
      </trkpt>
      <trkpt lat="45.98348" lon="1.30697">
        <ele>547.13</ele>
        <time>2016-04-14T11:25:03Z</time>
      </trkpt>
      <trkpt lat="45.98348" lon="1.30701">
        <ele>547.13</ele>
        <time>2016-04-14T11:25:04Z</time>
      </trkpt>
      <trkpt lat="45.98347" lon="1.30704">
        <ele>548.09</ele>
        <time>2016-04-14T11:25:05Z</time>
      </trkpt>
      <trkpt lat="45.98346" lon="1.30706">
        <ele>548.09</ele>
        <time>2016-04-14T11:25:06Z</time>
      </trkpt>
      <trkpt lat="45.98344" lon="1.30709">
        <ele>548.09</ele>
        <time>2016-04-14T11:25:07Z</time>
      </trkpt>
      <trkpt lat="45.98342" lon="1.30717">
        <ele>548.57</ele>
        <time>2016-04-14T11:25:10Z</time>
      </trkpt>
      <trkpt lat="45.98341" lon="1.30719">
        <ele>548.57</ele>
        <time>2016-04-14T11:25:11Z</time>
      </trkpt>
      <trkpt lat="45.98341" lon="1.30722">
        <ele>548.57</ele>
        <time>2016-04-14T11:25:12Z</time>
      </trkpt>
      <trkpt lat="45.9834" lon="1.30725">
        <ele>549.05</ele>
        <time>2016-04-14T11:25:13Z</time>
      </trkpt>
      <trkpt lat="45.98339" lon="1.30728">
        <ele>549.05</ele>
        <time>2016-04-14T11:25:14Z</time>
      </trkpt>
      <trkpt lat="45.98325" lon="1.30787">
        <ele>550.01</ele>
        <time>2016-04-14T11:25:30Z</time>
      </trkpt>
      <trkpt lat="45.98319" lon="1.30817">
        <ele>548.09</ele>
        <time>2016-04-14T11:25:36Z</time>
      </trkpt>
      <trkpt lat="45.98318" lon="1.30823">
        <ele>547.13</ele>
        <time>2016-04-14T11:25:37Z</time>
      </trkpt>
      <trkpt lat="45.98317" lon="1.3083">
        <ele>546.65</ele>
        <time>2016-04-14T11:25:38Z</time>
      </trkpt>
      <trkpt lat="45.98315" lon="1.30865">
        <ele>542.8</ele>
        <time>2016-04-14T11:25:42Z</time>
      </trkpt>
      <trkpt lat="45.98314" lon="1.30875">
        <ele>542.8</ele>
        <time>2016-04-14T11:25:43Z</time>
      </trkpt>
      <trkpt lat="45.98313" lon="1.30882">
        <ele>541.84</ele>
        <time>2016-04-14T11:25:44Z</time>
      </trkpt>
      <trkpt lat="45.98312" lon="1.30888">
        <ele>541.84</ele>
        <time>2016-04-14T11:25:45Z</time>
      </trkpt>
      <trkpt lat="45.9831" lon="1.30892">
        <ele>541.84</ele>
        <time>2016-04-14T11:25:46Z</time>
      </trkpt>
      <trkpt lat="45.98308" lon="1.30895">
        <ele>541.36</ele>
        <time>2016-04-14T11:25:47Z</time>
      </trkpt>
      <trkpt lat="45.98306" lon="1.30896">
        <ele>541.36</ele>
        <time>2016-04-14T11:25:48Z</time>
      </trkpt>
      <trkpt lat="45.98304" lon="1.30896">
        <ele>541.36</ele>
        <time>2016-04-14T11:25:49Z</time>
      </trkpt>
      <trkpt lat="45.98302" lon="1.30895">
        <ele>541.36</ele>
        <time>2016-04-14T11:25:50Z</time>
      </trkpt>
      <trkpt lat="45.983" lon="1.30893">
        <ele>541.36</ele>
        <time>2016-04-14T11:25:51Z</time>
      </trkpt>
      <trkpt lat="45.983" lon="1.3089">
        <ele>541.36</ele>
        <time>2016-04-14T11:25:52Z</time>
      </trkpt>
      <trkpt lat="45.98299" lon="1.30887">
        <ele>542.8</ele>
        <time>2016-04-14T11:25:53Z</time>
      </trkpt>
      <trkpt lat="45.98299" lon="1.30885">
        <ele>542.8</ele>
        <time>2016-04-14T11:25:54Z</time>
      </trkpt>
      <trkpt lat="45.98298" lon="1.30882">
        <ele>542.8</ele>
        <time>2016-04-14T11:25:55Z</time>
      </trkpt>
      <trkpt lat="45.98298" lon="1.30879">
        <ele>543.28</ele>
        <time>2016-04-14T11:25:57Z</time>
      </trkpt>
      <trkpt lat="45.98298" lon="1.30877">
        <ele>543.28</ele>
        <time>2016-04-14T11:25:58Z</time>
      </trkpt>
      <trkpt lat="45.98298" lon="1.30874">
        <ele>543.28</ele>
        <time>2016-04-14T11:25:59Z</time>
      </trkpt>
      <trkpt lat="45.98297" lon="1.30872">
        <ele>543.76</ele>
        <time>2016-04-14T11:26:00Z</time>
      </trkpt>
      <trkpt lat="45.98296" lon="1.30869">
        <ele>544.24</ele>
        <time>2016-04-14T11:26:01Z</time>
      </trkpt>
      <trkpt lat="45.98295" lon="1.30866">
        <ele>544.24</ele>
        <time>2016-04-14T11:26:02Z</time>
      </trkpt>
      <trkpt lat="45.98267" lon="1.30807">
        <ele>543.28</ele>
        <time>2016-04-14T11:26:15Z</time>
      </trkpt>
      <trkpt lat="45.98216" lon="1.30736">
        <ele>540.4</ele>
        <time>2016-04-14T11:26:28Z</time>
      </trkpt>
      <trkpt lat="45.98207" lon="1.30722">
        <ele>539.44</ele>
        <time>2016-04-14T11:26:30Z</time>
      </trkpt>
      <trkpt lat="45.98198" lon="1.30709">
        <ele>538.96</ele>
        <time>2016-04-14T11:26:32Z</time>
      </trkpt>
      <trkpt lat="45.98186" lon="1.30686">
        <ele>537.51</ele>
        <time>2016-04-14T11:26:35Z</time>
      </trkpt>
      <trkpt lat="45.98183" lon="1.30677">
        <ele>537.03</ele>
        <time>2016-04-14T11:26:36Z</time>
      </trkpt>
      <trkpt lat="45.98165" lon="1.30617">
        <ele>535.59</ele>
        <time>2016-04-14T11:26:42Z</time>
      </trkpt>
      <trkpt lat="45.98162" lon="1.3061">
        <ele>535.59</ele>
        <time>2016-04-14T11:26:43Z</time>
      </trkpt>
      <trkpt lat="45.98159" lon="1.30604">
        <ele>535.59</ele>
        <time>2016-04-14T11:26:44Z</time>
      </trkpt>
      <trkpt lat="45.98155" lon="1.306">
        <ele>535.59</ele>
        <time>2016-04-14T11:26:45Z</time>
      </trkpt>
      <trkpt lat="45.98151" lon="1.30596">
        <ele>535.59</ele>
        <time>2016-04-14T11:26:46Z</time>
      </trkpt>
      <trkpt lat="45.98146" lon="1.30593">
        <ele>535.59</ele>
        <time>2016-04-14T11:26:47Z</time>
      </trkpt>
      <trkpt lat="45.98143" lon="1.30591">
        <ele>535.59</ele>
        <time>2016-04-14T11:26:48Z</time>
      </trkpt>
      <trkpt lat="45.98139" lon="1.30588">
        <ele>535.59</ele>
        <time>2016-04-14T11:26:49Z</time>
      </trkpt>
      <trkpt lat="45.98108" lon="1.30558">
        <ele>536.55</ele>
        <time>2016-04-14T11:27:00Z</time>
      </trkpt>
      <trkpt lat="45.9806" lon="1.30528">
        <ele>537.99</ele>
        <time>2016-04-14T11:27:13Z</time>
      </trkpt>
      <trkpt lat="45.9801" lon="1.30498">
        <ele>539.92</ele>
        <time>2016-04-14T11:27:30Z</time>
      </trkpt>
      <trkpt lat="45.97974" lon="1.30491">
        <ele>540.88</ele>
        <time>2016-04-14T11:27:44Z</time>
      </trkpt>
      <trkpt lat="45.97932" lon="1.30484">
        <ele>543.76</ele>
        <time>2016-04-14T11:28:00Z</time>
      </trkpt>
      <trkpt lat="45.97908" lon="1.30471">
        <ele>545.69</ele>
        <time>2016-04-14T11:28:12Z</time>
      </trkpt>
      <trkpt lat="45.97907" lon="1.30468">
        <ele>545.69</ele>
        <time>2016-04-14T11:28:13Z</time>
      </trkpt>
      <trkpt lat="45.9789" lon="1.30442">
        <ele>548.09</ele>
        <time>2016-04-14T11:28:27Z</time>
      </trkpt>
      <trkpt lat="45.97888" lon="1.3044">
        <ele>548.09</ele>
        <time>2016-04-14T11:28:28Z</time>
      </trkpt>
      <trkpt lat="45.9786" lon="1.30417">
        <ele>549.53</ele>
        <time>2016-04-14T11:28:44Z</time>
      </trkpt>
      <trkpt lat="45.97837" lon="1.30403">
        <ele>550.01</ele>
        <time>2016-04-14T11:28:55Z</time>
      </trkpt>
      <trkpt lat="45.97806" lon="1.3039">
        <ele>548.57</ele>
        <time>2016-04-14T11:29:05Z</time>
      </trkpt>
      <trkpt lat="45.97789" lon="1.30383">
        <ele>547.61</ele>
        <time>2016-04-14T11:29:09Z</time>
      </trkpt>
      <trkpt lat="45.97784" lon="1.30381">
        <ele>546.65</ele>
        <time>2016-04-14T11:29:10Z</time>
      </trkpt>
      <trkpt lat="45.97774" lon="1.30378">
        <ele>546.65</ele>
        <time>2016-04-14T11:29:12Z</time>
      </trkpt>
      <trkpt lat="45.97765" lon="1.30374">
        <ele>545.69</ele>
        <time>2016-04-14T11:29:14Z</time>
      </trkpt>
      <trkpt lat="45.97762" lon="1.30372">
        <ele>545.2</ele>
        <time>2016-04-14T11:29:15Z</time>
      </trkpt>
      <trkpt lat="45.97758" lon="1.30371">
        <ele>544.72</ele>
        <time>2016-04-14T11:29:16Z</time>
      </trkpt>
      <trkpt lat="45.97754" lon="1.3037">
        <ele>544.72</ele>
        <time>2016-04-14T11:29:17Z</time>
      </trkpt>
      <trkpt lat="45.97749" lon="1.30369">
        <ele>544.24</ele>
        <time>2016-04-14T11:29:18Z</time>
      </trkpt>
      <trkpt lat="45.97745" lon="1.30367">
        <ele>544.24</ele>
        <time>2016-04-14T11:29:19Z</time>
      </trkpt>
      <trkpt lat="45.9774" lon="1.30364">
        <ele>543.28</ele>
        <time>2016-04-14T11:29:20Z</time>
      </trkpt>
      <trkpt lat="45.97735" lon="1.30361">
        <ele>542.8</ele>
        <time>2016-04-14T11:29:21Z</time>
      </trkpt>
      <trkpt lat="45.97716" lon="1.30348">
        <ele>541.84</ele>
        <time>2016-04-14T11:29:25Z</time>
      </trkpt>
      <trkpt lat="45.97711" lon="1.30346">
        <ele>541.84</ele>
        <time>2016-04-14T11:29:26Z</time>
      </trkpt>
      <trkpt lat="45.97702" lon="1.30343">
        <ele>541.36</ele>
        <time>2016-04-14T11:29:28Z</time>
      </trkpt>
      <trkpt lat="45.97698" lon="1.30341">
        <ele>540.88</ele>
        <time>2016-04-14T11:29:29Z</time>
      </trkpt>
      <trkpt lat="45.97694" lon="1.3034">
        <ele>540.88</ele>
        <time>2016-04-14T11:29:30Z</time>
      </trkpt>
      <trkpt lat="45.9769" lon="1.30339">
        <ele>539.44</ele>
        <time>2016-04-14T11:29:31Z</time>
      </trkpt>
      <trkpt lat="45.97686" lon="1.30338">
        <ele>539.44</ele>
        <time>2016-04-14T11:29:32Z</time>
      </trkpt>
      <trkpt lat="45.97681" lon="1.30336">
        <ele>539.44</ele>
        <time>2016-04-14T11:29:33Z</time>
      </trkpt>
      <trkpt lat="45.97654" lon="1.30313">
        <ele>537.99</ele>
        <time>2016-04-14T11:29:42Z</time>
      </trkpt>
      <trkpt lat="45.97617" lon="1.30294">
        <ele>540.88</ele>
        <time>2016-04-14T11:29:55Z</time>
      </trkpt>
      <trkpt lat="45.97574" lon="1.30268">
        <ele>541.36</ele>
        <time>2016-04-14T11:30:10Z</time>
      </trkpt>
      <trkpt lat="45.97566" lon="1.30235">
        <ele>544.72</ele>
        <time>2016-04-14T11:30:20Z</time>
      </trkpt>
      <trkpt lat="45.97566" lon="1.30229">
        <ele>545.2</ele>
        <time>2016-04-14T11:30:22Z</time>
      </trkpt>
      <trkpt lat="45.97571" lon="1.30213">
        <ele>546.17</ele>
        <time>2016-04-14T11:30:27Z</time>
      </trkpt>
      <trkpt lat="45.97572" lon="1.30209">
        <ele>546.17</ele>
        <time>2016-04-14T11:30:28Z</time>
      </trkpt>
      <trkpt lat="45.97582" lon="1.30154">
        <ele>547.13</ele>
        <time>2016-04-14T11:30:42Z</time>
      </trkpt>
      <trkpt lat="45.97585" lon="1.30138">
        <ele>547.13</ele>
        <time>2016-04-14T11:30:45Z</time>
      </trkpt>
      <trkpt lat="45.97586" lon="1.30132">
        <ele>546.17</ele>
        <time>2016-04-14T11:30:46Z</time>
      </trkpt>
      <trkpt lat="45.97589" lon="1.3012">
        <ele>545.2</ele>
        <time>2016-04-14T11:30:48Z</time>
      </trkpt>
      <trkpt lat="45.97596" lon="1.301">
        <ele>543.76</ele>
        <time>2016-04-14T11:30:51Z</time>
      </trkpt>
      <trkpt lat="45.97597" lon="1.30092">
        <ele>543.76</ele>
        <time>2016-04-14T11:30:52Z</time>
      </trkpt>
      <trkpt lat="45.97598" lon="1.30053">
        <ele>540.4</ele>
        <time>2016-04-14T11:30:57Z</time>
      </trkpt>
      <trkpt lat="45.976" lon="1.30031">
        <ele>537.99</ele>
        <time>2016-04-14T11:31:00Z</time>
      </trkpt>
      <trkpt lat="45.976" lon="1.30022">
        <ele>537.03</ele>
        <time>2016-04-14T11:31:01Z</time>
      </trkpt>
      <trkpt lat="45.97598" lon="1.30013">
        <ele>536.07</ele>
        <time>2016-04-14T11:31:02Z</time>
      </trkpt>
      <trkpt lat="45.97594" lon="1.30002">
        <ele>535.11</ele>
        <time>2016-04-14T11:31:03Z</time>
      </trkpt>
      <trkpt lat="45.97587" lon="1.29988">
        <ele>534.63</ele>
        <time>2016-04-14T11:31:04Z</time>
      </trkpt>
      <trkpt lat="45.9758" lon="1.29974">
        <ele>534.63</ele>
        <time>2016-04-14T11:31:05Z</time>
      </trkpt>
      <trkpt lat="45.97574" lon="1.2996">
        <ele>534.15</ele>
        <time>2016-04-14T11:31:06Z</time>
      </trkpt>
      <trkpt lat="45.97566" lon="1.29944">
        <ele>534.15</ele>
        <time>2016-04-14T11:31:07Z</time>
      </trkpt>
      <trkpt lat="45.97533" lon="1.29824">
        <ele>533.67</ele>
        <time>2016-04-14T11:31:17Z</time>
      </trkpt>
      <trkpt lat="45.97531" lon="1.29815">
        <ele>533.67</ele>
        <time>2016-04-14T11:31:18Z</time>
      </trkpt>
      <trkpt lat="45.97526" lon="1.29797">
        <ele>535.11</ele>
        <time>2016-04-14T11:31:20Z</time>
      </trkpt>
      <trkpt lat="45.97513" lon="1.29746">
        <ele>536.55</ele>
        <time>2016-04-14T11:31:27Z</time>
      </trkpt>
      <trkpt lat="45.97513" lon="1.29739">
        <ele>536.55</ele>
        <time>2016-04-14T11:31:28Z</time>
      </trkpt>
      <trkpt lat="45.97513" lon="1.29732">
        <ele>537.51</ele>
        <time>2016-04-14T11:31:29Z</time>
      </trkpt>
      <trkpt lat="45.97514" lon="1.29725">
        <ele>537.51</ele>
        <time>2016-04-14T11:31:30Z</time>
      </trkpt>
      <trkpt lat="45.97516" lon="1.2972">
        <ele>537.99</ele>
        <time>2016-04-14T11:31:31Z</time>
      </trkpt>
      <trkpt lat="45.97517" lon="1.29714">
        <ele>537.99</ele>
        <time>2016-04-14T11:31:32Z</time>
      </trkpt>
      <trkpt lat="45.97519" lon="1.29708">
        <ele>537.99</ele>
        <time>2016-04-14T11:31:33Z</time>
      </trkpt>
      <trkpt lat="45.97523" lon="1.29684">
        <ele>538.48</ele>
        <time>2016-04-14T11:31:37Z</time>
      </trkpt>
      <trkpt lat="45.9752" lon="1.29679">
        <ele>538.48</ele>
        <time>2016-04-14T11:31:38Z</time>
      </trkpt>
      <trkpt lat="45.97516" lon="1.29675">
        <ele>538.96</ele>
        <time>2016-04-14T11:31:39Z</time>
      </trkpt>
      <trkpt lat="45.97512" lon="1.29673">
        <ele>538.96</ele>
        <time>2016-04-14T11:31:40Z</time>
      </trkpt>
      <trkpt lat="45.97507" lon="1.29672">
        <ele>538.96</ele>
        <time>2016-04-14T11:31:41Z</time>
      </trkpt>
      <trkpt lat="45.97503" lon="1.2967">
        <ele>538.96</ele>
        <time>2016-04-14T11:31:42Z</time>
      </trkpt>
      <trkpt lat="45.97455" lon="1.29667">
        <ele>539.44</ele>
        <time>2016-04-14T11:31:54Z</time>
      </trkpt>
      <trkpt lat="45.97426" lon="1.29675">
        <ele>539.44</ele>
        <time>2016-04-14T11:32:01Z</time>
      </trkpt>
      <trkpt lat="45.97392" lon="1.29687">
        <ele>539.44</ele>
        <time>2016-04-14T11:32:09Z</time>
      </trkpt>
      <trkpt lat="45.97388" lon="1.2969">
        <ele>539.44</ele>
        <time>2016-04-14T11:32:10Z</time>
      </trkpt>
      <trkpt lat="45.97384" lon="1.29694">
        <ele>539.44</ele>
        <time>2016-04-14T11:32:11Z</time>
      </trkpt>
      <trkpt lat="45.97373" lon="1.29708">
        <ele>539.44</ele>
        <time>2016-04-14T11:32:14Z</time>
      </trkpt>
      <trkpt lat="45.9737" lon="1.29713">
        <ele>539.44</ele>
        <time>2016-04-14T11:32:15Z</time>
      </trkpt>
      <trkpt lat="45.97337" lon="1.2974">
        <ele>541.36</ele>
        <time>2016-04-14T11:32:26Z</time>
      </trkpt>
      <trkpt lat="45.97302" lon="1.29729">
        <ele>541.84</ele>
        <time>2016-04-14T11:32:38Z</time>
      </trkpt>
      <trkpt lat="45.97291" lon="1.29715">
        <ele>539.44</ele>
        <time>2016-04-14T11:32:42Z</time>
      </trkpt>
      <trkpt lat="45.97289" lon="1.2971">
        <ele>538.96</ele>
        <time>2016-04-14T11:32:43Z</time>
      </trkpt>
      <trkpt lat="45.97286" lon="1.29704">
        <ele>538.96</ele>
        <time>2016-04-14T11:32:44Z</time>
      </trkpt>
      <trkpt lat="45.97262" lon="1.29666">
        <ele>537.99</ele>
        <time>2016-04-14T11:32:55Z</time>
      </trkpt>
      <trkpt lat="45.97236" lon="1.29654">
        <ele>537.51</ele>
        <time>2016-04-14T11:33:06Z</time>
      </trkpt>
      <trkpt lat="45.97206" lon="1.29659">
        <ele>536.55</ele>
        <time>2016-04-14T11:33:18Z</time>
      </trkpt>
      <trkpt lat="45.97183" lon="1.2966">
        <ele>538.96</ele>
        <time>2016-04-14T11:33:29Z</time>
      </trkpt>
      <trkpt lat="45.97159" lon="1.29655">
        <ele>540.4</ele>
        <time>2016-04-14T11:33:41Z</time>
      </trkpt>
      <trkpt lat="45.97137" lon="1.29638">
        <ele>542.32</ele>
        <time>2016-04-14T11:33:55Z</time>
      </trkpt>
      <trkpt lat="45.97112" lon="1.29626">
        <ele>544.24</ele>
        <time>2016-04-14T11:34:12Z</time>
      </trkpt>
      <trkpt lat="45.97108" lon="1.29625">
        <ele>545.2</ele>
        <time>2016-04-14T11:34:16Z</time>
      </trkpt>
      <trkpt lat="45.97094" lon="1.29629">
        <ele>548.09</ele>
        <time>2016-04-14T11:34:30Z</time>
      </trkpt>
      <trkpt lat="45.97081" lon="1.2963">
        <ele>550.01</ele>
        <time>2016-04-14T11:34:43Z</time>
      </trkpt>
      <trkpt lat="45.9708" lon="1.29631">
        <ele>550.01</ele>
        <time>2016-04-14T11:34:44Z</time>
      </trkpt>
      <trkpt lat="45.97078" lon="1.29631">
        <ele>550.01</ele>
        <time>2016-04-14T11:34:45Z</time>
      </trkpt>
      <trkpt lat="45.97077" lon="1.29632">
        <ele>550.01</ele>
        <time>2016-04-14T11:34:46Z</time>
      </trkpt>
      <trkpt lat="45.97075" lon="1.29633">
        <ele>550.49</ele>
        <time>2016-04-14T11:34:47Z</time>
      </trkpt>
      <trkpt lat="45.97072" lon="1.29635">
        <ele>550.49</ele>
        <time>2016-04-14T11:34:49Z</time>
      </trkpt>
      <trkpt lat="45.97071" lon="1.29636">
        <ele>550.49</ele>
        <time>2016-04-14T11:34:50Z</time>
      </trkpt>
      <trkpt lat="45.97069" lon="1.29637">
        <ele>550.49</ele>
        <time>2016-04-14T11:34:51Z</time>
      </trkpt>
      <trkpt lat="45.97068" lon="1.29638">
        <ele>550.97</ele>
        <time>2016-04-14T11:34:52Z</time>
      </trkpt>
      <trkpt lat="45.97067" lon="1.29639">
        <ele>550.97</ele>
        <time>2016-04-14T11:34:53Z</time>
      </trkpt>
      <trkpt lat="45.97044" lon="1.29647">
        <ele>553.86</ele>
        <time>2016-04-14T11:35:09Z</time>
      </trkpt>
      <trkpt lat="45.9703" lon="1.29654">
        <ele>555.78</ele>
        <time>2016-04-14T11:35:22Z</time>
      </trkpt>
      <trkpt lat="45.97012" lon="1.29664">
        <ele>558.18</ele>
        <time>2016-04-14T11:35:38Z</time>
      </trkpt>
      <trkpt lat="45.96999" lon="1.2967">
        <ele>560.59</ele>
        <time>2016-04-14T11:35:52Z</time>
      </trkpt>
      <trkpt lat="45.96984" lon="1.29678">
        <ele>562.51</ele>
        <time>2016-04-14T11:36:06Z</time>
      </trkpt>
      <trkpt lat="45.96977" lon="1.29681">
        <ele>563.95</ele>
        <time>2016-04-14T11:36:12Z</time>
      </trkpt>
      <trkpt lat="45.96975" lon="1.29681">
        <ele>563.95</ele>
        <time>2016-04-14T11:36:13Z</time>
      </trkpt>
      <trkpt lat="45.96964" lon="1.29682">
        <ele>565.87</ele>
        <time>2016-04-14T11:36:25Z</time>
      </trkpt>
      <trkpt lat="45.96945" lon="1.29682">
        <ele>567.8</ele>
        <time>2016-04-14T11:36:39Z</time>
      </trkpt>
      <trkpt lat="45.9692" lon="1.2968">
        <ele>569.72</ele>
        <time>2016-04-14T11:36:55Z</time>
      </trkpt>
      <trkpt lat="45.96897" lon="1.29673">
        <ele>571.16</ele>
        <time>2016-04-14T11:37:09Z</time>
      </trkpt>
      <trkpt lat="45.96864" lon="1.29655">
        <ele>572.12</ele>
        <time>2016-04-14T11:37:26Z</time>
      </trkpt>
      <trkpt lat="45.96847" lon="1.29622">
        <ele>574.04</ele>
        <time>2016-04-14T11:37:40Z</time>
      </trkpt>
      <trkpt lat="45.96845" lon="1.29615">
        <ele>575.01</ele>
        <time>2016-04-14T11:37:43Z</time>
      </trkpt>
      <trkpt lat="45.9684" lon="1.29576">
        <ele>576.45</ele>
        <time>2016-04-14T11:37:57Z</time>
      </trkpt>
      <trkpt lat="45.96823" lon="1.29522">
        <ele>576.93</ele>
        <time>2016-04-14T11:38:11Z</time>
      </trkpt>
      <trkpt lat="45.96799" lon="1.29478">
        <ele>576.93</ele>
        <time>2016-04-14T11:38:24Z</time>
      </trkpt>
      <trkpt lat="45.96767" lon="1.29436">
        <ele>577.89</ele>
        <time>2016-04-14T11:38:38Z</time>
      </trkpt>
      <trkpt lat="45.96738" lon="1.29405">
        <ele>575.97</ele>
        <time>2016-04-14T11:38:49Z</time>
      </trkpt>
      <trkpt lat="45.96707" lon="1.29377">
        <ele>575.97</ele>
        <time>2016-04-14T11:38:58Z</time>
      </trkpt>
      <trkpt lat="45.96694" lon="1.29367">
        <ele>574.53</ele>
        <time>2016-04-14T11:39:01Z</time>
      </trkpt>
      <trkpt lat="45.96684" lon="1.29363">
        <ele>574.04</ele>
        <time>2016-04-14T11:39:03Z</time>
      </trkpt>
      <trkpt lat="45.96679" lon="1.29361">
        <ele>573.56</ele>
        <time>2016-04-14T11:39:04Z</time>
      </trkpt>
      <trkpt lat="45.96668" lon="1.2936">
        <ele>573.56</ele>
        <time>2016-04-14T11:39:06Z</time>
      </trkpt>
      <trkpt lat="45.96653" lon="1.29363">
        <ele>571.64</ele>
        <time>2016-04-14T11:39:09Z</time>
      </trkpt>
      <trkpt lat="45.96621" lon="1.29378">
        <ele>568.28</ele>
        <time>2016-04-14T11:39:15Z</time>
      </trkpt>
      <trkpt lat="45.96601" lon="1.29383">
        <ele>566.83</ele>
        <time>2016-04-14T11:39:18Z</time>
      </trkpt>
      <trkpt lat="45.96575" lon="1.29382">
        <ele>563.95</ele>
        <time>2016-04-14T11:39:22Z</time>
      </trkpt>
      <trkpt lat="45.96561" lon="1.29378">
        <ele>563.47</ele>
        <time>2016-04-14T11:39:25Z</time>
      </trkpt>
      <trkpt lat="45.96536" lon="1.29374">
        <ele>560.59</ele>
        <time>2016-04-14T11:39:30Z</time>
      </trkpt>
      <trkpt lat="45.96512" lon="1.29367">
        <ele>556.26</ele>
        <time>2016-04-14T11:39:36Z</time>
      </trkpt>
      <trkpt lat="45.96509" lon="1.29364">
        <ele>555.3</ele>
        <time>2016-04-14T11:39:37Z</time>
      </trkpt>
      <trkpt lat="45.96503" lon="1.29359">
        <ele>554.82</ele>
        <time>2016-04-14T11:39:39Z</time>
      </trkpt>
      <trkpt lat="45.96504" lon="1.29342">
        <ele>551.93</ele>
        <time>2016-04-14T11:39:45Z</time>
      </trkpt>
      <trkpt lat="45.96519" lon="1.2932">
        <ele>547.61</ele>
        <time>2016-04-14T11:39:51Z</time>
      </trkpt>
      <trkpt lat="45.96524" lon="1.29312">
        <ele>546.65</ele>
        <time>2016-04-14T11:39:53Z</time>
      </trkpt>
      <trkpt lat="45.96529" lon="1.29301">
        <ele>544.72</ele>
        <time>2016-04-14T11:39:55Z</time>
      </trkpt>
      <trkpt lat="45.96536" lon="1.29275">
        <ele>542.32</ele>
        <time>2016-04-14T11:39:59Z</time>
      </trkpt>
      <trkpt lat="45.96537" lon="1.29264">
        <ele>542.32</ele>
        <time>2016-04-14T11:40:01Z</time>
      </trkpt>
      <trkpt lat="45.96534" lon="1.29258">
        <ele>540.88</ele>
        <time>2016-04-14T11:40:03Z</time>
      </trkpt>
      <trkpt lat="45.9653" lon="1.29256">
        <ele>539.92</ele>
        <time>2016-04-14T11:40:05Z</time>
      </trkpt>
      <trkpt lat="45.9652" lon="1.29254">
        <ele>538.96</ele>
        <time>2016-04-14T11:40:11Z</time>
      </trkpt>
      <trkpt lat="45.96514" lon="1.29246">
        <ele>538.48</ele>
        <time>2016-04-14T11:40:15Z</time>
      </trkpt>
      <trkpt lat="45.96474" lon="1.29224">
        <ele>536.07</ele>
        <time>2016-04-14T11:40:26Z</time>
      </trkpt>
      <trkpt lat="45.96459" lon="1.2922">
        <ele>535.59</ele>
        <time>2016-04-14T11:40:29Z</time>
      </trkpt>
      <trkpt lat="45.96442" lon="1.29213">
        <ele>534.63</ele>
        <time>2016-04-14T11:40:32Z</time>
      </trkpt>
      <trkpt lat="45.96419" lon="1.292">
        <ele>534.15</ele>
        <time>2016-04-14T11:40:38Z</time>
      </trkpt>
      <trkpt lat="45.96422" lon="1.2918">
        <ele>533.67</ele>
        <time>2016-04-14T11:40:51Z</time>
      </trkpt>
      <trkpt lat="45.96419" lon="1.29166">
        <ele>533.67</ele>
        <time>2016-04-14T11:40:57Z</time>
      </trkpt>
      <trkpt lat="45.96409" lon="1.29118">
        <ele>534.63</ele>
        <time>2016-04-14T11:41:10Z</time>
      </trkpt>
      <trkpt lat="45.96406" lon="1.29087">
        <ele>536.55</ele>
        <time>2016-04-14T11:41:18Z</time>
      </trkpt>
      <trkpt lat="45.96409" lon="1.29057">
        <ele>538.96</ele>
        <time>2016-04-14T11:41:30Z</time>
      </trkpt>
      <trkpt lat="45.96412" lon="1.29033">
        <ele>540.88</ele>
        <time>2016-04-14T11:41:41Z</time>
      </trkpt>
      <trkpt lat="45.96417" lon="1.29019">
        <ele>542.8</ele>
        <time>2016-04-14T11:41:51Z</time>
      </trkpt>
      <trkpt lat="45.96417" lon="1.29009">
        <ele>542.8</ele>
        <time>2016-04-14T11:41:55Z</time>
      </trkpt>
      <trkpt lat="45.9642" lon="1.29">
        <ele>541.36</ele>
        <time>2016-04-14T11:41:58Z</time>
      </trkpt>
      <trkpt lat="45.96424" lon="1.28995">
        <ele>540.88</ele>
        <time>2016-04-14T11:42:00Z</time>
      </trkpt>
      <trkpt lat="45.96428" lon="1.28989">
        <ele>540.88</ele>
        <time>2016-04-14T11:42:03Z</time>
      </trkpt>
      <trkpt lat="45.96429" lon="1.28955">
        <ele>539.44</ele>
        <time>2016-04-14T11:42:11Z</time>
      </trkpt>
      <trkpt lat="45.96434" lon="1.28929">
        <ele>540.88</ele>
        <time>2016-04-14T11:42:19Z</time>
      </trkpt>
      <trkpt lat="45.96412" lon="1.28922">
        <ele>541.84</ele>
        <time>2016-04-14T11:42:28Z</time>
      </trkpt>
      <trkpt lat="45.96374" lon="1.28923">
        <ele>540.4</ele>
        <time>2016-04-14T11:42:39Z</time>
      </trkpt>
      <trkpt lat="45.96369" lon="1.28924">
        <ele>540.4</ele>
        <time>2016-04-14T11:42:41Z</time>
      </trkpt>
      <trkpt lat="45.96355" lon="1.28926">
        <ele>540.4</ele>
        <time>2016-04-14T11:42:46Z</time>
      </trkpt>
      <trkpt lat="45.9632" lon="1.28947">
        <ele>539.44</ele>
        <time>2016-04-14T11:42:57Z</time>
      </trkpt>
      <trkpt lat="45.96313" lon="1.28952">
        <ele>540.88</ele>
        <time>2016-04-14T11:43:00Z</time>
      </trkpt>
      <trkpt lat="45.96289" lon="1.28963">
        <ele>543.76</ele>
        <time>2016-04-14T11:43:12Z</time>
      </trkpt>
      <trkpt lat="45.96275" lon="1.28946">
        <ele>546.65</ele>
        <time>2016-04-14T11:43:22Z</time>
      </trkpt>
      <trkpt lat="45.96267" lon="1.28937">
        <ele>546.65</ele>
        <time>2016-04-14T11:43:28Z</time>
      </trkpt>
      <trkpt lat="45.96257" lon="1.28922">
        <ele>546.65</ele>
        <time>2016-04-14T11:43:34Z</time>
      </trkpt>
      <trkpt lat="45.96255" lon="1.28918">
        <ele>546.65</ele>
        <time>2016-04-14T11:43:35Z</time>
      </trkpt>
      <trkpt lat="45.96251" lon="1.28911">
        <ele>546.65</ele>
        <time>2016-04-14T11:43:37Z</time>
      </trkpt>
      <trkpt lat="45.96238" lon="1.28865">
        <ele>546.65</ele>
        <time>2016-04-14T11:43:47Z</time>
      </trkpt>
      <trkpt lat="45.96239" lon="1.2886">
        <ele>546.65</ele>
        <time>2016-04-14T11:43:48Z</time>
      </trkpt>
      <trkpt lat="45.96238" lon="1.28855">
        <ele>546.65</ele>
        <time>2016-04-14T11:43:49Z</time>
      </trkpt>
      <trkpt lat="45.96221" lon="1.28786">
        <ele>545.2</ele>
        <time>2016-04-14T11:44:01Z</time>
      </trkpt>
      <trkpt lat="45.96217" lon="1.28766">
        <ele>543.76</ele>
        <time>2016-04-14T11:44:04Z</time>
      </trkpt>
      <trkpt lat="45.96215" lon="1.28712">
        <ele>540.88</ele>
        <time>2016-04-14T11:44:13Z</time>
      </trkpt>
      <trkpt lat="45.96218" lon="1.28697">
        <ele>540.4</ele>
        <time>2016-04-14T11:44:24Z</time>
      </trkpt>
      <trkpt lat="45.96214" lon="1.28694">
        <ele>540.4</ele>
        <time>2016-04-14T11:44:33Z</time>
      </trkpt>
      <trkpt lat="45.96196" lon="1.28703">
        <ele>539.44</ele>
        <time>2016-04-14T11:44:41Z</time>
      </trkpt>
      <trkpt lat="45.96177" lon="1.28728">
        <ele>538.48</ele>
        <time>2016-04-14T11:44:49Z</time>
      </trkpt>
      <trkpt lat="45.96168" lon="1.28753">
        <ele>535.59</ele>
        <time>2016-04-14T11:44:53Z</time>
      </trkpt>
      <trkpt lat="45.96168" lon="1.2876">
        <ele>535.11</ele>
        <time>2016-04-14T11:44:54Z</time>
      </trkpt>
      <trkpt lat="45.96168" lon="1.28766">
        <ele>535.11</ele>
        <time>2016-04-14T11:44:55Z</time>
      </trkpt>
      <trkpt lat="45.96168" lon="1.28771">
        <ele>535.11</ele>
        <time>2016-04-14T11:44:56Z</time>
      </trkpt>
      <trkpt lat="45.96168" lon="1.28777">
        <ele>534.63</ele>
        <time>2016-04-14T11:44:57Z</time>
      </trkpt>
      <trkpt lat="45.96164" lon="1.28821">
        <ele>531.75</ele>
        <time>2016-04-14T11:45:05Z</time>
      </trkpt>
      <trkpt lat="45.96154" lon="1.28869">
        <ele>527.9</ele>
        <time>2016-04-14T11:45:12Z</time>
      </trkpt>
      <trkpt lat="45.96153" lon="1.28877">
        <ele>527.42</ele>
        <time>2016-04-14T11:45:13Z</time>
      </trkpt>
      <trkpt lat="45.96146" lon="1.2892">
        <ele>523.58</ele>
        <time>2016-04-14T11:45:18Z</time>
      </trkpt>
      <trkpt lat="45.96138" lon="1.28945">
        <ele>520.69</ele>
        <time>2016-04-14T11:45:21Z</time>
      </trkpt>
      <trkpt lat="45.96131" lon="1.28965">
        <ele>518.29</ele>
        <time>2016-04-14T11:45:24Z</time>
      </trkpt>
      <trkpt lat="45.96128" lon="1.28969">
        <ele>517.81</ele>
        <time>2016-04-14T11:45:25Z</time>
      </trkpt>
      <trkpt lat="45.96125" lon="1.28972">
        <ele>516.85</ele>
        <time>2016-04-14T11:45:26Z</time>
      </trkpt>
      <trkpt lat="45.96121" lon="1.28974">
        <ele>515.88</ele>
        <time>2016-04-14T11:45:27Z</time>
      </trkpt>
      <trkpt lat="45.96117" lon="1.28975">
        <ele>515.4</ele>
        <time>2016-04-14T11:45:28Z</time>
      </trkpt>
      <trkpt lat="45.96112" lon="1.28976">
        <ele>514.92</ele>
        <time>2016-04-14T11:45:29Z</time>
      </trkpt>
      <trkpt lat="45.96101" lon="1.28979">
        <ele>513.48</ele>
        <time>2016-04-14T11:45:31Z</time>
      </trkpt>
      <trkpt lat="45.96086" lon="1.28982">
        <ele>509.64</ele>
        <time>2016-04-14T11:45:34Z</time>
      </trkpt>
      <trkpt lat="45.9608" lon="1.28981">
        <ele>508.67</ele>
        <time>2016-04-14T11:45:35Z</time>
      </trkpt>
      <trkpt lat="45.96074" lon="1.28979">
        <ele>507.71</ele>
        <time>2016-04-14T11:45:36Z</time>
      </trkpt>
      <trkpt lat="45.96068" lon="1.28978">
        <ele>507.23</ele>
        <time>2016-04-14T11:45:37Z</time>
      </trkpt>
      <trkpt lat="45.96062" lon="1.28979">
        <ele>506.27</ele>
        <time>2016-04-14T11:45:38Z</time>
      </trkpt>
      <trkpt lat="45.96057" lon="1.28982">
        <ele>505.31</ele>
        <time>2016-04-14T11:45:39Z</time>
      </trkpt>
      <trkpt lat="45.96054" lon="1.28987">
        <ele>505.31</ele>
        <time>2016-04-14T11:45:40Z</time>
      </trkpt>
      <trkpt lat="45.96052" lon="1.28991">
        <ele>505.31</ele>
        <time>2016-04-14T11:45:41Z</time>
      </trkpt>
      <trkpt lat="45.9605" lon="1.28994">
        <ele>504.83</ele>
        <time>2016-04-14T11:45:42Z</time>
      </trkpt>
      <trkpt lat="45.96048" lon="1.28996">
        <ele>503.87</ele>
        <time>2016-04-14T11:45:43Z</time>
      </trkpt>
      <trkpt lat="45.96045" lon="1.28998">
        <ele>503.39</ele>
        <time>2016-04-14T11:45:44Z</time>
      </trkpt>
      <trkpt lat="45.96041" lon="1.29">
        <ele>502.91</ele>
        <time>2016-04-14T11:45:45Z</time>
      </trkpt>
      <trkpt lat="45.96037" lon="1.29004">
        <ele>501.95</ele>
        <time>2016-04-14T11:45:46Z</time>
      </trkpt>
      <trkpt lat="45.96034" lon="1.29008">
        <ele>500.98</ele>
        <time>2016-04-14T11:45:47Z</time>
      </trkpt>
      <trkpt lat="45.96031" lon="1.29013">
        <ele>500.5</ele>
        <time>2016-04-14T11:45:48Z</time>
      </trkpt>
      <trkpt lat="45.96028" lon="1.29018">
        <ele>500.02</ele>
        <time>2016-04-14T11:45:49Z</time>
      </trkpt>
      <trkpt lat="45.96025" lon="1.29022">
        <ele>499.54</ele>
        <time>2016-04-14T11:45:50Z</time>
      </trkpt>
      <trkpt lat="45.96021" lon="1.29026">
        <ele>499.06</ele>
        <time>2016-04-14T11:45:51Z</time>
      </trkpt>
      <trkpt lat="45.96017" lon="1.29028">
        <ele>499.06</ele>
        <time>2016-04-14T11:45:52Z</time>
      </trkpt>
      <trkpt lat="45.96012" lon="1.2903">
        <ele>498.1</ele>
        <time>2016-04-14T11:45:53Z</time>
      </trkpt>
      <trkpt lat="45.95992" lon="1.2904">
        <ele>494.74</ele>
        <time>2016-04-14T11:45:57Z</time>
      </trkpt>
      <trkpt lat="45.95987" lon="1.29044">
        <ele>494.74</ele>
        <time>2016-04-14T11:45:58Z</time>
      </trkpt>
      <trkpt lat="45.95983" lon="1.29048">
        <ele>494.26</ele>
        <time>2016-04-14T11:45:59Z</time>
      </trkpt>
      <trkpt lat="45.9597" lon="1.2906">
        <ele>493.29</ele>
        <time>2016-04-14T11:46:02Z</time>
      </trkpt>
      <trkpt lat="45.95966" lon="1.29062">
        <ele>492.81</ele>
        <time>2016-04-14T11:46:03Z</time>
      </trkpt>
      <trkpt lat="45.95952" lon="1.29071">
        <ele>490.89</ele>
        <time>2016-04-14T11:46:07Z</time>
      </trkpt>
      <trkpt lat="45.95948" lon="1.29075">
        <ele>490.41</ele>
        <time>2016-04-14T11:46:08Z</time>
      </trkpt>
      <trkpt lat="45.95941" lon="1.29083">
        <ele>488.97</ele>
        <time>2016-04-14T11:46:10Z</time>
      </trkpt>
      <trkpt lat="45.95918" lon="1.29103">
        <ele>485.6</ele>
        <time>2016-04-14T11:46:16Z</time>
      </trkpt>
      <trkpt lat="45.95915" lon="1.29106">
        <ele>485.12</ele>
        <time>2016-04-14T11:46:17Z</time>
      </trkpt>
      <trkpt lat="45.9591" lon="1.29109">
        <ele>484.16</ele>
        <time>2016-04-14T11:46:18Z</time>
      </trkpt>
      <trkpt lat="45.95905" lon="1.29111">
        <ele>483.68</ele>
        <time>2016-04-14T11:46:19Z</time>
      </trkpt>
      <trkpt lat="45.95882" lon="1.29113">
        <ele>481.76</ele>
        <time>2016-04-14T11:46:25Z</time>
      </trkpt>
      <trkpt lat="45.9588" lon="1.29111">
        <ele>481.28</ele>
        <time>2016-04-14T11:46:26Z</time>
      </trkpt>
      <trkpt lat="45.95878" lon="1.29109">
        <ele>480.8</ele>
        <time>2016-04-14T11:46:27Z</time>
      </trkpt>
      <trkpt lat="45.95878" lon="1.29106">
        <ele>480.8</ele>
        <time>2016-04-14T11:46:28Z</time>
      </trkpt>
      <trkpt lat="45.95878" lon="1.29102">
        <ele>480.32</ele>
        <time>2016-04-14T11:46:29Z</time>
      </trkpt>
      <trkpt lat="45.95879" lon="1.29098">
        <ele>480.32</ele>
        <time>2016-04-14T11:46:30Z</time>
      </trkpt>
      <trkpt lat="45.95879" lon="1.29095">
        <ele>479.35</ele>
        <time>2016-04-14T11:46:31Z</time>
      </trkpt>
      <trkpt lat="45.95875" lon="1.29088">
        <ele>477.91</ele>
        <time>2016-04-14T11:46:34Z</time>
      </trkpt>
      <trkpt lat="45.95873" lon="1.29088">
        <ele>477.43</ele>
        <time>2016-04-14T11:46:35Z</time>
      </trkpt>
      <trkpt lat="45.95871" lon="1.29089">
        <ele>476.95</ele>
        <time>2016-04-14T11:46:36Z</time>
      </trkpt>
      <trkpt lat="45.95868" lon="1.29092">
        <ele>476.47</ele>
        <time>2016-04-14T11:46:37Z</time>
      </trkpt>
      <trkpt lat="45.95866" lon="1.29095">
        <ele>475.51</ele>
        <time>2016-04-14T11:46:38Z</time>
      </trkpt>
      <trkpt lat="45.95863" lon="1.291">
        <ele>475.51</ele>
        <time>2016-04-14T11:46:39Z</time>
      </trkpt>
      <trkpt lat="45.95859" lon="1.29107">
        <ele>474.55</ele>
        <time>2016-04-14T11:46:40Z</time>
      </trkpt>
      <trkpt lat="45.95855" lon="1.29113">
        <ele>474.07</ele>
        <time>2016-04-14T11:46:41Z</time>
      </trkpt>
      <trkpt lat="45.95852" lon="1.2912">
        <ele>473.59</ele>
        <time>2016-04-14T11:46:42Z</time>
      </trkpt>
      <trkpt lat="45.9585" lon="1.29127">
        <ele>473.11</ele>
        <time>2016-04-14T11:46:43Z</time>
      </trkpt>
      <trkpt lat="45.95848" lon="1.29134">
        <ele>473.11</ele>
        <time>2016-04-14T11:46:44Z</time>
      </trkpt>
      <trkpt lat="45.95846" lon="1.29142">
        <ele>472.63</ele>
        <time>2016-04-14T11:46:45Z</time>
      </trkpt>
      <trkpt lat="45.95844" lon="1.29149">
        <ele>472.14</ele>
        <time>2016-04-14T11:46:46Z</time>
      </trkpt>
      <trkpt lat="45.95841" lon="1.29163">
        <ele>470.7</ele>
        <time>2016-04-14T11:46:48Z</time>
      </trkpt>
      <trkpt lat="45.95838" lon="1.2917">
        <ele>470.22</ele>
        <time>2016-04-14T11:46:49Z</time>
      </trkpt>
      <trkpt lat="45.95831" lon="1.29188">
        <ele>468.3</ele>
        <time>2016-04-14T11:46:52Z</time>
      </trkpt>
      <trkpt lat="45.9583" lon="1.29195">
        <ele>467.34</ele>
        <time>2016-04-14T11:46:53Z</time>
      </trkpt>
      <trkpt lat="45.9583" lon="1.29201">
        <ele>466.86</ele>
        <time>2016-04-14T11:46:54Z</time>
      </trkpt>
      <trkpt lat="45.95832" lon="1.29208">
        <ele>466.38</ele>
        <time>2016-04-14T11:46:55Z</time>
      </trkpt>
      <trkpt lat="45.95833" lon="1.29214">
        <ele>465.42</ele>
        <time>2016-04-14T11:46:56Z</time>
      </trkpt>
      <trkpt lat="45.95835" lon="1.2922">
        <ele>465.42</ele>
        <time>2016-04-14T11:46:57Z</time>
      </trkpt>
      <trkpt lat="45.95837" lon="1.29225">
        <ele>465.42</ele>
        <time>2016-04-14T11:46:58Z</time>
      </trkpt>
      <trkpt lat="45.9584" lon="1.29229">
        <ele>464.45</ele>
        <time>2016-04-14T11:46:59Z</time>
      </trkpt>
      <trkpt lat="45.95844" lon="1.29233">
        <ele>464.45</ele>
        <time>2016-04-14T11:47:00Z</time>
      </trkpt>
      <trkpt lat="45.95848" lon="1.29236">
        <ele>463.49</ele>
        <time>2016-04-14T11:47:01Z</time>
      </trkpt>
      <trkpt lat="45.95852" lon="1.29239">
        <ele>463.01</ele>
        <time>2016-04-14T11:47:02Z</time>
      </trkpt>
      <trkpt lat="45.95857" lon="1.29241">
        <ele>462.53</ele>
        <time>2016-04-14T11:47:03Z</time>
      </trkpt>
      <trkpt lat="45.9587" lon="1.29246">
        <ele>461.09</ele>
        <time>2016-04-14T11:47:06Z</time>
      </trkpt>
      <trkpt lat="45.95884" lon="1.29249">
        <ele>458.69</ele>
        <time>2016-04-14T11:47:11Z</time>
      </trkpt>
      <trkpt lat="45.95885" lon="1.29251">
        <ele>458.21</ele>
        <time>2016-04-14T11:47:12Z</time>
      </trkpt>
      <trkpt lat="45.95887" lon="1.29256">
        <ele>457.24</ele>
        <time>2016-04-14T11:47:13Z</time>
      </trkpt>
      <trkpt lat="45.95887" lon="1.29261">
        <ele>456.76</ele>
        <time>2016-04-14T11:47:14Z</time>
      </trkpt>
      <trkpt lat="45.95888" lon="1.29268">
        <ele>456.28</ele>
        <time>2016-04-14T11:47:15Z</time>
      </trkpt>
      <trkpt lat="45.95887" lon="1.29277">
        <ele>454.84</ele>
        <time>2016-04-14T11:47:17Z</time>
      </trkpt>
      <trkpt lat="45.9588" lon="1.2928">
        <ele>452.92</ele>
        <time>2016-04-14T11:47:20Z</time>
      </trkpt>
      <trkpt lat="45.95876" lon="1.29281">
        <ele>451.96</ele>
        <time>2016-04-14T11:47:21Z</time>
      </trkpt>
      <trkpt lat="45.95867" lon="1.29282">
        <ele>451</ele>
        <time>2016-04-14T11:47:23Z</time>
      </trkpt>
      <trkpt lat="45.9585" lon="1.29283">
        <ele>448.11</ele>
        <time>2016-04-14T11:47:27Z</time>
      </trkpt>
      <trkpt lat="45.95845" lon="1.29284">
        <ele>447.63</ele>
        <time>2016-04-14T11:47:28Z</time>
      </trkpt>
      <trkpt lat="45.9584" lon="1.29286">
        <ele>447.63</ele>
        <time>2016-04-14T11:47:29Z</time>
      </trkpt>
      <trkpt lat="45.95834" lon="1.29288">
        <ele>446.19</ele>
        <time>2016-04-14T11:47:30Z</time>
      </trkpt>
      <trkpt lat="45.95825" lon="1.29293">
        <ele>445.71</ele>
        <time>2016-04-14T11:47:32Z</time>
      </trkpt>
      <trkpt lat="45.95818" lon="1.29299">
        <ele>443.79</ele>
        <time>2016-04-14T11:47:34Z</time>
      </trkpt>
      <trkpt lat="45.95811" lon="1.29307">
        <ele>442.34</ele>
        <time>2016-04-14T11:47:36Z</time>
      </trkpt>
      <trkpt lat="45.95798" lon="1.29332">
        <ele>439.46</ele>
        <time>2016-04-14T11:47:40Z</time>
      </trkpt>
      <trkpt lat="45.95789" lon="1.29365">
        <ele>438.02</ele>
        <time>2016-04-14T11:47:46Z</time>
      </trkpt>
      <trkpt lat="45.95772" lon="1.29386">
        <ele>433.69</ele>
        <time>2016-04-14T11:47:54Z</time>
      </trkpt>
      <trkpt lat="45.95769" lon="1.29389">
        <ele>433.69</ele>
        <time>2016-04-14T11:47:55Z</time>
      </trkpt>
      <trkpt lat="45.95755" lon="1.29381">
        <ele>432.25</ele>
        <time>2016-04-14T11:48:00Z</time>
      </trkpt>
      <trkpt lat="45.95746" lon="1.2937">
        <ele>430.33</ele>
        <time>2016-04-14T11:48:05Z</time>
      </trkpt>
      <trkpt lat="45.9574" lon="1.29364">
        <ele>429.37</ele>
        <time>2016-04-14T11:48:09Z</time>
      </trkpt>
      <trkpt lat="45.95733" lon="1.29366">
        <ele>429.37</ele>
        <time>2016-04-14T11:48:13Z</time>
      </trkpt>
      <trkpt lat="45.95732" lon="1.29368">
        <ele>428.4</ele>
        <time>2016-04-14T11:48:14Z</time>
      </trkpt>
      <trkpt lat="45.9573" lon="1.2937">
        <ele>428.4</ele>
        <time>2016-04-14T11:48:15Z</time>
      </trkpt>
      <trkpt lat="45.95729" lon="1.29372">
        <ele>428.4</ele>
        <time>2016-04-14T11:48:16Z</time>
      </trkpt>
      <trkpt lat="45.95727" lon="1.29375">
        <ele>428.4</ele>
        <time>2016-04-14T11:48:17Z</time>
      </trkpt>
      <trkpt lat="45.95724" lon="1.29377">
        <ele>427.92</ele>
        <time>2016-04-14T11:48:18Z</time>
      </trkpt>
      <trkpt lat="45.95722" lon="1.29379">
        <ele>427.44</ele>
        <time>2016-04-14T11:48:19Z</time>
      </trkpt>
      <trkpt lat="45.95718" lon="1.2938">
        <ele>426.96</ele>
        <time>2016-04-14T11:48:20Z</time>
      </trkpt>
      <trkpt lat="45.95715" lon="1.2938">
        <ele>426.96</ele>
        <time>2016-04-14T11:48:21Z</time>
      </trkpt>
      <trkpt lat="45.95711" lon="1.2938">
        <ele>426</ele>
        <time>2016-04-14T11:48:22Z</time>
      </trkpt>
      <trkpt lat="45.95707" lon="1.29382">
        <ele>427.44</ele>
        <time>2016-04-14T11:48:27Z</time>
      </trkpt>
      <trkpt lat="45.9569" lon="1.29397">
        <ele>427.44</ele>
        <time>2016-04-14T11:48:39Z</time>
      </trkpt>
      <trkpt lat="45.9566" lon="1.29409">
        <ele>428.89</ele>
        <time>2016-04-14T11:48:53Z</time>
      </trkpt>
      <trkpt lat="45.95631" lon="1.29384">
        <ele>428.89</ele>
        <time>2016-04-14T11:49:06Z</time>
      </trkpt>
      <trkpt lat="45.95594" lon="1.29357">
        <ele>428.4</ele>
        <time>2016-04-14T11:49:18Z</time>
      </trkpt>
      <trkpt lat="45.9557" lon="1.2935">
        <ele>426.48</ele>
        <time>2016-04-14T11:49:23Z</time>
      </trkpt>
      <trkpt lat="45.95553" lon="1.29348">
        <ele>424.08</ele>
        <time>2016-04-14T11:49:27Z</time>
      </trkpt>
      <trkpt lat="45.95549" lon="1.29346">
        <ele>424.08</ele>
        <time>2016-04-14T11:49:28Z</time>
      </trkpt>
      <trkpt lat="45.95544" lon="1.29345">
        <ele>423.6</ele>
        <time>2016-04-14T11:49:29Z</time>
      </trkpt>
      <trkpt lat="45.95539" lon="1.29344">
        <ele>422.64</ele>
        <time>2016-04-14T11:49:30Z</time>
      </trkpt>
      <trkpt lat="45.95534" lon="1.29344">
        <ele>422.16</ele>
        <time>2016-04-14T11:49:31Z</time>
      </trkpt>
      <trkpt lat="45.95529" lon="1.29345">
        <ele>421.68</ele>
        <time>2016-04-14T11:49:32Z</time>
      </trkpt>
      <trkpt lat="45.95523" lon="1.29346">
        <ele>421.68</ele>
        <time>2016-04-14T11:49:33Z</time>
      </trkpt>
      <trkpt lat="45.955" lon="1.2935">
        <ele>420.71</ele>
        <time>2016-04-14T11:49:37Z</time>
      </trkpt>
      <trkpt lat="45.95495" lon="1.29351">
        <ele>419.75</ele>
        <time>2016-04-14T11:49:38Z</time>
      </trkpt>
      <trkpt lat="45.95491" lon="1.29353">
        <ele>419.75</ele>
        <time>2016-04-14T11:49:39Z</time>
      </trkpt>
      <trkpt lat="45.95482" lon="1.29358">
        <ele>418.31</ele>
        <time>2016-04-14T11:49:41Z</time>
      </trkpt>
      <trkpt lat="45.95465" lon="1.2937">
        <ele>416.87</ele>
        <time>2016-04-14T11:49:44Z</time>
      </trkpt>
      <trkpt lat="45.95412" lon="1.29423">
        <ele>415.43</ele>
        <time>2016-04-14T11:49:55Z</time>
      </trkpt>
      <trkpt lat="45.95404" lon="1.29434">
        <ele>415.43</ele>
        <time>2016-04-14T11:49:57Z</time>
      </trkpt>
      <trkpt lat="45.95401" lon="1.2944">
        <ele>415.43</ele>
        <time>2016-04-14T11:49:58Z</time>
      </trkpt>
      <trkpt lat="45.95397" lon="1.29445">
        <ele>415.43</ele>
        <time>2016-04-14T11:49:59Z</time>
      </trkpt>
      <trkpt lat="45.95393" lon="1.2945">
        <ele>414.47</ele>
        <time>2016-04-14T11:50:00Z</time>
      </trkpt>
      <trkpt lat="45.95389" lon="1.29455">
        <ele>413.98</ele>
        <time>2016-04-14T11:50:01Z</time>
      </trkpt>
      <trkpt lat="45.95384" lon="1.29459">
        <ele>413.98</ele>
        <time>2016-04-14T11:50:02Z</time>
      </trkpt>
      <trkpt lat="45.9538" lon="1.29462">
        <ele>413.98</ele>
        <time>2016-04-14T11:50:03Z</time>
      </trkpt>
      <trkpt lat="45.95376" lon="1.29464">
        <ele>413.98</ele>
        <time>2016-04-14T11:50:04Z</time>
      </trkpt>
      <trkpt lat="45.95372" lon="1.29464">
        <ele>413.98</ele>
        <time>2016-04-14T11:50:05Z</time>
      </trkpt>
      <trkpt lat="45.95369" lon="1.29464">
        <ele>413.98</ele>
        <time>2016-04-14T11:50:06Z</time>
      </trkpt>
      <trkpt lat="45.95366" lon="1.29462">
        <ele>413.98</ele>
        <time>2016-04-14T11:50:07Z</time>
      </trkpt>
      <trkpt lat="45.95364" lon="1.29459">
        <ele>413.98</ele>
        <time>2016-04-14T11:50:08Z</time>
      </trkpt>
      <trkpt lat="45.95362" lon="1.29456">
        <ele>413.5</ele>
        <time>2016-04-14T11:50:09Z</time>
      </trkpt>
      <trkpt lat="45.95361" lon="1.29453">
        <ele>413.5</ele>
        <time>2016-04-14T11:50:10Z</time>
      </trkpt>
      <trkpt lat="45.95359" lon="1.2945">
        <ele>413.02</ele>
        <time>2016-04-14T11:50:11Z</time>
      </trkpt>
      <trkpt lat="45.95357" lon="1.29447">
        <ele>412.54</ele>
        <time>2016-04-14T11:50:12Z</time>
      </trkpt>
      <trkpt lat="45.95355" lon="1.29444">
        <ele>412.06</ele>
        <time>2016-04-14T11:50:13Z</time>
      </trkpt>
      <trkpt lat="45.95352" lon="1.2944">
        <ele>411.58</ele>
        <time>2016-04-14T11:50:14Z</time>
      </trkpt>
      <trkpt lat="45.95348" lon="1.29436">
        <ele>411.58</ele>
        <time>2016-04-14T11:50:15Z</time>
      </trkpt>
      <trkpt lat="45.95344" lon="1.29433">
        <ele>411.58</ele>
        <time>2016-04-14T11:50:16Z</time>
      </trkpt>
      <trkpt lat="45.95325" lon="1.2942">
        <ele>410.62</ele>
        <time>2016-04-14T11:50:20Z</time>
      </trkpt>
      <trkpt lat="45.95288" lon="1.29402">
        <ele>409.18</ele>
        <time>2016-04-14T11:50:28Z</time>
      </trkpt>
      <trkpt lat="45.95283" lon="1.29398">
        <ele>409.18</ele>
        <time>2016-04-14T11:50:29Z</time>
      </trkpt>
      <trkpt lat="45.9528" lon="1.29393">
        <ele>408.22</ele>
        <time>2016-04-14T11:50:30Z</time>
      </trkpt>
      <trkpt lat="45.95278" lon="1.29387">
        <ele>407.26</ele>
        <time>2016-04-14T11:50:31Z</time>
      </trkpt>
      <trkpt lat="45.95276" lon="1.2938">
        <ele>406.29</ele>
        <time>2016-04-14T11:50:32Z</time>
      </trkpt>
      <trkpt lat="45.95275" lon="1.29373">
        <ele>405.81</ele>
        <time>2016-04-14T11:50:33Z</time>
      </trkpt>
      <trkpt lat="45.95275" lon="1.29365">
        <ele>404.85</ele>
        <time>2016-04-14T11:50:34Z</time>
      </trkpt>
      <trkpt lat="45.95274" lon="1.29357">
        <ele>404.85</ele>
        <time>2016-04-14T11:50:35Z</time>
      </trkpt>
      <trkpt lat="45.9527" lon="1.29343">
        <ele>404.37</ele>
        <time>2016-04-14T11:50:37Z</time>
      </trkpt>
      <trkpt lat="45.95266" lon="1.29339">
        <ele>404.37</ele>
        <time>2016-04-14T11:50:38Z</time>
      </trkpt>
      <trkpt lat="45.95261" lon="1.29334">
        <ele>403.89</ele>
        <time>2016-04-14T11:50:39Z</time>
      </trkpt>
      <trkpt lat="45.95256" lon="1.29332">
        <ele>403.89</ele>
        <time>2016-04-14T11:50:40Z</time>
      </trkpt>
      <trkpt lat="45.95252" lon="1.29331">
        <ele>403.89</ele>
        <time>2016-04-14T11:50:41Z</time>
      </trkpt>
      <trkpt lat="45.95248" lon="1.29332">
        <ele>403.89</ele>
        <time>2016-04-14T11:50:42Z</time>
      </trkpt>
      <trkpt lat="45.95243" lon="1.29333">
        <ele>403.89</ele>
        <time>2016-04-14T11:50:43Z</time>
      </trkpt>
      <trkpt lat="45.95206" lon="1.29319">
        <ele>403.89</ele>
        <time>2016-04-14T11:50:54Z</time>
      </trkpt>
      <trkpt lat="45.95178" lon="1.29282">
        <ele>405.81</ele>
        <time>2016-04-14T11:51:05Z</time>
      </trkpt>
      <trkpt lat="45.95152" lon="1.29259">
        <ele>404.85</ele>
        <time>2016-04-14T11:51:12Z</time>
      </trkpt>
      <trkpt lat="45.95121" lon="1.29247">
        <ele>403.41</ele>
        <time>2016-04-14T11:51:22Z</time>
      </trkpt>
      <trkpt lat="45.95117" lon="1.29244">
        <ele>403.41</ele>
        <time>2016-04-14T11:51:23Z</time>
      </trkpt>
      <trkpt lat="45.95114" lon="1.2924">
        <ele>403.41</ele>
        <time>2016-04-14T11:51:24Z</time>
      </trkpt>
      <trkpt lat="45.95113" lon="1.29237">
        <ele>402.93</ele>
        <time>2016-04-14T11:51:25Z</time>
      </trkpt>
      <trkpt lat="45.95112" lon="1.29233">
        <ele>402.93</ele>
        <time>2016-04-14T11:51:26Z</time>
      </trkpt>
      <trkpt lat="45.95112" lon="1.2923">
        <ele>402.93</ele>
        <time>2016-04-14T11:51:27Z</time>
      </trkpt>
      <trkpt lat="45.95112" lon="1.29227">
        <ele>402.45</ele>
        <time>2016-04-14T11:51:28Z</time>
      </trkpt>
      <trkpt lat="45.95111" lon="1.29223">
        <ele>402.45</ele>
        <time>2016-04-14T11:51:29Z</time>
      </trkpt>
      <trkpt lat="45.95101" lon="1.29175">
        <ele>402.45</ele>
        <time>2016-04-14T11:51:38Z</time>
      </trkpt>
      <trkpt lat="45.95101" lon="1.29166">
        <ele>402.45</ele>
        <time>2016-04-14T11:51:40Z</time>
      </trkpt>
      <trkpt lat="45.95099" lon="1.29162">
        <ele>402.45</ele>
        <time>2016-04-14T11:51:41Z</time>
      </trkpt>
      <trkpt lat="45.95097" lon="1.29159">
        <ele>402.45</ele>
        <time>2016-04-14T11:51:42Z</time>
      </trkpt>
      <trkpt lat="45.95095" lon="1.29156">
        <ele>402.45</ele>
        <time>2016-04-14T11:51:43Z</time>
      </trkpt>
      <trkpt lat="45.95091" lon="1.29152">
        <ele>402.45</ele>
        <time>2016-04-14T11:51:44Z</time>
      </trkpt>
      <trkpt lat="45.95088" lon="1.2915">
        <ele>402.45</ele>
        <time>2016-04-14T11:51:45Z</time>
      </trkpt>
      <trkpt lat="45.95042" lon="1.29117">
        <ele>401.97</ele>
        <time>2016-04-14T11:51:58Z</time>
      </trkpt>
      <trkpt lat="45.9499" lon="1.29107">
        <ele>399.57</ele>
        <time>2016-04-14T11:52:11Z</time>
      </trkpt>
      <trkpt lat="45.94984" lon="1.29107">
        <ele>399.08</ele>
        <time>2016-04-14T11:52:12Z</time>
      </trkpt>
      <trkpt lat="45.9495" lon="1.29095">
        <ele>398.6</ele>
        <time>2016-04-14T11:52:19Z</time>
      </trkpt>
      <trkpt lat="45.94937" lon="1.29061">
        <ele>399.08</ele>
        <time>2016-04-14T11:52:28Z</time>
      </trkpt>
      <trkpt lat="45.94935" lon="1.29061">
        <ele>399.08</ele>
        <time>2016-04-14T11:52:29Z</time>
      </trkpt>
      <trkpt lat="45.94932" lon="1.29061">
        <ele>399.08</ele>
        <time>2016-04-14T11:52:30Z</time>
      </trkpt>
      <trkpt lat="45.94929" lon="1.29061">
        <ele>399.08</ele>
        <time>2016-04-14T11:52:31Z</time>
      </trkpt>
      <trkpt lat="45.94927" lon="1.29062">
        <ele>399.08</ele>
        <time>2016-04-14T11:52:32Z</time>
      </trkpt>
      <trkpt lat="45.94925" lon="1.29063">
        <ele>399.08</ele>
        <time>2016-04-14T11:52:33Z</time>
      </trkpt>
      <trkpt lat="45.94924" lon="1.29063">
        <ele>399.08</ele>
        <time>2016-04-14T11:52:34Z</time>
      </trkpt>
      <trkpt lat="45.94923" lon="1.29064">
        <ele>399.08</ele>
        <time>2016-04-14T11:52:35Z</time>
      </trkpt>
      <trkpt lat="45.94921" lon="1.29065">
        <ele>399.08</ele>
        <time>2016-04-14T11:52:36Z</time>
      </trkpt>
      <trkpt lat="45.9492" lon="1.29066">
        <ele>399.08</ele>
        <time>2016-04-14T11:52:37Z</time>
      </trkpt>
      <trkpt lat="45.94918" lon="1.29066">
        <ele>399.08</ele>
        <time>2016-04-14T11:52:38Z</time>
      </trkpt>
      <trkpt lat="45.94917" lon="1.29066">
        <ele>399.08</ele>
        <time>2016-04-14T11:52:39Z</time>
      </trkpt>
      <trkpt lat="45.94915" lon="1.29065">
        <ele>400.05</ele>
        <time>2016-04-14T11:52:40Z</time>
      </trkpt>
      <trkpt lat="45.94914" lon="1.29064">
        <ele>400.05</ele>
        <time>2016-04-14T11:52:41Z</time>
      </trkpt>
      <trkpt lat="45.94914" lon="1.29063">
        <ele>400.05</ele>
        <time>2016-04-14T11:52:42Z</time>
      </trkpt>
      <trkpt lat="45.94915" lon="1.29059">
        <ele>401.01</ele>
        <time>2016-04-14T11:52:45Z</time>
      </trkpt>
      <trkpt lat="45.94915" lon="1.29058">
        <ele>401.01</ele>
        <time>2016-04-14T11:52:46Z</time>
      </trkpt>
      <trkpt lat="45.94916" lon="1.29057">
        <ele>401.01</ele>
        <time>2016-04-14T11:52:47Z</time>
      </trkpt>
      <trkpt lat="45.94916" lon="1.29055">
        <ele>401.01</ele>
        <time>2016-04-14T11:52:48Z</time>
      </trkpt>
      <trkpt lat="45.94917" lon="1.29053">
        <ele>401.49</ele>
        <time>2016-04-14T11:52:49Z</time>
      </trkpt>
      <trkpt lat="45.94918" lon="1.29051">
        <ele>401.49</ele>
        <time>2016-04-14T11:52:50Z</time>
      </trkpt>
      <trkpt lat="45.94918" lon="1.2905">
        <ele>401.49</ele>
        <time>2016-04-14T11:52:51Z</time>
      </trkpt>
      <trkpt lat="45.94926" lon="1.29023">
        <ele>404.37</ele>
        <time>2016-04-14T11:53:04Z</time>
      </trkpt>
      <trkpt lat="45.94931" lon="1.29005">
        <ele>407.74</ele>
        <time>2016-04-14T11:53:17Z</time>
      </trkpt>
      <trkpt lat="45.94932" lon="1.28999">
        <ele>408.22</ele>
        <time>2016-04-14T11:53:22Z</time>
      </trkpt>
      <trkpt lat="45.94933" lon="1.28998">
        <ele>408.7</ele>
        <time>2016-04-14T11:53:23Z</time>
      </trkpt>
      <trkpt lat="45.94934" lon="1.28997">
        <ele>408.7</ele>
        <time>2016-04-14T11:53:24Z</time>
      </trkpt>
      <trkpt lat="45.94944" lon="1.28976">
        <ele>410.62</ele>
        <time>2016-04-14T11:53:36Z</time>
      </trkpt>
      <trkpt lat="45.94958" lon="1.28941">
        <ele>410.62</ele>
        <time>2016-04-14T11:53:49Z</time>
      </trkpt>
      <trkpt lat="45.94967" lon="1.28899">
        <ele>411.1</ele>
        <time>2016-04-14T11:54:01Z</time>
      </trkpt>
      <trkpt lat="45.94972" lon="1.28853">
        <ele>412.06</ele>
        <time>2016-04-14T11:54:13Z</time>
      </trkpt>
      <trkpt lat="45.94987" lon="1.28828">
        <ele>409.66</ele>
        <time>2016-04-14T11:54:21Z</time>
      </trkpt>
      <trkpt lat="45.9499" lon="1.28823">
        <ele>409.18</ele>
        <time>2016-04-14T11:54:22Z</time>
      </trkpt>
      <trkpt lat="45.94992" lon="1.28817">
        <ele>408.7</ele>
        <time>2016-04-14T11:54:23Z</time>
      </trkpt>
      <trkpt lat="45.94994" lon="1.2881">
        <ele>408.22</ele>
        <time>2016-04-14T11:54:24Z</time>
      </trkpt>
      <trkpt lat="45.94995" lon="1.28802">
        <ele>407.74</ele>
        <time>2016-04-14T11:54:25Z</time>
      </trkpt>
      <trkpt lat="45.94997" lon="1.28782">
        <ele>406.77</ele>
        <time>2016-04-14T11:54:28Z</time>
      </trkpt>
      <trkpt lat="45.95009" lon="1.28767">
        <ele>405.81</ele>
        <time>2016-04-14T11:54:32Z</time>
      </trkpt>
      <trkpt lat="45.95025" lon="1.28758">
        <ele>407.26</ele>
        <time>2016-04-14T11:54:39Z</time>
      </trkpt>
      <trkpt lat="45.95028" lon="1.28756">
        <ele>407.26</ele>
        <time>2016-04-14T11:54:41Z</time>
      </trkpt>
      <trkpt lat="45.95036" lon="1.28735">
        <ele>410.14</ele>
        <time>2016-04-14T11:54:53Z</time>
      </trkpt>
      <trkpt lat="45.9505" lon="1.28722">
        <ele>413.5</ele>
        <time>2016-04-14T11:55:05Z</time>
      </trkpt>
      <trkpt lat="45.95057" lon="1.28714">
        <ele>414.95</ele>
        <time>2016-04-14T11:55:12Z</time>
      </trkpt>
      <trkpt lat="45.95068" lon="1.28697">
        <ele>418.31</ele>
        <time>2016-04-14T11:55:27Z</time>
      </trkpt>
      <trkpt lat="45.95077" lon="1.28672">
        <ele>420.71</ele>
        <time>2016-04-14T11:55:42Z</time>
      </trkpt>
      <trkpt lat="45.95077" lon="1.28647">
        <ele>422.16</ele>
        <time>2016-04-14T11:55:56Z</time>
      </trkpt>
      <trkpt lat="45.95074" lon="1.28622">
        <ele>422.16</ele>
        <time>2016-04-14T11:56:05Z</time>
      </trkpt>
      <trkpt lat="45.95075" lon="1.28619">
        <ele>421.19</ele>
        <time>2016-04-14T11:56:06Z</time>
      </trkpt>
      <trkpt lat="45.95068" lon="1.28597">
        <ele>419.27</ele>
        <time>2016-04-14T11:56:10Z</time>
      </trkpt>
      <trkpt lat="45.95054" lon="1.28542">
        <ele>419.75</ele>
        <time>2016-04-14T11:56:18Z</time>
      </trkpt>
      <trkpt lat="45.95049" lon="1.28523">
        <ele>421.19</ele>
        <time>2016-04-14T11:56:24Z</time>
      </trkpt>
      <trkpt lat="45.95048" lon="1.28516">
        <ele>422.16</ele>
        <time>2016-04-14T11:56:27Z</time>
      </trkpt>
      <trkpt lat="45.95046" lon="1.28504">
        <ele>423.12</ele>
        <time>2016-04-14T11:56:33Z</time>
      </trkpt>
      <trkpt lat="45.95045" lon="1.285">
        <ele>423.6</ele>
        <time>2016-04-14T11:56:35Z</time>
      </trkpt>
      <trkpt lat="45.95043" lon="1.28469">
        <ele>426.48</ele>
        <time>2016-04-14T11:56:49Z</time>
      </trkpt>
      <trkpt lat="45.95041" lon="1.28459">
        <ele>426.96</ele>
        <time>2016-04-14T11:56:55Z</time>
      </trkpt>
      <trkpt lat="45.95017" lon="1.28434">
        <ele>426.48</ele>
        <time>2016-04-14T11:57:05Z</time>
      </trkpt>
      <trkpt lat="45.95013" lon="1.28432">
        <ele>426</ele>
        <time>2016-04-14T11:57:06Z</time>
      </trkpt>
      <trkpt lat="45.95009" lon="1.2843">
        <ele>426</ele>
        <time>2016-04-14T11:57:07Z</time>
      </trkpt>
      <trkpt lat="45.9496" lon="1.28398">
        <ele>424.56</ele>
        <time>2016-04-14T11:57:21Z</time>
      </trkpt>
      <trkpt lat="45.94923" lon="1.28394">
        <ele>424.56</ele>
        <time>2016-04-14T11:57:33Z</time>
      </trkpt>
      <trkpt lat="45.94877" lon="1.28428">
        <ele>423.6</ele>
        <time>2016-04-14T11:57:45Z</time>
      </trkpt>
      <trkpt lat="45.94873" lon="1.2843">
        <ele>423.6</ele>
        <time>2016-04-14T11:57:46Z</time>
      </trkpt>
      <trkpt lat="45.94844" lon="1.28441">
        <ele>423.6</ele>
        <time>2016-04-14T11:57:53Z</time>
      </trkpt>
      <trkpt lat="45.9484" lon="1.28441">
        <ele>423.6</ele>
        <time>2016-04-14T11:57:54Z</time>
      </trkpt>
      <trkpt lat="45.94816" lon="1.28439">
        <ele>423.6</ele>
        <time>2016-04-14T11:57:59Z</time>
      </trkpt>
      <trkpt lat="45.94812" lon="1.28438">
        <ele>423.6</ele>
        <time>2016-04-14T11:58:00Z</time>
      </trkpt>
      <trkpt lat="45.94803" lon="1.28435">
        <ele>423.6</ele>
        <time>2016-04-14T11:58:02Z</time>
      </trkpt>
      <trkpt lat="45.94799" lon="1.28433">
        <ele>423.6</ele>
        <time>2016-04-14T11:58:03Z</time>
      </trkpt>
      <trkpt lat="45.94795" lon="1.28432">
        <ele>423.6</ele>
        <time>2016-04-14T11:58:04Z</time>
      </trkpt>
      <trkpt lat="45.94786" lon="1.28432">
        <ele>423.6</ele>
        <time>2016-04-14T11:58:06Z</time>
      </trkpt>
      <trkpt lat="45.94777" lon="1.28432">
        <ele>423.6</ele>
        <time>2016-04-14T11:58:08Z</time>
      </trkpt>
      <trkpt lat="45.94773" lon="1.28431">
        <ele>423.6</ele>
        <time>2016-04-14T11:58:09Z</time>
      </trkpt>
      <trkpt lat="45.94717" lon="1.28418">
        <ele>423.6</ele>
        <time>2016-04-14T11:58:23Z</time>
      </trkpt>
      <trkpt lat="45.94699" lon="1.28378">
        <ele>423.6</ele>
        <time>2016-04-14T11:58:31Z</time>
      </trkpt>
      <trkpt lat="45.94688" lon="1.28347">
        <ele>425.04</ele>
        <time>2016-04-14T11:58:38Z</time>
      </trkpt>
      <trkpt lat="45.94688" lon="1.28313">
        <ele>425.04</ele>
        <time>2016-04-14T11:58:46Z</time>
      </trkpt>
      <trkpt lat="45.94687" lon="1.28309">
        <ele>425.04</ele>
        <time>2016-04-14T11:58:47Z</time>
      </trkpt>
      <trkpt lat="45.94687" lon="1.28305">
        <ele>425.04</ele>
        <time>2016-04-14T11:58:48Z</time>
      </trkpt>
      <trkpt lat="45.94686" lon="1.28302">
        <ele>425.52</ele>
        <time>2016-04-14T11:58:49Z</time>
      </trkpt>
      <trkpt lat="45.94684" lon="1.283">
        <ele>426</ele>
        <time>2016-04-14T11:58:50Z</time>
      </trkpt>
      <trkpt lat="45.94682" lon="1.28298">
        <ele>426</ele>
        <time>2016-04-14T11:58:51Z</time>
      </trkpt>
      <trkpt lat="45.9468" lon="1.28298">
        <ele>426.48</ele>
        <time>2016-04-14T11:58:52Z</time>
      </trkpt>
      <trkpt lat="45.94678" lon="1.28297">
        <ele>426.48</ele>
        <time>2016-04-14T11:58:53Z</time>
      </trkpt>
      <trkpt lat="45.94676" lon="1.28297">
        <ele>426.48</ele>
        <time>2016-04-14T11:58:54Z</time>
      </trkpt>
      <trkpt lat="45.94646" lon="1.28308">
        <ele>429.37</ele>
        <time>2016-04-14T11:59:09Z</time>
      </trkpt>
      <trkpt lat="45.94623" lon="1.28307">
        <ele>431.29</ele>
        <time>2016-04-14T11:59:21Z</time>
      </trkpt>
      <trkpt lat="45.94594" lon="1.28286">
        <ele>433.69</ele>
        <time>2016-04-14T11:59:36Z</time>
      </trkpt>
      <trkpt lat="45.94588" lon="1.28282">
        <ele>434.17</ele>
        <time>2016-04-14T11:59:39Z</time>
      </trkpt>
      <trkpt lat="45.94587" lon="1.2828">
        <ele>434.17</ele>
        <time>2016-04-14T11:59:40Z</time>
      </trkpt>
      <trkpt lat="45.94561" lon="1.28256">
        <ele>434.65</ele>
        <time>2016-04-14T11:59:53Z</time>
      </trkpt>
      <trkpt lat="45.94538" lon="1.28228">
        <ele>434.17</ele>
        <time>2016-04-14T12:00:05Z</time>
      </trkpt>
      <trkpt lat="45.94517" lon="1.28185">
        <ele>435.61</ele>
        <time>2016-04-14T12:00:20Z</time>
      </trkpt>
      <trkpt lat="45.94515" lon="1.28179">
        <ele>435.61</ele>
        <time>2016-04-14T12:00:23Z</time>
      </trkpt>
      <trkpt lat="45.94514" lon="1.28178">
        <ele>435.61</ele>
        <time>2016-04-14T12:00:24Z</time>
      </trkpt>
      <trkpt lat="45.94512" lon="1.28176">
        <ele>435.61</ele>
        <time>2016-04-14T12:00:25Z</time>
      </trkpt>
      <trkpt lat="45.9451" lon="1.28173">
        <ele>435.61</ele>
        <time>2016-04-14T12:00:27Z</time>
      </trkpt>
      <trkpt lat="45.9451" lon="1.28172">
        <ele>435.61</ele>
        <time>2016-04-14T12:00:28Z</time>
      </trkpt>
      <trkpt lat="45.9451" lon="1.28172">
        <ele>435.61</ele>
        <time>2016-04-14T12:00:40Z</time>
      </trkpt>
      <trkpt lat="45.94509" lon="1.28168">
        <ele>435.13</ele>
        <time>2016-04-14T12:00:56Z</time>
      </trkpt>
      <trkpt lat="45.94508" lon="1.28165">
        <ele>435.13</ele>
        <time>2016-04-14T12:00:57Z</time>
      </trkpt>
      <trkpt lat="45.94507" lon="1.28162">
        <ele>435.13</ele>
        <time>2016-04-14T12:00:58Z</time>
      </trkpt>
      <trkpt lat="45.94504" lon="1.28159">
        <ele>433.69</ele>
        <time>2016-04-14T12:00:59Z</time>
      </trkpt>
      <trkpt lat="45.94502" lon="1.28155">
        <ele>433.21</ele>
        <time>2016-04-14T12:01:00Z</time>
      </trkpt>
      <trkpt lat="45.94499" lon="1.2815">
        <ele>432.73</ele>
        <time>2016-04-14T12:01:01Z</time>
      </trkpt>
      <trkpt lat="45.94496" lon="1.28144">
        <ele>432.73</ele>
        <time>2016-04-14T12:01:02Z</time>
      </trkpt>
      <trkpt lat="45.94483" lon="1.28121">
        <ele>427.92</ele>
        <time>2016-04-14T12:01:05Z</time>
      </trkpt>
      <trkpt lat="45.94468" lon="1.28093">
        <ele>424.56</ele>
        <time>2016-04-14T12:01:08Z</time>
      </trkpt>
      <trkpt lat="45.94446" lon="1.28052">
        <ele>421.19</ele>
        <time>2016-04-14T12:01:12Z</time>
      </trkpt>
      <trkpt lat="45.9442" lon="1.28003">
        <ele>420.23</ele>
        <time>2016-04-14T12:01:17Z</time>
      </trkpt>
      <trkpt lat="45.94414" lon="1.27997">
        <ele>420.23</ele>
        <time>2016-04-14T12:01:18Z</time>
      </trkpt>
      <trkpt lat="45.94407" lon="1.27992">
        <ele>419.27</ele>
        <time>2016-04-14T12:01:19Z</time>
      </trkpt>
      <trkpt lat="45.944" lon="1.2799">
        <ele>419.27</ele>
        <time>2016-04-14T12:01:20Z</time>
      </trkpt>
      <trkpt lat="45.94392" lon="1.2799">
        <ele>419.27</ele>
        <time>2016-04-14T12:01:21Z</time>
      </trkpt>
      <trkpt lat="45.94385" lon="1.2799">
        <ele>419.27</ele>
        <time>2016-04-14T12:01:22Z</time>
      </trkpt>
      <trkpt lat="45.94363" lon="1.27994">
        <ele>419.27</ele>
        <time>2016-04-14T12:01:25Z</time>
      </trkpt>
      <trkpt lat="45.94356" lon="1.27996">
        <ele>419.27</ele>
        <time>2016-04-14T12:01:26Z</time>
      </trkpt>
      <trkpt lat="45.94349" lon="1.27999">
        <ele>419.27</ele>
        <time>2016-04-14T12:01:27Z</time>
      </trkpt>
      <trkpt lat="45.94343" lon="1.28002">
        <ele>419.27</ele>
        <time>2016-04-14T12:01:28Z</time>
      </trkpt>
      <trkpt lat="45.94337" lon="1.28006">
        <ele>419.27</ele>
        <time>2016-04-14T12:01:29Z</time>
      </trkpt>
      <trkpt lat="45.94318" lon="1.28023">
        <ele>421.68</ele>
        <time>2016-04-14T12:01:33Z</time>
      </trkpt>
      <trkpt lat="45.94312" lon="1.2803">
        <ele>423.12</ele>
        <time>2016-04-14T12:01:35Z</time>
      </trkpt>
      <trkpt lat="45.94309" lon="1.28035">
        <ele>423.12</ele>
        <time>2016-04-14T12:01:36Z</time>
      </trkpt>
      <trkpt lat="45.94307" lon="1.2804">
        <ele>423.6</ele>
        <time>2016-04-14T12:01:37Z</time>
      </trkpt>
      <trkpt lat="45.94286" lon="1.28125">
        <ele>424.56</ele>
        <time>2016-04-14T12:01:50Z</time>
      </trkpt>
      <trkpt lat="45.94264" lon="1.28187">
        <ele>427.44</ele>
        <time>2016-04-14T12:02:04Z</time>
      </trkpt>
      <trkpt lat="45.94236" lon="1.28234">
        <ele>428.4</ele>
        <time>2016-04-14T12:02:19Z</time>
      </trkpt>
      <trkpt lat="45.94222" lon="1.2823">
        <ele>428.4</ele>
        <time>2016-04-14T12:02:25Z</time>
      </trkpt>
      <trkpt lat="45.94221" lon="1.28226">
        <ele>428.4</ele>
        <time>2016-04-14T12:02:26Z</time>
      </trkpt>
      <trkpt lat="45.94221" lon="1.28222">
        <ele>428.89</ele>
        <time>2016-04-14T12:02:27Z</time>
      </trkpt>
      <trkpt lat="45.94222" lon="1.28218">
        <ele>428.89</ele>
        <time>2016-04-14T12:02:28Z</time>
      </trkpt>
      <trkpt lat="45.94223" lon="1.28215">
        <ele>428.89</ele>
        <time>2016-04-14T12:02:29Z</time>
      </trkpt>
      <trkpt lat="45.94224" lon="1.28212">
        <ele>429.37</ele>
        <time>2016-04-14T12:02:30Z</time>
      </trkpt>
      <trkpt lat="45.94237" lon="1.28177">
        <ele>429.85</ele>
        <time>2016-04-14T12:02:42Z</time>
      </trkpt>
      <trkpt lat="45.94235" lon="1.28177">
        <ele>429.85</ele>
        <time>2016-04-14T12:02:52Z</time>
      </trkpt>
      <trkpt lat="45.94234" lon="1.28174">
        <ele>429.85</ele>
        <time>2016-04-14T12:03:10Z</time>
      </trkpt>
      <trkpt lat="45.94233" lon="1.28172">
        <ele>429.37</ele>
        <time>2016-04-14T12:03:48Z</time>
      </trkpt>
      <trkpt lat="45.9423" lon="1.28174">
        <ele>429.37</ele>
        <time>2016-04-14T12:04:13Z</time>
      </trkpt>
      <trkpt lat="45.94232" lon="1.28172">
        <ele>429.37</ele>
        <time>2016-04-14T12:04:36Z</time>
      </trkpt>
      <trkpt lat="45.94233" lon="1.28172">
        <ele>429.37</ele>
        <time>2016-04-14T12:04:53Z</time>
      </trkpt>
      <trkpt lat="45.94231" lon="1.28172">
        <ele>429.37</ele>
        <time>2016-04-14T12:05:16Z</time>
      </trkpt>
      <trkpt lat="45.94233" lon="1.28172">
        <ele>429.85</ele>
        <time>2016-04-14T12:05:39Z</time>
      </trkpt>
      <trkpt lat="45.94231" lon="1.2817">
        <ele>430.33</ele>
        <time>2016-04-14T12:06:06Z</time>
      </trkpt>
      <trkpt lat="45.94234" lon="1.28172">
        <ele>429.85</ele>
        <time>2016-04-14T12:06:35Z</time>
      </trkpt>
      <trkpt lat="45.94231" lon="1.28169">
        <ele>429.85</ele>
        <time>2016-04-14T12:07:03Z</time>
      </trkpt>
      <trkpt lat="45.94232" lon="1.28171">
        <ele>429.85</ele>
        <time>2016-04-14T12:07:31Z</time>
      </trkpt>
      <trkpt lat="45.94235" lon="1.28172">
        <ele>429.85</ele>
        <time>2016-04-14T12:07:45Z</time>
      </trkpt>
    </trkseg>
  </trk>
</gpx>